GFSSW_sfc_thetae_000.txt.gz
Theta_e
320 320 321 321 321 322 322 323 323 323 324 325 325 325 325 326 324 312 305 312 317 330 322 310 308 307 305 304 303 300 290 288 290 292 294 295 294 296 295 294 296 299 296 296 298
320 320 320 320 320 321 321 322 322 322 323 324 324 325 325 325 312 307 319 333 332 331 310 305 302 303 300 301 301 297 290 291 295 297 293 295 295 295 293 293 293 295 295 296 297
320 319 319 319 319 320 321 321 321 321 322 323 324 324 324 321 305 306 330 335 332 327 310 307 305 303 298 299 299 297 292 296 298 298 297 296 294 296 294 293 295 296 297 296 294
320 319 318 318 319 319 320 320 320 320 321 322 323 323 323 314 290 308 328 331 330 313 308 304 302 299 297 296 300 294 298 298 300 300 297 295 295 294 295 300 299 298 296 295 294
320 319 318 318 318 318 319 319 319 320 320 321 322 322 312 301 302 314 325 325 315 310 304 303 300 299 295 297 297 296 297 299 300 299 297 297 297 296 296 298 298 298 297 295 296
319 318 318 317 317 318 318 318 319 320 320 320 321 320 303 292 306 312 310 311 308 304 302 302 301 301 297 297 296 295 297 297 298 298 298 297 295 296 300 297 298 298 298 295 296
320 318 318 318 318 317 318 318 318 319 319 320 320 318 305 298 307 307 307 305 304 303 301 301 302 300 297 295 298 296 294 294 296 296 295 296 293 293 301 296 297 296 296 296 296
320 319 318 318 318 319 319 319 319 319 319 320 321 311 295 307 304 304 304 302 303 303 302 302 302 300 297 298 295 291 291 287 293 294 295 295 290 296 298 295 297 296 295 295 297
319 318 318 318 318 318 319 319 318 319 319 320 309 302 296 311 303 305 304 301 301 302 301 305 301 296 295 291 287 286 284 285 290 295 294 292 290 296 295 294 295 296 295 296 297
319 319 318 318 318 318 319 319 317 315 316 317 312 297 300 299 304 303 301 303 300 300 299 299 295 291 290 288 283 284 283 286 287 291 291 289 291 296 297 293 293 294 293 292 294
319 319 318 318 319 319 314 306 297 295 301 294 296 296 299 303 304 302 302 301 301 296 291 293 289 287 292 291 292 286 285 285 288 293 290 290 292 295 298 295 292 294 297 298 299
320 319 318 318 318 318 307 302 299 300 293 299 299 299 301 302 297 301 303 297 296 291 292 289 287 293 294 291 291 289 288 288 291 293 289 290 290 294 294 297 298 297 297 297 299
319 318 318 317 317 308 301 300 305 303 292 295 297 295 296 301 296 297 300 296 292 290 291 290 291 295 292 290 289 289 287 288 288 289 288 286 287 287 292 294 296 295 297 299 300
319 318 317 316 309 304 300 303 304 302 284 289 293 295 298 298 292 296 297 296 292 290 290 289 294 293 290 289 291 288 291 290 287 284 283 286 282 285 289 291 293 294 295 296 298
318 318 317 315 305 303 305 306 303 296 278 291 292 300 298 292 291 292 293 294 289 289 289 288 288 289 288 291 291 290 289 288 285 283 282 282 281 284 288 287 291 295 295 296 298
317 317 316 311 306 307 306 303 298 285 278 288 291 291 290 292 291 291 291 292 291 288 288 289 289 289 290 289 290 289 288 286 283 282 279 284 283 284 284 288 289 293 295 296 298
318 317 314 313 305 308 305 302 294 283 291 289 288 290 289 288 289 288 287 286 285 282 281 285 286 287 290 287 287 288 285 278 275 274 278 284 280 288 288 292 291 293 295 296 296
315 317 314 314 309 309 307 299 287 293 289 294 294 289 288 290 290 288 285 283 286 285 281 281 282 287 289 289 286 286 286 282 273 276 282 279 279 286 291 293 293 293 294 292 292
315 315 312 314 309 309 301 290 292 293 297 296 297 292 288 288 290 287 285 284 287 288 285 282 284 287 288 288 290 283 282 288 281 270 273 283 285 290 289 291 291 291 291 291 291
311 311 310 313 311 307 296 293 295 296 298 298 292 294 288 288 290 288 287 288 288 289 291 286 283 288 285 287 286 287 288 281 280 275 273 279 281 285 288 290 289 290 291 291 290
309 303 308 311 309 300 290 293 296 299 299 296 294 294 291 291 293 290 290 290 293 289 291 290 287 286 284 284 285 284 284 284 284 283 280 279 283 287 287 286 288 290 292 290 290
304 295 308 310 296 296 293 295 298 297 299 298 297 295 294 294 293 294 293 295 297 294 291 292 289 284 287 289 287 286 287 288 283 280 280 281 283 295 295 294 295 294 293 291 290
298 297 307 307 291 293 295 295 297 296 296 296 295 297 297 293 290 293 294 299 299 298 294 295 288 283 284 288 289 283 285 287 287 283 283 280 282 295 295 294 296 294 295 292 291
294 290 297 299 299 294 292 293 292 297 296 297 295 296 293 291 294 291 291 295 297 297 299 297 290 286 282 285 288 285 285 285 285 282 283 283 285 290 292 293 295 296 296 291 293
289 287 293 287 291 293 294 293 290 289 295 296 293 293 291 288 289 288 291 291 293 296 296 294 286 288 289 290 290 289 289 289 287 288 284 286 286 290 292 294 296 297 298 295 292
286 286 290 288 289 290 290 288 289 290 291 289 289 291 291 287 287 285 286 286 286 289 288 290 285 288 286 288 287 285 288 289 288 288 288 288 287 295 296 297 296 296 297 297 296
288 289 289 283 282 280 283 285 287 288 290 291 289 285 285 286 287 287 288 288 288 286 285 285 284 283 280 284 283 280 286 287 288 290 289 285 289 289 288 290 294 294 289 289 290

GFSSW_sfc_thetae_003.txt.gz
Theta_e
321 321 321 321 321 321 322 322 322 322 323 323 324 324 324 325 324 311 303 311 315 330 320 308 307 305 304 302 302 297 289 286 288 290 292 294 292 294 294 294 294 297 295 295 296
320 320 320 320 320 320 321 322 321 322 322 323 323 324 324 324 311 305 317 330 332 331 308 305 302 302 299 300 300 296 287 289 292 293 295 294 294 294 294 292 292 294 295 295 295
320 319 319 320 320 320 320 321 320 321 321 321 322 323 323 320 302 300 326 333 334 325 309 305 303 302 297 297 298 296 292 294 297 298 296 295 293 295 292 293 294 295 297 295 294
320 319 319 319 319 319 320 320 320 320 321 321 321 322 321 312 290 302 329 334 332 313 307 303 300 297 296 295 299 294 297 296 298 299 296 294 295 294 294 300 298 298 296 294 294
320 319 319 319 319 319 319 319 319 319 320 320 321 321 310 297 300 312 328 328 315 308 304 301 299 298 295 295 296 295 296 299 299 298 297 297 296 295 295 299 297 297 296 295 295
320 319 319 319 319 319 319 319 319 319 319 320 320 319 302 291 303 313 311 311 306 304 301 301 299 300 295 296 295 295 296 297 297 297 297 296 298 295 299 297 298 296 296 294 294
321 320 319 319 320 319 319 320 320 320 319 319 320 317 301 297 305 309 307 305 304 302 299 299 299 298 295 293 296 295 293 293 293 294 295 295 293 292 300 295 296 295 295 295 295
321 319 319 319 319 320 320 320 320 320 320 319 318 309 293 305 303 304 303 301 301 301 300 300 300 298 295 296 294 290 289 286 291 292 293 293 288 297 297 294 295 296 295 295 296
320 319 319 319 319 319 319 320 319 318 318 319 308 299 293 309 302 303 302 301 300 300 300 304 299 295 293 289 287 285 283 284 288 293 292 291 288 295 294 293 294 294 295 296 297
319 319 319 319 319 319 319 319 317 315 316 316 309 294 295 297 303 302 300 301 298 298 297 297 293 290 288 286 282 283 282 284 284 291 289 288 289 294 296 292 293 295 296 298 299
320 319 319 319 319 320 313 304 297 294 301 295 296 293 296 301 303 300 301 301 298 294 290 291 288 286 291 290 291 285 284 284 288 291 287 289 290 293 296 296 297 297 295 297 298
320 319 319 318 319 317 304 300 297 298 291 298 298 298 299 301 296 299 301 296 294 290 290 288 286 292 292 290 289 287 286 287 291 292 287 289 289 292 292 295 296 298 298 298 298
319 318 318 318 317 307 299 298 303 301 290 293 296 295 295 299 296 296 299 295 292 289 289 290 290 293 291 288 287 287 286 288 287 288 287 286 287 289 290 291 295 296 298 298 297
320 318 317 317 309 303 300 303 303 300 285 288 291 294 296 296 291 294 295 294 290 290 288 288 292 291 288 287 289 287 289 289 287 283 282 285 281 284 290 292 293 294 295 295 296
319 318 317 315 305 303 303 304 302 294 281 292 291 298 296 291 290 291 293 293 288 289 287 287 286 286 287 290 289 288 289 286 284 282 281 282 279 284 287 288 289 292 293 295 296
318 318 317 311 306 305 304 303 296 288 281 289 290 290 289 291 290 290 290 291 290 287 287 288 288 289 289 288 289 288 286 284 282 282 278 283 282 286 284 288 288 291 293 294 294
316 317 314 312 307 308 304 302 293 285 293 289 287 289 287 286 288 288 287 286 286 282 282 284 285 286 290 286 286 286 283 277 275 273 277 282 280 288 288 290 291 294 291 293 292
313 316 314 313 309 308 307 299 287 292 290 294 292 289 290 289 291 288 285 284 285 283 280 281 283 286 288 288 285 284 284 278 272 275 281 279 278 288 291 292 290 291 291 291 292
312 315 313 314 309 310 303 291 288 293 296 295 295 290 288 288 289 286 283 284 287 287 285 280 281 285 287 287 289 283 281 287 281 277 277 283 285 290 289 289 288 289 289 290 291
304 312 311 314 311 308 298 292 293 297 297 297 291 294 288 285 291 288 286 287 287 288 289 286 282 286 284 285 286 286 287 280 279 273 274 279 282 285 289 292 289 289 289 291 292
305 302 307 310 310 301 290 293 296 299 299 296 294 293 291 291 293 292 292 290 290 289 290 289 287 286 286 284 287 282 282 283 283 281 279 278 282 293 292 288 288 291 293 293 290
302 293 308 310 296 297 293 295 298 297 298 299 297 296 294 293 292 292 291 293 298 295 291 292 289 284 287 288 288 286 285 285 280 280 281 282 283 294 295 292 293 295 297 295 291
295 294 307 306 291 293 295 295 297 296 295 296 295 296 296 292 288 292 293 298 299 297 294 293 287 283 283 285 286 286 289 289 288 285 280 278 282 294 295 295 296 294 292 293 293
293 287 297 300 299 294 291 292 292 298 296 298 296 295 292 291 293 289 290 293 294 295 297 296 290 286 282 283 288 285 286 288 287 282 282 283 285 289 292 293 295 295 294 292 289
289 287 291 285 290 291 292 290 288 289 295 297 293 293 291 287 288 287 290 289 290 292 291 291 285 286 287 288 288 287 286 288 286 286 282 285 286 290 293 287 284 288 286 285 285
286 285 289 285 288 288 289 287 287 288 290 289 288 290 290 287 288 285 284 285 285 286 286 288 281 284 282 284 284 283 285 285 285 284 283 284 284 279 280 280 280 281 281 280 282
287 288 288 283 282 283 283 286 286 286 288 289 287 286 286 286 285 285 286 286 286 283 281 282 281 279 275 280 279 275 280 282 284 284 282 278 275 278 277 277 278 280 280 281 283

GFSSW_sfc_thetae_006.txt.gz
Theta_e
321 321 321 321 321 321 322 322 322 322 322 323 323 324 324 324 323 309 301 310 313 330 319 307 306 303 303 301 300 295 289 285 288 288 291 293 291 296 294 294 293 297 295 296 295
321 320 320 321 321 321 321 321 321 321 322 322 322 323 323 323 310 304 316 327 332 329 307 304 301 301 298 298 299 295 287 289 291 290 292 293 293 294 296 293 291 294 295 294 295
320 320 320 320 320 321 320 320 320 320 321 321 322 322 322 319 298 298 326 331 334 324 307 304 302 301 295 298 297 294 291 292 295 295 295 294 292 294 292 293 294 295 296 294 294
320 320 320 320 320 321 321 320 320 320 320 320 321 321 321 309 290 300 330 333 333 309 305 302 300 296 294 294 297 293 296 295 296 297 295 294 295 293 294 300 299 297 297 294 294
321 320 320 320 320 320 320 320 320 320 320 320 320 321 308 294 298 312 329 329 311 306 303 300 297 296 293 294 294 293 295 297 298 296 297 296 296 295 293 298 297 297 295 295 294
321 320 320 320 320 320 320 320 320 320 320 319 320 319 299 291 302 315 316 310 307 303 300 300 298 299 294 294 294 293 294 295 295 296 296 296 297 294 297 296 297 295 295 294 294
322 321 320 320 321 321 320 321 320 320 320 320 319 315 299 296 304 310 309 305 304 302 299 299 299 296 294 292 294 294 292 292 292 293 293 294 292 291 299 295 296 295 294 294 294
321 320 320 320 320 320 320 320 321 320 320 320 319 307 292 302 303 304 303 300 301 300 299 299 299 297 294 294 292 288 288 285 289 291 292 293 286 294 294 291 293 294 294 294 296
320 319 319 319 319 319 320 320 319 319 319 318 307 297 292 308 300 302 301 299 299 299 299 303 298 294 292 288 286 284 282 283 287 292 291 290 287 293 292 292 293 293 294 295 298
320 319 319 319 319 319 319 317 317 315 316 315 308 293 296 295 301 300 299 301 298 297 296 295 292 289 287 286 282 283 281 283 283 289 287 287 288 293 295 293 293 294 296 297 298
320 319 319 319 319 320 309 301 296 293 299 295 296 293 294 300 302 299 301 300 297 293 290 290 287 286 290 289 289 283 283 283 286 290 286 289 290 292 294 292 295 296 296 296 298
320 320 319 319 319 316 302 298 296 297 291 297 297 298 298 299 295 297 300 296 293 290 289 287 285 291 290 288 287 286 285 286 289 291 286 287 288 292 293 294 295 296 297 297 297
320 319 319 318 317 307 299 297 303 301 290 293 295 294 295 298 294 295 298 294 291 288 288 288 290 292 289 286 286 284 283 286 285 287 286 284 285 286 290 290 294 294 296 294 294
320 320 318 317 310 303 300 302 303 299 288 290 290 293 295 295 289 294 295 293 289 289 287 287 290 290 286 286 287 285 288 288 286 283 281 284 280 284 288 289 290 293 291 292 293
319 319 319 316 306 304 303 303 300 293 282 293 290 297 295 290 289 290 292 292 288 288 287 286 285 285 285 288 288 287 287 286 283 282 280 280 278 283 285 286 289 291 292 291 292
317 318 317 312 307 307 305 303 296 289 284 290 289 289 289 290 289 290 290 291 289 286 285 287 287 288 288 288 289 287 285 283 281 281 277 282 281 286 283 285 288 291 296 292 292
313 315 314 313 308 307 305 304 294 287 294 289 286 288 286 286 288 287 287 286 286 283 282 284 285 286 288 285 285 285 282 276 274 273 276 280 279 286 289 292 290 291 291 291 291
310 313 314 313 310 307 307 300 286 290 291 293 291 290 289 289 290 287 284 284 285 283 281 282 285 285 287 287 285 283 284 278 274 272 280 278 278 288 290 291 291 289 290 289 290
310 314 313 314 309 310 304 291 289 290 294 293 294 289 287 288 290 285 283 284 288 286 286 281 283 285 286 286 287 282 281 286 281 282 276 283 284 289 292 288 289 286 288 289 291
301 308 307 314 310 308 298 292 291 296 296 295 291 293 287 286 286 285 285 286 287 287 289 287 283 286 285 286 286 285 286 280 279 275 273 278 281 284 289 292 290 289 289 291 291
300 299 304 309 311 301 291 293 296 300 299 295 293 293 292 291 291 291 292 292 289 288 288 288 286 285 286 284 285 284 282 282 283 282 278 277 282 289 291 293 289 289 292 292 289
298 290 306 310 295 296 292 295 297 297 298 296 297 295 293 293 291 291 290 293 295 293 288 289 291 285 286 289 288 286 287 286 282 280 281 281 281 293 292 294 290 287 287 288 288
294 293 307 306 288 290 294 294 297 295 295 295 294 295 296 292 289 292 292 296 297 295 293 294 287 281 282 285 286 285 288 289 289 285 282 279 281 293 293 287 286 283 282 283 284
292 283 295 298 296 292 289 289 290 295 295 296 295 296 293 290 292 290 290 292 292 293 295 294 287 284 280 282 286 285 287 288 287 282 282 282 284 289 282 280 280 282 280 281 282
286 284 288 282 287 289 291 289 287 287 291 293 292 291 290 287 288 288 290 290 289 291 290 290 284 286 286 288 286 284 283 283 282 284 280 282 283 284 277 278 279 281 281 281 281
282 282 285 282 284 284 286 285 286 287 288 287 286 288 288 285 287 284 287 284 284 286 285 287 280 281 277 281 281 279 282 281 282 282 282 282 280 277 278 280 279 280 280 280 281
285 286 287 281 281 279 279 282 283 283 285 285 283 284 284 285 286 285 285 284 284 282 281 281 280 277 273 278 277 272 277 279 280 282 278 275 274 275 276 277 277 279 281 279 280

GFSSW_sfc_thetae_009.txt.gz
Theta_e
321 321 322 322 322 322 322 322 322 322 322 323 323 323 323 324 322 311 301 309 313 331 319 308 307 305 306 304 302 299 292 288 291 290 293 296 295 297 298 298 297 299 300 302 300
321 321 321 322 322 322 322 321 321 321 321 322 322 323 323 322 310 304 315 326 333 326 306 304 302 303 300 301 301 297 290 291 293 292 294 296 296 298 297 297 296 298 299 299 300
321 321 321 321 321 322 322 321 321 321 321 321 321 322 322 318 298 298 326 329 333 320 306 304 303 302 299 300 299 296 293 294 295 295 296 296 295 297 296 296 298 298 300 299 298
321 321 321 321 321 322 322 322 322 321 321 320 321 321 321 308 290 298 328 333 332 308 305 303 301 298 297 296 299 294 296 296 298 298 296 296 297 296 296 302 302 300 300 299 298
322 321 321 321 321 322 322 321 322 322 321 321 320 320 308 293 297 314 330 331 309 306 303 301 299 297 295 295 296 295 296 298 298 297 297 297 297 296 296 300 299 299 298 298 297
322 321 321 321 321 321 321 321 322 322 321 321 320 319 297 291 302 319 317 310 306 304 301 301 299 299 295 295 295 295 295 295 295 296 296 296 297 296 298 299 299 297 298 297 296
322 321 321 321 321 321 321 321 321 321 321 321 320 314 297 296 304 311 310 305 305 302 299 300 300 298 296 293 295 294 292 293 292 293 293 295 293 292 299 295 297 298 296 296 296
321 320 320 320 320 320 321 321 321 320 320 320 319 306 292 302 304 305 301 300 302 301 300 300 300 298 296 296 293 290 289 287 291 292 292 294 289 295 296 293 294 295 297 296 299
320 319 319 320 319 319 320 320 318 319 319 319 305 294 292 307 300 301 301 299 299 299 300 302 299 294 293 289 286 286 284 284 287 292 291 291 289 293 294 293 293 295 297 299 300
320 319 319 320 319 319 319 315 317 314 315 314 307 292 296 295 301 300 299 300 298 298 297 296 292 290 287 287 282 283 282 283 284 291 288 288 288 293 295 294 296 297 297 297 298
320 320 320 320 320 319 307 299 297 294 298 294 295 293 293 299 301 299 300 299 297 294 290 291 288 286 289 289 287 285 283 283 287 290 287 290 290 291 294 293 294 296 297 298 298
321 321 320 319 319 315 301 297 295 296 292 297 297 297 298 298 295 297 300 296 293 290 289 287 285 291 290 289 288 286 285 285 288 290 286 287 289 293 294 295 296 296 297 296 296
321 320 320 319 317 307 299 298 303 300 289 294 295 294 294 298 294 294 297 294 291 288 287 287 289 291 289 287 286 285 284 286 285 286 287 285 285 287 292 291 293 295 295 295 294
321 320 319 318 311 303 300 301 302 298 288 292 291 292 295 294 289 293 295 293 289 289 287 287 290 289 286 287 287 284 288 287 285 283 280 286 280 284 290 290 291 292 292 292 293
318 319 320 316 308 305 302 302 301 294 284 293 289 296 295 290 289 290 292 291 287 288 287 287 286 285 285 288 288 287 287 285 284 282 281 281 278 284 286 287 289 292 294 294 293
314 317 316 312 309 307 303 302 296 291 284 291 289 288 288 289 289 289 290 291 289 287 286 287 287 288 288 287 288 287 285 283 282 282 277 282 281 283 284 288 288 291 294 293 293
310 313 315 313 309 306 305 306 292 287 295 290 287 287 285 285 287 287 287 286 286 283 282 284 285 286 287 285 285 286 283 278 276 274 277 281 279 285 288 292 291 293 292 291 292
309 313 314 314 309 306 308 300 287 290 291 293 291 290 289 290 289 286 285 285 286 284 281 283 285 286 287 288 286 283 284 280 274 275 281 277 280 289 289 292 291 290 290 292 292
309 310 312 313 308 310 304 291 290 289 293 292 294 289 286 288 290 286 284 285 287 287 286 281 282 285 286 287 288 282 281 287 281 279 278 282 285 292 293 289 289 289 288 287 288
300 304 306 312 309 308 298 292 294 295 296 295 290 292 286 287 289 287 286 286 286 287 290 287 285 287 286 284 286 286 287 281 279 274 275 280 282 284 289 286 286 286 285 285 286
300 296 302 309 311 301 289 290 294 298 299 295 293 292 291 291 290 288 291 292 290 289 289 287 286 286 286 283 283 282 282 282 283 282 278 277 281 289 283 284 283 283 283 283 283
297 288 305 311 296 296 291 293 296 295 298 296 296 293 292 292 290 290 289 293 295 291 286 288 288 282 284 289 287 286 286 286 282 280 281 282 282 292 283 283 281 280 281 282 283
292 291 305 306 288 290 292 293 295 293 293 295 293 294 293 290 287 291 290 293 295 295 292 293 287 281 283 285 286 287 288 288 287 285 281 279 282 289 285 283 282 280 280 281 282
287 282 291 299 294 290 288 288 289 293 293 295 293 293 291 289 291 288 289 292 291 293 295 294 287 284 280 282 286 284 286 286 286 281 281 282 284 287 280 278 280 281 281 281 281
284 282 287 285 284 287 288 287 284 284 289 290 287 288 287 285 285 285 289 289 291 291 289 290 283 285 285 285 284 281 281 281 279 281 277 280 280 284 276 277 279 280 282 281 280
281 279 283 284 285 282 286 283 284 285 287 285 284 285 285 283 285 283 285 285 285 284 283 286 281 280 276 281 280 278 279 280 279 280 280 280 280 277 278 279 278 278 281 279 278
283 284 283 280 280 278 278 281 280 282 283 282 281 281 280 282 284 285 285 284 284 283 281 282 280 276 274 278 276 272 276 278 278 280 278 275 273 273 274 276 276 277 281 279 278

GFSSW_sfc_thetae_012.txt.gz
Theta_e
322 322 322 322 322 323 322 322 322 322 322 322 323 323 323 324 322 317 306 313 316 329 321 314 314 312 313 311 309 308 302 298 298 298 300 304 303 304 306 305 305 307 308 312 309
321 321 322 322 322 322 322 322 322 321 321 322 322 322 323 322 315 309 321 325 331 327 313 311 309 310 309 308 309 306 301 300 303 303 302 304 303 305 304 305 306 306 310 310 308
321 321 321 322 322 322 322 322 322 322 321 321 321 322 322 321 307 305 327 330 333 322 314 312 311 309 306 307 307 305 301 304 303 303 303 303 303 304 304 303 307 306 309 311 308
321 321 322 322 322 322 322 322 322 322 321 321 321 321 321 316 298 306 328 334 330 315 312 310 309 306 304 303 306 301 305 305 305 304 303 302 305 303 304 306 309 310 311 310 309
322 322 322 322 322 322 322 322 323 323 322 321 321 321 314 303 305 322 331 332 316 312 310 309 306 306 302 303 302 301 303 305 305 304 304 305 303 303 304 308 309 309 308 307 308
322 321 321 321 322 322 322 322 322 322 321 321 320 319 306 297 310 326 326 314 313 312 309 309 307 307 303 302 301 302 302 302 303 302 303 300 302 301 304 307 306 307 307 308 307
322 321 320 320 321 322 322 322 321 321 321 321 321 316 303 303 312 321 315 313 312 311 307 307 308 306 304 301 302 301 298 301 301 301 300 301 298 298 305 305 304 305 307 307 307
321 320 320 320 320 321 321 321 320 320 320 320 320 313 302 307 314 313 309 307 310 308 307 307 308 305 303 303 300 297 296 294 300 298 299 300 294 302 305 302 302 304 305 306 307
320 319 320 320 320 320 321 319 319 320 321 319 312 304 301 310 304 306 308 305 306 306 307 306 306 302 301 297 295 296 292 293 295 299 297 298 295 301 303 301 301 303 304 305 306
320 320 320 320 320 320 318 314 319 318 317 316 309 300 303 300 305 304 305 306 303 305 303 303 302 299 297 296 290 293 293 293 292 298 297 295 294 298 300 300 300 301 303 304 305
321 321 321 320 320 320 312 310 310 305 305 302 303 301 300 304 306 303 304 303 303 301 297 299 296 294 297 298 298 294 293 292 295 298 295 295 295 297 300 300 300 301 303 304 304
322 322 322 321 320 316 310 305 303 303 302 304 302 301 302 304 300 301 304 301 299 296 296 295 293 298 297 296 294 294 292 292 296 297 293 294 294 297 299 299 301 301 302 303 303
321 321 321 320 319 315 307 304 308 306 299 302 300 299 300 302 299 299 302 300 298 294 294 294 297 297 294 295 292 293 291 292 292 294 295 293 294 295 300 299 301 300 302 301 301
321 321 320 319 315 312 308 306 308 305 298 299 297 298 300 300 295 298 300 299 297 295 294 294 295 293 292 292 294 290 296 293 291 290 289 293 287 295 298 298 298 300 301 301 301
319 320 320 318 318 314 309 307 307 302 288 299 295 302 300 296 296 295 298 299 295 294 294 293 292 291 291 293 294 293 293 291 290 290 288 291 287 295 294 294 297 299 299 299 298
315 319 316 316 315 312 308 307 304 297 287 297 295 294 295 295 294 295 296 298 296 294 293 295 294 294 295 293 293 292 292 290 290 290 285 291 289 291 293 294 296 296 296 295 295
311 316 316 316 313 309 307 309 297 289 299 296 293 293 292 291 292 293 293 293 293 291 292 294 291 293 293 291 292 291 290 287 286 285 284 289 286 291 296 296 293 293 293 293 294
309 316 314 314 312 309 312 303 287 294 296 298 296 295 295 296 294 292 292 293 293 291 292 290 289 292 293 294 295 291 291 287 280 282 285 285 285 291 296 294 293 293 292 292 292
310 315 314 316 311 313 308 290 291 294 298 297 298 294 294 295 295 294 292 294 294 294 292 291 290 292 290 292 294 290 287 293 286 287 283 287 292 297 297 291 292 291 290 288 289
306 309 308 315 312 311 300 291 294 298 299 298 292 295 291 294 292 292 293 294 293 293 293 292 287 294 294 291 292 291 293 286 285 278 278 283 286 288 290 289 289 287 286 287 288
305 299 306 312 313 302 290 292 295 300 301 297 295 293 294 292 293 292 292 296 296 297 293 293 291 291 291 290 289 289 286 286 286 285 280 279 284 292 291 288 286 285 285 285 286
303 291 308 312 297 298 292 294 297 296 299 298 298 296 294 294 291 291 290 294 299 298 292 296 290 285 288 295 293 291 289 289 283 282 284 283 283 289 287 286 284 282 283 284 285
297 295 307 307 290 291 295 294 296 295 295 295 293 296 296 292 288 291 292 297 298 296 294 294 288 282 285 289 290 289 291 291 289 286 283 281 283 289 286 284 285 283 283 283 283
294 287 295 300 299 293 291 291 291 296 295 296 294 296 293 290 292 288 289 294 295 295 295 294 288 285 280 285 288 286 287 286 285 281 282 283 286 289 290 286 284 283 284 284 282
290 287 291 288 289 292 291 289 287 287 292 292 289 290 287 284 285 285 289 290 292 292 291 291 284 286 286 287 287 286 285 285 283 284 279 282 282 286 288 285 281 281 282 283 280
287 287 289 288 289 288 289 287 287 288 288 286 286 287 287 284 285 283 286 286 285 288 288 289 281 283 280 284 284 281 284 283 283 283 282 282 281 287 281 281 280 279 281 281 280
289 290 288 284 284 284 285 286 284 287 285 285 284 283 283 285 286 286 287 286 286 284 283 283 282 279 275 281 280 275 279 280 281 283 283 278 281 279 278 279 280 280 280 281 280

GFSSW_sfc_thetae_015.txt.gz
Theta_e
322 322 322 323 323 323 323 322 322 322 322 322 323 323 323 323 323 321 310 316 319 329 324 316 315 314 315 313 313 312 302 300 301 300 302 307 304 308 310 307 309 310 309 313 313
321 321 322 322 322 323 322 322 322 322 322 322 322 322 322 322 317 312 322 325 333 327 315 313 311 312 311 310 311 307 303 302 306 305 303 305 305 306 306 306 307 309 313 314 314
321 321 322 322 322 323 323 323 322 322 322 322 322 322 322 322 311 308 325 330 333 325 316 315 313 311 307 310 309 307 302 305 306 307 307 305 304 307 304 303 307 306 309 312 312
321 322 322 322 322 323 323 323 323 323 322 322 322 321 322 318 300 311 329 334 331 318 314 312 310 307 305 304 308 303 306 306 307 307 305 304 306 304 305 306 310 310 311 311 310
322 322 322 322 322 322 323 323 324 323 322 322 322 321 318 306 306 323 330 331 317 314 311 310 308 307 303 304 305 303 304 306 307 307 306 306 304 304 304 308 310 310 310 310 310
322 322 321 321 322 322 322 323 323 322 321 321 322 320 311 301 313 324 325 322 315 313 311 311 308 309 305 304 303 305 304 304 305 304 304 302 303 304 305 309 308 308 308 309 310
322 321 321 321 322 322 322 322 321 320 321 321 322 318 307 307 315 322 321 316 315 314 310 312 311 307 307 303 306 303 299 302 303 304 302 303 299 300 306 308 306 306 307 308 309
321 320 320 320 321 321 322 322 318 320 320 320 321 315 305 308 316 315 314 311 314 313 311 311 311 308 305 306 302 299 300 295 302 301 302 301 295 303 306 305 304 305 306 307 308
321 320 320 320 320 320 321 317 319 320 320 320 316 311 304 310 306 309 311 307 310 309 309 308 309 305 304 299 297 299 293 296 298 303 300 299 296 302 305 304 302 304 305 306 307
321 321 321 321 320 320 319 314 320 317 318 317 311 303 303 303 306 307 309 309 306 307 304 304 303 300 300 297 291 295 296 297 296 301 300 298 298 301 304 303 303 305 306 306 307
322 322 322 321 321 321 317 315 314 310 309 306 308 304 308 306 308 305 307 305 306 304 298 302 297 295 299 301 299 298 296 295 298 301 299 297 297 299 303 304 304 305 306 306 305
322 323 323 322 321 319 316 312 306 305 304 314 311 308 305 306 302 303 306 302 301 297 300 297 294 300 302 298 297 296 294 294 298 301 296 296 296 299 302 302 305 303 304 303 303
322 322 322 321 321 319 313 308 311 309 302 308 306 304 304 305 303 304 304 303 299 298 297 296 300 301 298 297 295 295 294 294 294 297 298 297 295 300 303 305 305 303 303 302 299
322 321 321 321 316 320 314 310 311 309 299 302 301 301 301 302 299 301 304 302 300 298 300 298 300 296 296 294 296 292 298 296 294 292 290 296 287 295 300 301 300 300 300 299 298
320 321 321 317 322 317 311 311 311 307 288 301 297 305 302 298 298 297 302 301 297 297 297 295 295 293 294 295 297 294 295 294 294 292 292 293 291 294 299 297 299 298 298 298 298
317 319 318 319 322 315 313 310 309 297 287 299 297 297 296 297 296 298 299 301 299 296 297 296 296 296 297 297 296 295 294 294 294 293 287 293 291 292 294 295 295 296 296 296 296
313 318 315 318 315 315 313 313 298 290 301 297 295 295 295 294 295 296 296 295 295 292 293 297 297 297 295 293 295 293 291 287 286 287 286 294 289 292 298 299 297 295 294 295 296
310 317 316 317 311 309 312 304 288 294 296 301 299 299 297 299 297 296 296 295 299 295 293 291 289 296 296 295 294 294 294 288 281 283 287 292 286 292 296 296 296 295 294 294 293
311 317 315 320 315 312 308 291 291 296 299 298 298 295 295 298 296 297 297 295 298 299 291 291 290 299 295 296 295 292 289 293 286 287 284 288 292 297 297 294 293 292 291 290 291
310 309 309 316 313 313 300 292 295 300 300 300 293 296 292 295 294 295 294 297 296 296 296 294 287 295 295 295 297 293 297 287 287 278 278 284 286 288 294 294 291 289 289 289 290
306 297 306 312 315 305 290 292 295 300 301 297 295 294 294 293 294 293 293 297 298 297 296 294 291 290 294 292 290 291 288 289 288 286 280 278 284 293 292 292 289 287 288 288 288
303 293 310 314 298 298 293 295 296 297 300 298 298 296 294 294 292 292 292 294 300 298 293 296 291 285 288 294 296 294 290 290 283 282 285 283 283 296 291 289 288 286 286 287 287
297 298 309 309 290 293 296 295 297 295 296 296 295 297 296 292 289 292 293 297 298 295 293 294 288 281 283 288 293 290 292 292 291 287 283 280 283 292 288 287 287 287 287 286 284
297 289 298 300 301 294 292 292 292 298 296 296 294 295 293 291 293 289 290 294 297 296 295 295 288 284 280 283 288 285 287 289 287 281 282 283 284 289 290 289 289 288 286 286 285
295 290 294 288 292 294 293 291 289 289 294 294 291 291 290 286 287 287 290 290 293 293 292 291 283 285 285 286 286 285 284 285 283 285 280 283 283 287 289 290 287 286 284 284 283
289 289 292 292 293 292 291 289 288 289 289 288 288 290 290 287 287 284 286 286 286 288 288 289 281 283 279 283 283 281 283 284 284 285 284 284 282 289 285 284 283 282 282 282 284
293 293 291 288 289 288 289 289 288 291 289 289 289 287 285 287 289 289 289 289 288 285 283 283 281 278 274 280 279 275 279 281 283 285 283 279 282 281 282 281 282 282 281 281 282

GFSSW_sfc_thetae_018.txt.gz
Theta_e
322 322 323 323 323 323 323 323 323 323 323 323 323 323 323 323 323 321 312 319 320 330 327 315 313 313 315 312 311 309 297 294 297 296 297 302 298 301 303 300 302 304 302 305 310
321 322 322 323 323 323 323 323 323 323 323 323 323 323 323 323 317 312 323 332 331 330 315 311 309 311 307 309 308 302 297 298 301 300 299 301 300 300 299 299 300 301 305 307 307
322 322 322 323 323 323 324 324 324 324 323 323 323 323 323 321 312 310 328 331 330 327 317 314 312 310 305 307 305 303 297 302 302 304 303 301 300 301 298 297 301 300 303 305 304
322 322 322 322 322 323 323 324 324 324 323 323 323 323 322 318 299 315 328 332 331 318 314 311 308 305 302 301 306 299 303 303 304 304 302 300 302 300 300 301 305 304 305 304 303
323 322 322 322 322 323 323 324 324 324 323 322 322 323 318 307 307 322 330 331 319 315 310 308 305 304 300 301 302 300 302 304 304 302 301 303 300 299 300 303 305 305 305 303 303
323 322 321 321 322 322 323 323 323 323 321 321 322 321 313 300 314 323 322 321 314 311 309 309 306 306 302 301 299 301 301 301 301 301 301 299 299 298 300 303 302 303 302 302 302
322 321 321 321 322 323 323 323 321 319 321 321 322 318 309 305 317 322 320 316 314 312 308 310 309 305 304 300 302 301 295 298 300 300 299 300 295 296 301 300 300 300 300 301 302
322 321 320 321 321 322 322 322 318 321 321 320 322 315 304 310 315 316 315 312 314 313 310 309 310 306 303 303 300 296 295 290 298 298 298 296 290 298 301 299 300 301 299 301 302
321 321 321 321 321 321 322 320 318 320 320 321 317 313 303 311 307 309 310 308 310 309 308 308 308 302 301 295 292 293 288 291 295 299 297 294 291 298 301 299 299 300 299 300 300
321 321 321 321 321 321 321 318 320 317 318 317 313 304 303 303 307 308 308 309 306 305 304 303 300 296 294 292 285 290 290 292 291 296 296 293 292 297 299 299 299 299 300 299 298
322 322 322 322 322 322 319 315 312 309 309 306 308 303 307 306 308 306 308 305 305 302 295 299 293 290 294 295 296 294 292 291 294 298 294 293 293 295 299 299 299 298 297 297 297
323 323 323 323 322 322 317 312 307 306 303 313 313 313 308 307 302 303 306 300 299 294 297 294 290 297 299 298 295 293 290 290 294 297 293 292 292 296 299 299 300 297 296 296 296
323 322 322 322 322 319 315 309 312 310 300 307 308 307 305 305 304 302 303 301 297 295 295 292 297 300 297 294 293 292 290 290 290 294 292 291 289 293 299 298 298 297 296 296 295
323 323 322 321 316 320 313 311 312 310 296 300 300 300 302 303 299 302 304 301 299 295 296 295 298 296 294 293 293 289 295 293 291 288 284 292 282 290 295 293 295 294 293 293 293
323 323 322 319 319 316 311 312 312 306 285 301 297 306 303 298 298 298 301 299 295 296 293 293 292 291 291 293 295 292 293 290 289 287 286 287 284 288 294 290 292 292 293 292 292
319 320 320 318 320 315 313 311 309 295 285 295 298 297 296 297 296 298 298 298 297 294 294 294 293 293 294 294 294 293 290 290 289 287 280 287 287 286 288 290 290 292 292 292 292
316 318 316 317 313 315 313 310 297 288 301 295 294 296 295 294 294 295 294 291 291 287 288 292 292 293 294 290 292 290 287 281 279 278 279 289 285 287 291 293 293 291 290 291 291
312 317 315 315 310 310 309 301 288 295 296 300 299 299 297 298 296 294 294 292 296 292 288 288 285 292 293 291 290 290 290 283 276 275 279 285 281 288 292 293 292 291 290 289 289
313 316 316 317 313 312 307 291 291 296 299 298 298 293 294 296 296 295 294 293 295 295 289 287 287 293 293 293 293 288 286 292 283 281 278 283 288 294 292 290 289 288 288 287 287
309 308 308 317 313 310 299 293 295 300 300 299 292 295 290 293 293 292 292 294 294 294 296 292 285 293 291 292 292 291 292 284 284 277 274 280 281 283 288 288 287 286 286 286 286
304 298 306 311 312 302 290 293 296 300 301 296 294 293 294 292 293 292 292 294 296 293 295 293 289 287 291 288 287 287 285 287 287 283 276 275 278 288 288 288 285 285 286 285 285
301 292 309 312 295 296 292 295 297 297 300 298 297 295 293 293 292 292 291 293 298 296 291 293 290 281 285 292 293 289 288 289 282 280 282 282 281 288 286 285 286 285 286 287 286
296 297 309 309 289 291 295 295 297 295 295 295 293 295 295 291 288 291 292 295 296 294 291 292 285 276 277 283 289 287 288 288 287 285 280 278 278 289 287 286 287 287 288 287 285
296 289 297 301 299 293 291 292 291 297 295 296 294 295 293 290 292 288 289 294 295 294 295 294 286 279 274 278 284 279 282 285 285 279 278 279 281 287 288 288 288 287 287 284 284
294 289 294 288 291 293 293 292 290 290 295 295 292 292 290 286 287 287 290 290 293 293 291 289 277 282 284 285 284 281 281 282 280 282 278 280 279 283 286 282 281 282 282 282 283
290 288 290 290 292 291 292 289 289 289 291 289 288 289 290 287 287 281 285 285 284 287 286 287 274 279 273 280 280 278 279 280 280 280 280 280 279 285 280 281 281 281 281 279 279
292 293 290 289 288 288 288 289 288 290 289 290 289 288 286 286 287 286 287 287 286 283 281 279 274 268 266 276 275 267 275 277 278 280 280 276 278 277 278 280 278 278 280 279 279

GFSSW_sfc_thetae_021.txt.gz
Theta_e
322 322 323 323 323 324 324 324 324 324 323 323 324 324 323 324 322 320 311 317 318 331 325 311 309 307 308 306 305 301 291 289 291 292 293 298 296 299 299 297 298 301 299 301 305
322 322 323 323 323 323 324 324 324 324 324 324 323 323 323 323 316 309 323 333 332 332 311 307 304 305 301 303 303 297 291 293 296 294 294 297 296 295 296 296 296 298 300 300 306
322 322 322 323 323 323 324 325 324 324 324 324 323 324 323 320 307 307 327 332 331 328 314 310 307 305 299 300 300 298 293 297 300 300 299 298 298 298 295 294 298 297 299 301 301
323 322 322 322 322 323 324 324 324 325 324 323 323 324 322 315 292 312 326 329 330 316 311 307 304 299 297 296 302 294 300 299 301 301 299 297 299 298 297 300 301 301 301 300 301
322 322 322 322 322 323 324 325 325 324 323 323 323 323 314 303 303 321 329 330 317 312 306 304 301 299 295 296 297 295 298 301 301 300 298 299 297 297 298 302 302 302 302 299 299
322 321 321 321 322 323 323 324 324 323 321 321 321 321 308 296 314 321 320 316 311 308 305 304 302 302 297 296 295 297 297 297 298 299 298 297 296 296 298 298 299 299 297 298 298
322 321 320 321 322 323 323 323 323 320 322 321 321 317 306 302 316 320 319 312 310 308 305 306 305 302 300 296 300 297 293 295 296 296 296 297 293 294 299 298 297 297 296 299 298
321 320 320 320 321 322 323 323 320 321 322 320 322 311 298 307 310 314 311 308 310 309 306 305 306 303 299 300 297 293 290 288 295 296 296 294 288 296 298 296 297 297 295 295 296
320 320 320 321 321 322 322 322 318 320 321 322 312 306 299 310 304 306 306 305 306 305 303 307 304 298 297 292 288 288 285 287 291 297 295 292 288 296 299 296 297 294 294 295 295
320 320 321 321 321 321 322 322 318 317 317 318 313 298 300 300 303 305 303 306 303 301 300 299 296 291 290 288 282 286 285 289 288 294 293 290 290 293 297 296 295 292 292 293 293
321 321 322 322 322 323 318 310 307 305 305 303 302 299 301 303 305 303 304 302 302 298 292 294 289 286 289 291 290 288 288 287 290 295 291 291 290 293 296 295 295 292 292 293 293
322 323 323 323 323 322 315 306 303 304 301 308 309 309 305 304 300 300 303 297 296 291 293 290 287 293 294 294 292 290 288 287 291 294 291 291 290 294 295 295 294 293 292 292 292
322 322 322 322 322 317 309 305 308 304 297 303 305 304 302 304 300 299 300 297 293 291 291 289 293 296 295 293 291 289 287 287 288 291 290 288 287 291 295 293 294 293 293 293 291
322 322 321 321 314 314 307 308 308 303 291 297 299 298 300 300 296 299 301 298 295 292 291 290 295 294 292 291 292 287 292 291 290 285 282 288 280 288 291 289 291 290 290 290 290
321 321 321 320 313 312 309 308 307 302 282 296 295 303 299 296 296 295 298 296 292 293 291 291 291 289 289 291 292 289 291 289 288 285 283 284 281 286 289 287 288 288 289 289 289
320 320 320 319 316 313 310 308 305 293 284 292 294 294 293 293 294 295 295 295 294 291 291 291 291 291 292 292 292 292 289 288 286 284 278 284 284 284 285 288 288 288 289 289 289
318 318 317 317 313 311 310 307 295 287 299 291 291 293 292 291 291 292 290 287 288 285 284 289 290 291 292 288 290 288 285 280 277 276 277 285 282 286 288 290 290 288 287 287 288
317 317 316 315 311 311 309 301 287 295 294 296 294 293 292 291 291 291 290 288 291 289 286 285 284 290 291 290 288 287 288 281 274 274 276 284 280 286 288 289 288 288 287 287 287
316 316 314 313 311 313 306 291 291 293 298 296 296 292 291 294 294 291 290 290 294 292 288 285 285 290 291 291 292 288 285 289 282 276 276 281 285 287 288 286 286 286 286 285 286
308 307 308 315 313 310 299 293 295 300 298 298 292 294 288 292 291 289 290 291 291 292 293 289 284 290 289 291 291 290 292 283 282 271 272 279 280 282 284 283 284 284 283 284 285
304 300 306 311 312 304 292 293 296 299 299 295 292 292 291 290 292 289 291 291 292 290 293 291 288 286 289 287 287 286 284 286 286 282 275 272 277 286 286 285 283 283 284 284 283
301 294 308 311 295 296 292 294 297 296 299 297 295 293 291 291 290 290 290 293 295 294 290 291 288 279 284 289 290 289 287 287 279 277 278 280 280 287 286 285 285 284 285 284 284
297 297 308 307 289 290 295 295 297 294 294 294 293 295 295 291 288 290 292 294 295 294 292 292 284 274 277 283 288 285 286 286 287 284 280 277 277 286 284 284 285 283 284 284 283
296 290 297 300 298 292 292 292 291 296 293 295 293 294 291 289 291 288 288 293 293 293 296 294 286 278 275 276 283 279 281 282 283 274 274 277 279 283 285 284 285 286 286 286 283
295 290 293 287 292 293 292 291 289 289 294 294 291 291 290 287 287 287 289 289 291 294 291 289 277 281 282 283 282 281 280 281 279 280 276 278 278 282 284 280 279 279 284 284 283
289 288 290 289 292 292 291 288 289 289 291 289 288 291 291 288 286 281 285 285 285 287 286 287 275 279 273 281 280 278 279 279 279 279 278 278 277 284 278 279 280 279 280 279 279
291 291 289 287 286 288 288 289 289 291 288 289 291 289 286 285 286 286 286 285 285 283 281 280 275 268 267 277 274 267 275 277 278 279 277 274 277 275 277 279 277 277 278 278 278

GFSSW_sfc_thetae_024.txt.gz
Theta_e
322 322 323 323 323 323 324 324 324 324 324 324 324 324 324 324 322 318 306 314 316 331 323 309 306 306 306 304 303 298 290 287 290 290 291 296 295 297 296 295 296 299 301 298 303
321 322 322 323 323 323 324 324 324 324 324 324 324 324 323 323 314 308 321 332 333 332 309 305 302 303 300 301 301 294 288 290 294 294 293 296 295 295 295 295 293 294 298 298 302
321 322 322 322 323 323 324 324 324 325 324 324 324 324 323 320 303 305 325 330 332 325 310 307 305 303 297 299 298 296 291 295 297 298 297 297 296 296 293 294 296 296 297 299 298
322 322 322 322 322 323 324 325 325 325 324 324 323 324 323 313 292 309 326 330 330 314 308 305 302 298 295 294 299 293 298 298 300 300 297 295 298 297 296 298 300 299 298 298 298
322 322 322 322 322 323 324 325 325 325 323 322 322 323 312 301 302 318 327 327 313 310 305 303 299 298 294 295 295 294 296 298 300 299 297 297 296 295 297 300 299 299 298 295 296
322 321 321 321 322 323 324 324 325 324 321 321 322 321 305 295 314 320 317 312 309 306 303 303 300 300 297 295 294 295 296 296 297 297 296 295 293 295 298 296 298 297 294 295 295
322 321 320 320 321 323 324 324 324 321 322 322 321 317 305 300 316 318 315 310 308 306 303 304 303 299 298 294 298 296 293 294 294 295 295 295 292 293 298 296 295 294 292 294 294
322 321 320 320 321 322 323 324 323 320 322 320 321 310 296 306 309 314 310 306 308 307 305 304 303 301 297 298 296 291 289 286 293 294 294 293 289 295 297 294 294 291 290 292 293
321 320 320 320 321 322 322 323 322 319 321 322 310 303 297 309 303 304 305 304 304 303 302 306 302 296 296 290 287 287 283 285 290 295 293 290 288 295 298 294 291 290 291 292 291
320 320 320 321 321 322 322 320 318 317 317 317 313 298 299 298 302 303 302 305 301 300 299 298 294 290 289 287 281 284 284 286 287 292 291 290 290 293 296 295 291 290 290 290 290
320 320 321 321 322 323 319 309 306 304 306 302 299 298 300 302 304 301 303 301 301 296 290 293 288 285 288 290 288 287 286 286 288 293 289 290 289 292 295 293 290 290 290 290 290
320 321 322 323 323 322 314 305 303 303 300 307 306 304 302 302 298 299 302 296 295 290 292 289 286 292 292 291 290 288 286 286 289 292 290 290 289 293 292 291 291 290 290 289 289
321 321 322 322 322 317 309 305 306 303 297 301 304 305 301 302 299 299 300 296 292 290 290 288 292 294 293 290 289 288 286 286 288 289 288 287 286 290 290 291 291 291 290 290 288
321 321 322 321 315 314 307 307 307 303 291 295 298 298 298 301 296 298 299 296 292 290 290 289 293 292 290 290 291 287 291 290 288 285 282 287 279 286 288 288 288 288 287 287 287
321 321 320 321 312 311 309 307 306 302 282 296 295 302 298 297 295 294 297 295 291 292 291 290 289 289 289 290 292 289 290 288 286 283 281 282 279 283 287 285 286 286 287 286 286
319 320 320 320 317 313 308 307 305 293 284 291 293 293 291 292 292 294 293 294 293 290 289 290 290 290 290 290 290 291 288 287 284 283 277 283 282 282 284 286 285 286 286 287 286
319 319 318 321 314 310 309 308 294 287 296 290 289 292 291 289 290 291 289 287 286 284 284 288 288 290 290 287 288 287 285 279 277 275 277 284 280 284 285 287 287 285 285 286 285
319 319 317 317 312 312 312 302 287 293 292 293 291 290 288 290 289 289 287 285 288 288 284 284 283 289 290 289 288 286 286 279 273 274 277 282 279 283 285 286 287 287 286 286 286
318 317 314 311 312 314 307 292 291 295 297 294 294 290 290 291 290 287 287 287 291 290 287 284 285 289 289 290 291 286 284 287 281 271 274 280 281 284 285 284 284 284 285 284 285
312 310 311 312 314 311 301 295 295 300 298 297 291 292 287 291 290 288 289 291 291 291 292 289 283 289 289 290 289 288 291 282 281 270 271 277 279 280 282 282 283 283 283 283 284
307 303 307 313 314 304 294 294 297 300 299 295 293 292 291 290 291 288 289 291 291 290 292 290 288 284 287 286 286 285 284 284 285 280 273 270 276 284 284 284 283 284 284 283 283
303 296 307 311 298 298 293 296 297 296 299 296 296 292 291 292 289 288 289 291 293 292 289 291 288 279 284 287 289 286 285 285 278 276 278 278 279 287 287 285 285 284 285 283 283
298 297 307 307 292 292 295 295 297 294 294 295 294 295 294 292 289 289 290 292 294 293 291 291 284 272 277 283 287 284 286 286 284 280 274 275 277 285 284 284 285 284 283 284 283
296 290 297 300 298 295 293 293 293 298 296 296 294 295 292 290 291 288 288 291 292 294 296 294 284 280 279 278 283 279 282 282 282 273 275 278 279 283 283 284 284 285 284 283 283
295 291 295 288 292 293 294 293 291 289 296 296 291 292 290 286 287 287 288 288 290 293 290 290 284 281 282 284 284 282 281 280 280 279 276 278 277 281 281 281 282 282 281 284 284
290 289 291 290 294 293 293 289 290 292 292 289 289 291 290 288 288 285 288 288 286 288 287 286 277 280 274 280 281 278 280 280 280 280 279 280 279 285 282 279 278 278 280 283 281
292 292 291 289 288 289 289 289 290 292 290 291 291 289 288 290 289 286 287 287 287 286 284 282 277 272 270 275 274 267 273 278 279 279 278 274 277 276 278 279 278 278 278 277 277

GFSSW_sfc_thetae_027.txt.gz
Theta_e
321 322 322 323 323 323 324 324 324 324 324 324 324 324 324 324 321 314 301 312 316 330 322 307 305 304 304 302 301 296 288 286 288 288 291 295 295 295 295 293 294 296 301 297 302
321 321 322 323 323 323 324 324 324 324 325 325 325 324 323 323 311 306 319 331 332 330 306 302 300 302 299 300 299 293 286 288 292 293 292 295 293 295 295 295 292 293 298 297 300
321 321 322 322 322 323 324 324 324 325 325 324 324 324 323 320 302 301 326 329 332 324 307 306 303 301 295 300 298 293 289 293 296 296 296 295 294 295 292 292 295 294 297 297 297
322 322 322 322 322 322 323 325 325 325 325 323 323 323 322 311 293 306 326 328 330 312 306 304 300 296 293 292 297 294 296 295 298 298 296 294 296 295 294 297 298 296 295 294 294
322 322 322 321 322 322 324 325 325 325 323 321 322 322 311 299 301 317 327 325 311 308 303 302 298 297 293 294 294 293 295 297 299 297 296 296 295 293 295 298 296 296 296 294 293
321 321 321 321 321 322 323 324 325 325 321 322 322 321 302 294 312 318 314 308 307 304 302 302 300 300 295 293 293 294 295 295 296 296 294 294 292 293 296 296 294 295 292 292 292
322 321 320 320 321 322 323 324 324 324 321 322 321 315 302 299 314 316 311 307 307 305 301 302 302 298 296 293 296 294 292 293 293 293 293 294 290 292 297 294 292 291 290 291 292
322 321 320 320 321 322 323 323 323 323 321 320 321 309 297 305 310 312 308 305 307 305 304 302 302 300 296 296 294 290 288 285 291 293 293 292 288 294 295 292 290 289 288 289 291
321 320 320 320 320 321 322 323 321 320 321 322 309 302 297 309 303 304 304 303 303 301 302 305 301 295 294 289 286 286 282 284 289 293 292 290 288 294 295 292 289 288 289 289 289
320 320 320 320 320 321 323 322 318 317 316 316 312 297 299 297 301 302 301 303 300 299 298 297 293 289 288 286 282 283 283 285 285 290 290 288 289 292 294 293 288 287 287 288 288
320 320 320 320 321 323 319 310 305 304 305 301 298 298 298 300 302 299 302 301 299 295 289 292 287 285 288 289 287 285 285 285 286 291 288 289 288 292 293 290 287 287 287 287 288
320 320 321 321 323 323 314 306 304 304 300 306 304 301 301 301 297 298 301 295 293 289 291 288 285 291 290 290 289 286 284 284 288 291 289 289 289 290 289 289 288 288 287 287 286
320 319 320 322 322 318 311 307 306 303 297 301 304 304 301 301 299 298 299 295 292 289 289 287 291 293 291 288 287 286 285 285 287 288 287 286 285 287 288 289 289 288 288 287 285
320 319 320 321 317 314 307 307 306 304 291 295 297 298 298 301 296 298 298 295 291 290 289 288 292 292 288 288 289 285 290 289 288 285 281 285 279 284 286 285 286 286 284 284 285
319 319 320 321 313 309 310 307 305 302 281 295 295 300 297 298 294 293 296 294 290 290 289 289 289 287 288 289 291 289 289 288 285 283 281 282 279 282 285 283 284 284 284 284 284
319 319 320 319 318 314 307 307 304 292 282 290 293 292 291 291 292 292 292 294 293 290 289 290 290 290 290 289 290 290 287 286 284 282 277 282 282 280 283 285 284 285 284 285 284
318 318 319 321 315 311 308 307 293 287 295 289 288 290 289 288 289 290 288 287 286 284 284 287 288 288 289 287 287 286 285 279 277 275 277 282 279 283 284 285 286 285 284 284 284
318 318 319 321 314 309 310 301 287 293 292 292 290 289 287 289 288 288 286 285 287 286 283 283 283 288 290 289 286 285 286 280 274 273 276 281 279 283 283 285 287 286 285 284 283
318 318 319 320 313 312 306 293 291 295 296 291 291 286 286 288 288 286 285 285 288 288 286 283 284 288 288 289 290 285 283 286 280 269 273 280 281 283 284 282 283 284 284 283 284
316 314 314 315 313 311 302 296 296 300 299 295 288 291 285 289 288 285 285 289 290 289 290 288 283 287 287 288 288 287 290 282 280 272 271 277 278 280 280 281 282 282 283 283 284
314 305 309 313 313 305 296 297 298 301 299 296 291 291 290 290 290 286 288 290 291 289 291 289 287 284 287 285 285 285 284 284 284 280 273 269 277 283 284 284 283 283 284 283 283
305 299 308 312 299 300 298 298 299 298 299 297 295 294 292 291 290 288 288 291 292 292 288 291 287 278 283 286 287 285 285 285 281 277 277 277 279 286 285 286 285 284 285 284 283
299 298 307 307 295 292 296 296 298 295 296 296 295 296 295 291 289 288 289 292 292 292 290 291 284 274 280 283 284 283 284 284 282 278 272 275 277 286 284 284 285 284 284 284 283
297 292 297 300 298 298 294 293 293 298 296 297 295 295 293 291 293 288 288 291 291 292 296 295 286 284 281 281 283 279 282 282 281 278 278 280 281 281 284 284 284 283 284 284 283
296 293 295 290 293 295 296 295 293 291 296 296 292 294 293 289 289 289 288 288 289 293 290 290 284 282 283 282 283 281 280 280 279 281 279 281 280 282 284 283 283 285 284 283 283
291 290 292 291 295 294 294 292 292 294 293 292 292 292 293 291 290 285 288 287 286 285 286 285 279 282 279 281 282 281 282 283 283 282 280 280 280 284 282 281 279 280 280 282 283
292 292 292 289 290 292 291 292 292 295 292 292 293 291 291 292 291 287 290 289 288 285 283 282 279 276 278 276 276 273 275 279 281 281 281 277 281 276 279 279 279 279 279 279 280

GFSSW_sfc_thetae_030.txt.gz
Theta_e
321 321 322 322 323 323 323 324 324 324 325 325 325 325 324 323 321 312 299 311 314 329 321 305 304 303 303 301 299 293 287 284 288 288 290 293 293 294 294 293 294 295 299 296 300
320 321 321 322 322 323 323 324 324 325 325 325 324 324 324 323 309 303 318 328 331 329 304 301 299 300 298 299 298 291 285 287 290 294 294 293 293 293 294 293 295 293 296 297 295
321 321 321 322 322 323 323 324 325 325 326 323 323 323 323 319 301 299 326 328 332 322 305 304 302 300 295 298 297 292 287 290 294 294 294 293 292 293 295 291 292 294 294 293 294
322 321 321 322 322 322 323 325 325 326 325 322 322 322 322 308 294 304 325 329 330 309 305 302 300 296 292 294 296 292 294 294 297 296 295 293 295 293 293 293 295 293 293 293 292
322 321 321 321 321 322 323 324 325 325 325 322 323 322 309 297 300 315 325 322 310 306 302 300 297 295 290 293 293 293 293 295 296 296 295 295 294 292 294 294 294 294 293 291 291
321 321 321 321 321 322 323 324 325 325 324 322 322 321 299 294 311 315 310 306 306 303 300 300 298 298 294 292 291 292 293 294 295 294 293 293 291 291 291 292 292 292 290 290 290
321 321 321 321 321 322 323 324 324 324 323 322 321 314 299 300 314 314 309 305 305 303 300 301 301 297 296 292 295 293 290 291 291 291 292 293 289 291 291 292 290 289 288 289 290
321 320 320 320 321 321 322 323 324 323 321 320 320 306 298 303 310 311 306 304 305 303 303 301 301 299 295 294 292 289 287 285 289 291 291 292 288 292 292 291 289 288 287 288 289
320 320 320 320 320 320 322 323 319 320 321 321 307 300 297 308 304 304 303 303 301 300 301 303 299 294 293 288 285 285 283 283 288 291 290 289 288 292 292 291 287 286 287 288 287
320 320 320 320 320 320 322 322 318 315 315 315 309 298 299 297 300 301 301 302 299 298 297 296 292 289 287 286 282 283 282 283 284 288 289 287 289 292 292 290 286 285 285 286 286
320 320 320 320 320 322 319 310 304 303 303 301 299 298 298 299 301 298 301 300 297 294 289 290 287 285 288 288 287 285 284 284 285 290 287 288 288 291 289 287 285 285 285 285 285
320 320 320 320 321 323 316 306 304 304 300 305 303 300 300 299 295 296 300 295 292 288 289 287 285 290 290 289 287 285 284 283 287 289 288 287 288 288 288 287 287 286 285 284 284
320 319 319 320 322 320 313 308 305 303 298 301 303 303 303 300 297 296 299 294 290 288 288 286 290 291 290 287 286 284 284 283 286 286 287 284 284 285 286 287 287 286 286 285 284
320 319 319 320 317 315 310 313 305 304 292 295 297 299 298 300 296 297 297 295 290 289 288 287 290 291 287 287 287 283 288 288 286 284 282 284 279 283 284 284 284 284 283 283 283
319 319 319 321 313 310 312 306 304 303 281 294 295 300 297 298 294 293 295 294 289 289 289 289 288 287 287 288 289 287 289 287 285 283 280 281 278 282 284 283 283 283 283 283 283
318 318 318 319 318 313 307 306 304 293 282 290 292 291 293 292 290 292 292 293 293 289 288 289 289 290 290 288 290 289 287 285 283 282 276 282 282 280 282 284 283 284 283 283 283
318 318 317 321 313 309 307 306 293 287 294 289 288 289 290 288 289 289 288 287 286 284 284 286 287 288 289 286 286 286 284 279 276 275 277 281 279 282 285 285 285 285 283 283 283
318 317 317 321 316 309 308 300 287 293 291 290 289 288 287 288 287 288 286 285 288 286 283 283 282 288 290 288 286 284 285 280 274 273 276 280 278 284 283 284 285 286 284 284 283
317 317 316 319 315 311 303 292 292 294 296 289 289 284 284 287 287 286 284 284 287 287 286 282 284 287 287 288 288 284 282 285 279 269 274 280 281 283 283 282 282 282 283 282 282
315 313 313 320 315 311 299 295 296 299 297 293 290 289 283 286 285 284 284 287 288 289 290 288 283 286 286 289 288 287 289 282 280 271 271 277 278 281 282 282 281 282 282 282 283
314 306 314 321 314 305 294 295 299 301 299 294 293 289 287 288 287 284 285 288 290 288 291 289 287 283 286 284 284 285 283 283 283 280 274 270 278 283 284 283 282 283 284 284 283
308 299 310 318 301 301 297 300 301 299 300 297 296 294 291 291 288 285 286 290 293 292 288 290 286 279 283 285 285 284 284 284 281 277 276 276 281 283 284 284 285 284 285 284 284
301 299 307 311 296 297 300 300 301 297 298 296 294 296 295 291 289 289 289 291 292 293 290 291 284 274 279 283 283 282 283 284 282 279 274 279 279 285 282 283 284 283 283 284 284
299 293 298 300 299 297 297 296 295 298 297 298 296 296 292 291 294 291 289 291 291 292 296 295 285 282 281 281 283 280 282 283 284 281 281 281 283 281 283 284 283 283 284 284 283
298 293 297 291 294 294 297 296 294 292 296 298 294 295 295 289 291 289 289 289 290 294 291 292 283 283 283 282 283 283 282 281 281 283 282 283 281 282 285 285 285 284 284 283 283
292 291 292 292 295 294 294 293 294 293 293 291 292 294 295 292 291 288 290 289 288 288 288 287 283 282 278 281 282 280 282 281 283 281 280 279 279 284 283 284 282 283 283 281 281
292 293 292 291 291 292 292 291 292 295 293 294 294 293 292 295 294 290 292 292 292 288 286 284 280 278 279 277 277 277 279 281 281 282 283 278 284 278 279 280 280 280 279 280 281

GFSSW_sfc_thetae_033.txt.gz
Theta_e
320 321 322 322 322 323 324 324 324 325 326 325 325 324 324 324 321 311 299 310 313 328 321 305 305 304 305 303 301 297 289 287 290 290 293 297 297 299 299 298 299 299 298 296 298
320 320 321 322 322 323 323 324 325 325 326 324 323 323 323 323 309 302 318 326 331 328 304 302 300 302 300 301 300 293 288 289 293 293 294 296 296 297 298 297 297 299 297 297 297
321 321 321 321 322 322 323 324 325 326 326 323 323 323 323 318 301 299 325 327 331 321 306 305 303 301 297 299 298 294 290 292 295 297 297 296 296 298 296 295 298 298 295 295 295
322 321 321 321 321 322 323 325 325 326 325 323 323 323 322 307 293 304 326 329 329 309 306 303 301 296 294 293 298 293 295 295 299 298 297 296 297 296 296 297 295 294 294 293 293
321 321 321 321 321 322 323 324 325 325 325 323 324 323 308 297 300 314 324 324 311 305 302 301 298 297 292 294 295 295 295 296 297 297 296 296 295 295 294 293 294 294 293 291 291
321 320 320 321 321 321 322 324 325 325 324 322 323 321 299 295 311 312 309 306 305 303 301 301 299 299 295 294 294 294 295 295 295 295 295 294 293 294 293 293 292 291 290 290 290
321 321 320 321 321 322 322 323 324 324 323 322 321 313 298 301 313 312 307 304 305 303 301 301 301 299 297 293 296 294 292 293 293 293 293 294 291 292 293 293 290 289 289 290 290
321 320 320 320 321 321 322 323 324 321 321 320 320 305 299 303 311 311 306 304 304 303 303 302 302 299 296 295 292 290 289 288 292 293 293 293 290 292 292 293 290 289 288 288 289
320 319 320 320 320 320 321 323 320 320 321 320 306 299 298 308 304 305 303 303 301 301 301 302 299 295 295 290 287 287 285 285 289 293 292 292 291 292 292 292 288 288 288 288 288
320 319 320 320 320 320 321 323 318 315 315 313 307 299 299 297 299 301 301 302 299 299 298 297 292 290 288 287 284 285 284 285 286 290 290 289 290 291 292 290 288 287 286 286 286
320 320 320 320 320 321 320 310 305 302 303 301 299 298 298 298 300 298 301 299 297 294 290 291 288 287 288 289 288 287 285 286 286 290 290 289 289 292 289 287 286 286 286 286 286
320 320 320 320 320 322 318 306 303 303 299 305 303 300 299 299 295 296 300 295 292 288 289 287 286 290 290 289 288 285 285 285 287 289 289 288 288 290 289 288 288 286 285 285 285
320 319 319 320 320 320 315 310 306 303 298 301 303 302 302 299 296 295 299 294 290 287 287 286 289 290 289 287 286 285 284 284 286 287 288 286 286 287 287 287 287 287 286 285 285
320 319 318 319 316 317 313 317 306 304 292 294 297 301 298 299 295 297 298 295 290 288 287 287 290 290 286 286 286 283 287 287 286 285 282 286 281 285 286 285 285 285 284 284 284
319 319 318 320 312 312 312 308 304 302 280 294 295 299 297 298 294 293 296 295 289 290 290 289 287 287 287 288 288 287 288 286 286 284 283 283 281 283 285 284 284 284 284 284 284
319 318 318 317 316 311 306 305 303 292 282 290 292 291 293 292 291 292 293 294 293 289 287 289 289 290 290 288 289 288 287 285 283 282 277 283 283 282 283 286 284 285 284 284 284
318 318 316 318 312 308 307 305 293 286 293 288 288 290 291 288 289 290 288 287 287 284 284 286 287 288 289 286 287 285 285 279 278 277 278 281 280 284 286 287 287 286 284 284 284
318 317 316 319 313 308 309 299 287 291 290 289 288 288 288 288 287 287 286 285 287 285 283 283 282 287 289 288 286 284 285 280 274 274 277 280 279 285 285 285 286 287 286 285 283
317 316 316 317 313 312 304 292 290 292 295 288 287 284 284 286 286 285 285 285 289 288 287 283 284 287 287 288 289 284 283 286 279 269 275 280 282 286 284 284 284 284 284 284 283
314 313 312 319 314 312 299 293 295 298 294 291 289 288 283 284 284 284 283 286 288 290 291 288 283 286 286 288 288 286 288 282 280 273 271 278 280 283 283 283 282 282 283 284 284
314 306 314 319 313 306 293 293 297 301 297 292 291 289 286 284 285 282 284 286 288 288 291 289 288 284 286 285 285 285 283 283 284 281 276 273 278 284 285 285 283 283 284 285 284
309 300 314 318 300 302 296 296 299 301 301 297 296 296 290 289 285 284 284 288 291 290 288 290 287 280 283 285 285 285 285 285 281 277 277 277 281 285 285 285 285 285 285 285 286
302 302 309 314 295 296 300 299 300 298 300 299 296 296 295 290 288 286 286 291 293 291 289 291 285 277 281 284 283 283 284 284 283 280 276 276 279 285 283 283 284 284 285 285 285
299 292 298 300 299 299 296 297 296 302 300 299 297 296 293 293 294 290 287 289 291 292 296 295 286 284 284 284 284 281 282 283 285 276 280 282 284 282 283 284 283 284 284 284 284
299 294 297 292 295 295 295 297 296 295 299 300 295 297 295 291 291 291 290 289 290 294 292 292 285 282 284 284 284 284 283 282 283 285 282 285 283 285 285 285 285 285 284 283 284
294 292 293 293 296 295 294 292 293 297 294 294 295 297 298 294 295 292 291 289 290 288 289 289 286 283 281 282 282 281 283 283 284 284 284 283 282 286 287 285 284 284 284 283 283
293 293 294 292 291 292 293 294 292 296 294 295 296 294 294 296 294 291 294 294 292 289 287 286 283 283 283 279 281 280 281 282 282 282 285 280 287 281 282 283 283 283 284 283 282

GFSSW_sfc_thetae_036.txt.gz
Theta_e
320 321 322 322 322 323 324 324 325 326 327 326 324 324 324 324 322 317 307 315 318 328 322 313 313 312 314 310 308 305 301 298 299 298 301 304 302 305 305 305 305 304 303 302 304
320 320 321 322 322 323 323 324 325 326 326 325 324 324 323 323 314 309 321 326 330 328 311 309 308 309 309 308 308 304 300 298 302 303 302 303 303 304 303 303 302 303 303 303 304
320 320 321 321 321 322 323 324 325 326 326 325 324 325 323 321 309 306 326 328 331 322 312 312 310 308 304 307 305 302 299 299 301 303 304 303 303 304 303 301 303 303 302 301 302
321 321 321 321 321 322 323 324 325 326 326 326 324 324 322 314 302 310 326 328 329 315 312 310 308 304 302 301 305 300 301 301 303 304 303 302 304 303 303 302 300 301 300 300 300
322 321 321 321 321 321 322 324 325 325 325 325 324 323 313 307 307 319 324 327 317 312 310 307 304 304 300 301 303 302 302 302 304 303 303 302 302 302 301 299 300 299 299 299 299
321 321 320 321 321 321 322 323 325 325 325 324 323 321 308 305 316 317 313 312 312 311 308 308 305 306 302 301 301 301 301 301 302 301 301 300 300 301 298 299 298 298 298 297 297
321 321 320 321 321 321 322 323 324 325 323 322 321 316 307 309 318 317 312 310 311 310 308 308 309 306 304 300 302 300 298 301 301 300 300 301 296 298 299 299 297 296 296 295 295
321 320 320 320 321 321 321 322 324 321 321 322 321 310 308 308 321 315 313 310 310 310 309 309 309 306 303 302 300 298 297 296 299 299 298 299 297 298 299 298 297 296 295 295 294
320 319 320 320 320 320 321 322 322 320 321 321 313 308 306 313 311 313 312 308 307 308 308 307 307 303 302 299 297 296 295 294 297 298 298 298 298 299 298 298 297 296 295 294 294
320 319 319 320 320 320 320 322 320 317 316 314 310 306 305 302 306 307 308 308 306 306 305 305 303 300 299 297 293 295 293 293 295 297 297 297 298 297 297 297 297 295 294 294 293
320 319 320 320 320 320 321 319 312 309 310 308 306 305 302 303 305 305 307 305 305 303 299 299 297 294 298 299 298 296 295 295 295 296 296 297 298 298 297 296 295 295 294 293 292
319 320 320 320 320 321 321 315 311 310 305 310 308 304 303 304 299 302 306 302 301 297 297 296 294 300 297 296 295 294 294 294 295 295 295 296 295 299 296 297 297 295 293 293 292
319 319 320 320 320 320 317 316 311 310 306 306 307 307 304 303 301 300 303 300 297 294 295 296 297 297 295 293 292 293 293 294 293 293 294 293 294 296 295 293 293 294 294 293 293
319 319 319 319 315 317 314 320 315 311 299 300 301 306 301 303 299 301 304 300 296 295 294 295 296 293 293 293 294 291 295 293 292 291 290 293 289 294 295 292 291 291 291 292 291
319 319 319 319 317 313 315 320 317 310 286 300 299 303 301 302 299 296 301 300 295 293 295 295 292 292 292 294 294 294 294 293 292 291 290 290 288 294 291 291 290 291 291 292 292
318 318 318 317 317 316 311 310 310 296 286 294 296 295 297 296 295 296 297 300 299 294 294 296 295 295 296 293 295 294 293 291 291 290 285 290 289 292 292 293 293 291 291 291 290
318 318 317 319 311 313 309 307 295 289 298 291 293 294 296 292 292 294 293 293 294 291 292 292 293 294 294 292 292 293 292 287 284 284 284 286 287 293 296 292 294 291 290 291 290
318 317 317 318 318 309 309 301 288 295 296 293 292 293 293 292 292 291 290 292 295 294 291 290 288 292 294 296 293 291 293 289 282 282 285 284 284 291 291 291 291 294 292 291 289
317 317 316 318 313 311 303 292 291 296 300 292 291 290 292 291 292 291 292 293 295 294 292 289 290 292 291 293 296 290 287 293 284 278 284 288 289 293 289 289 289 290 290 289 289
314 313 312 319 315 309 299 293 296 302 298 296 292 294 290 290 290 290 290 294 293 295 298 294 289 290 290 293 293 292 294 286 287 282 281 286 287 291 288 289 288 288 289 290 290
312 306 314 319 314 304 292 294 298 303 300 296 296 294 293 289 292 289 292 293 296 293 296 294 292 288 290 289 290 288 288 289 290 288 285 284 288 294 295 293 290 290 291 291 290
308 300 315 317 300 301 295 297 301 301 301 300 299 299 294 291 290 290 291 296 295 294 290 296 292 286 287 290 290 293 291 290 287 283 284 284 288 290 292 294 293 292 291 292 291
303 303 313 313 295 294 299 298 300 299 300 300 297 298 298 292 290 292 293 295 295 294 293 294 290 286 286 287 288 287 289 290 290 288 286 285 288 289 289 290 291 292 292 291 291
300 294 300 306 303 298 295 296 296 301 300 301 301 299 294 294 294 295 293 293 295 295 297 297 291 289 287 290 291 286 288 289 289 287 287 287 290 288 289 290 290 290 292 292 290
301 295 298 292 298 299 299 297 295 295 299 301 298 298 297 292 294 293 294 291 292 294 294 294 288 291 292 291 290 289 289 288 287 289 288 291 290 292 292 292 293 294 292 290 290
296 293 295 293 297 298 296 296 295 297 296 295 295 298 298 295 296 293 296 294 292 291 291 291 289 291 287 291 288 286 289 288 289 290 291 291 289 296 295 293 291 290 289 289 290
294 295 297 293 292 293 294 295 294 296 295 297 297 297 296 298 300 299 296 298 296 291 289 289 289 285 284 289 284 281 286 288 289 291 290 287 291 290 289 290 292 292 290 290 291

GFSSW_sfc_thetae_039.txt.gz
Theta_e
320 320 321 322 322 323 324 325 325 326 327 327 325 325 325 324 324 320 311 316 321 329 322 315 315 314 315 311 311 309 302 299 300 301 303 306 304 307 308 307 307 306 306 306 308
320 320 321 321 322 323 323 324 325 326 326 327 325 325 324 323 318 312 321 328 329 330 313 311 309 311 309 309 310 306 301 300 304 305 304 306 306 306 305 305 304 305 306 307 308
320 320 321 321 321 322 323 324 325 326 326 326 326 325 324 322 313 310 325 328 331 322 314 313 312 309 305 308 307 305 301 302 303 305 307 305 305 307 305 303 306 305 305 305 306
321 321 321 321 321 322 323 324 325 326 326 326 326 324 323 318 303 314 326 328 330 317 314 312 309 305 304 303 306 302 303 303 305 306 305 304 306 304 305 304 305 305 305 305 304
322 321 321 321 321 322 322 323 324 325 326 326 325 324 318 310 310 320 325 327 317 314 312 309 305 305 302 303 304 303 303 304 306 305 305 305 304 304 304 304 304 303 303 303 303
321 321 321 320 321 321 322 323 324 325 325 323 324 321 313 306 318 318 315 315 314 313 311 310 306 307 304 303 302 304 304 304 305 304 304 302 303 303 305 304 302 302 301 301 300
322 321 320 321 321 321 321 322 323 325 322 322 322 318 311 311 319 317 313 312 313 313 309 310 310 307 306 302 305 303 300 303 303 303 302 303 300 299 304 302 301 301 301 300 299
321 321 320 320 321 321 321 322 323 323 321 322 322 314 309 312 322 315 315 311 313 313 312 312 312 308 306 305 303 300 300 298 303 302 301 302 298 303 302 301 300 300 300 299 298
320 320 320 320 320 320 320 321 321 320 320 322 316 312 307 315 312 317 315 310 310 311 310 310 311 306 304 300 299 300 296 298 300 302 301 300 300 301 302 302 301 301 300 299 298
319 319 319 320 320 320 320 321 323 318 318 316 313 308 309 305 309 312 312 312 308 308 306 306 305 301 301 300 293 297 297 298 298 300 299 299 299 300 300 301 302 301 300 299 298
319 319 319 319 320 320 320 321 313 311 313 309 309 309 305 305 309 309 310 308 308 306 301 304 299 296 300 301 302 300 298 298 301 300 298 299 299 302 300 300 301 301 299 298 297
319 319 320 320 320 320 320 313 313 311 306 313 312 310 307 307 301 305 309 304 302 299 302 298 295 302 304 302 300 298 296 297 301 298 296 298 298 302 302 300 301 301 300 298 296
318 318 319 320 320 319 316 315 315 313 306 307 311 309 306 305 303 303 306 304 301 299 298 298 300 301 299 297 296 297 296 296 297 296 297 296 295 298 302 301 301 301 301 299 296
318 318 318 319 315 316 312 320 320 317 299 300 303 309 305 306 302 306 307 303 298 298 299 299 302 297 297 296 297 294 300 297 296 294 291 297 289 298 301 298 297 297 298 297 297
318 318 318 319 314 312 315 321 322 315 286 302 302 307 305 304 302 298 305 301 298 297 297 297 295 294 294 297 299 296 298 297 296 294 294 294 289 296 301 297 296 296 296 296 296
318 317 318 317 318 318 319 320 317 296 286 296 299 298 298 302 298 298 298 302 303 298 297 298 298 298 298 296 298 298 296 294 294 294 287 292 292 294 295 296 299 296 295 295 294
318 317 316 319 311 317 317 313 295 289 300 294 295 297 298 296 295 296 294 293 293 290 292 296 296 298 298 294 295 296 294 289 286 285 285 292 292 295 300 297 299 295 294 295 294
318 317 316 318 319 313 314 302 288 294 296 299 297 297 295 296 295 294 293 293 297 298 296 293 291 297 297 298 296 293 295 290 284 285 288 286 286 292 298 298 296 298 295 295 293
317 316 315 318 316 314 304 291 292 295 300 296 296 294 294 294 295 293 293 295 299 298 293 293 293 297 298 299 300 293 290 298 289 283 285 290 292 297 292 291 292 295 294 293 292
312 312 312 319 316 310 299 293 297 302 302 302 293 296 293 293 292 292 294 299 298 300 302 298 292 294 294 295 296 295 297 287 289 283 283 289 291 292 290 290 291 293 292 292 292
309 303 314 319 313 303 291 292 299 304 304 300 297 296 297 295 294 292 296 299 300 298 299 299 295 290 291 290 291 290 290 291 292 291 286 285 289 299 298 296 292 292 293 293 292
305 296 315 317 299 300 294 297 300 301 304 302 302 300 298 298 294 294 294 298 300 299 293 298 294 292 291 295 295 296 293 292 288 285 287 287 290 294 300 300 297 294 294 294 294
300 301 315 313 294 294 298 298 300 299 301 301 299 301 302 297 292 296 298 302 300 297 296 297 291 286 289 289 290 288 292 293 292 290 287 286 290 293 293 295 296 295 295 295 294
301 295 301 305 305 298 294 295 294 301 300 302 301 301 300 298 299 297 297 298 299 298 299 298 293 290 288 292 293 287 289 291 290 286 288 289 292 290 291 292 293 295 295 295 294
300 293 299 293 294 298 298 297 294 294 299 301 298 298 297 294 296 295 298 293 294 296 296 296 289 292 293 295 295 292 290 290 288 290 288 291 292 296 293 294 295 295 295 294 293
295 293 297 294 296 296 298 294 294 296 297 295 295 298 299 295 297 295 297 297 295 293 292 294 288 290 288 293 293 290 291 291 290 290 291 292 293 300 297 297 296 295 294 293 293
297 297 298 294 292 291 292 296 295 298 299 300 298 297 296 298 303 303 302 301 300 295 289 289 287 286 284 290 289 283 289 290 292 292 293 288 294 296 295 293 294 294 293 293 293

GFSSW_sfc_thetae_042.txt.gz
Theta_e
320 321 322 322 322 323 324 325 326 327 327 327 327 326 326 325 324 321 314 318 322 328 323 314 313 313 313 310 310 306 296 294 295 296 298 302 299 301 302 301 301 302 300 300 303
320 320 321 322 322 323 324 325 325 326 327 327 327 326 326 324 318 315 321 328 329 330 314 310 308 310 306 308 307 301 296 297 300 300 299 301 300 302 298 300 297 299 301 303 303
320 320 321 321 322 322 323 324 325 326 326 327 327 326 325 321 313 311 325 328 331 324 314 312 310 308 304 305 303 301 296 298 300 303 303 302 299 301 298 297 299 300 300 302 302
321 321 321 321 322 322 323 324 325 326 326 327 326 325 323 318 302 317 327 328 330 316 313 312 308 303 301 300 304 297 300 300 304 304 302 300 302 299 299 297 302 301 302 301 300
322 322 321 321 321 322 322 323 324 325 326 325 325 324 318 311 311 319 325 325 319 314 311 309 304 303 299 301 302 299 300 302 303 302 301 303 300 299 298 300 300 301 302 299 299
322 321 321 321 321 322 322 322 323 325 325 324 324 321 315 305 318 318 315 316 314 311 310 309 305 305 302 301 299 301 302 301 302 302 301 299 299 299 299 299 298 300 298 297 297
321 321 320 320 321 321 322 322 323 324 323 323 324 318 312 310 319 315 313 312 312 312 310 310 308 304 304 300 303 301 296 299 300 300 298 299 296 296 300 299 298 297 296 296 296
320 319 320 320 321 321 321 322 322 322 322 323 324 316 307 314 319 315 314 311 312 312 311 310 310 307 304 303 300 296 295 291 299 300 298 296 292 299 299 297 296 296 295 295 295
319 319 320 320 320 320 321 321 321 322 321 321 317 313 306 316 312 316 314 309 309 310 309 310 309 303 301 295 293 295 289 292 295 299 297 295 293 297 298 298 296 295 295 296 294
319 318 319 320 320 320 320 321 322 322 319 317 314 306 307 305 310 313 312 311 308 307 305 305 301 297 296 293 288 291 291 294 293 296 296 293 293 296 297 297 296 296 295 294 294
319 318 319 319 320 320 319 317 313 310 312 307 308 308 306 306 310 308 310 307 307 303 297 300 294 292 295 297 297 296 293 292 294 296 294 294 294 297 296 296 295 296 295 294 294
319 318 319 319 320 320 318 311 311 309 303 312 311 310 307 307 301 306 308 302 301 296 299 295 291 299 301 300 297 295 293 292 296 296 293 293 293 297 297 296 297 297 295 294 292
319 318 319 319 320 318 314 313 315 313 304 304 311 309 306 304 302 302 304 302 298 296 297 294 297 300 298 296 295 294 292 291 292 293 292 290 289 293 298 298 297 298 297 296 292
319 318 318 318 315 315 311 317 320 319 296 296 304 308 304 305 300 306 305 302 298 295 297 296 300 296 296 295 295 291 296 295 294 290 285 291 283 292 296 297 296 297 295 293 292
318 318 317 319 313 310 313 319 319 314 281 300 301 309 305 302 300 299 303 300 296 295 297 294 293 293 293 295 297 293 296 293 292 289 288 288 286 290 296 295 296 295 294 293 292
318 317 317 316 315 316 318 318 316 294 282 296 298 298 297 300 297 297 297 300 300 296 295 294 296 295 295 295 295 296 293 292 290 289 282 289 288 288 293 295 296 295 294 293 292
317 317 315 317 309 317 319 312 290 284 295 292 294 297 297 296 294 295 293 291 291 288 288 292 293 295 296 291 293 293 290 283 280 279 280 288 287 291 295 295 296 295 294 293 292
316 317 315 317 318 316 314 298 283 290 290 299 298 297 294 296 294 293 291 289 293 293 291 287 286 293 295 295 291 290 291 284 278 279 281 282 281 289 293 293 294 297 295 294 291
315 314 315 316 318 315 305 288 286 291 295 294 296 292 292 294 293 291 291 291 294 294 290 290 290 295 295 296 297 290 287 295 285 278 278 285 287 292 290 289 290 292 292 292 291
311 310 311 318 319 310 299 290 291 298 299 296 290 295 291 292 290 290 290 295 295 296 298 296 289 293 290 293 293 291 294 285 284 274 275 283 286 287 287 288 289 290 291 291 291
308 301 312 319 315 304 292 291 295 300 300 296 294 293 293 293 291 289 292 295 298 296 298 296 292 286 289 287 289 287 286 288 289 285 279 278 284 292 293 292 289 291 292 291 290
304 295 313 317 299 300 295 296 299 298 302 300 300 297 296 295 292 291 291 296 300 299 293 297 293 284 285 291 292 292 290 290 283 281 284 282 286 292 292 293 292 292 292 291 291
298 299 312 313 294 295 297 297 299 298 299 299 298 299 300 296 292 294 295 299 300 297 294 296 290 283 284 287 288 287 289 292 291 286 285 281 285 290 290 291 292 291 291 291 291
297 292 299 304 303 298 295 294 294 300 299 301 300 300 297 296 298 293 294 297 298 298 299 299 292 288 286 288 290 284 287 289 290 284 284 287 289 286 288 289 290 291 292 291 291
297 293 298 292 295 297 298 296 293 293 298 300 297 298 297 293 294 294 295 293 294 297 297 296 289 291 292 294 292 287 286 288 287 289 286 288 289 293 292 290 292 292 292 291 290
292 292 295 294 297 295 295 292 293 295 296 294 294 297 297 294 295 293 296 295 292 291 291 293 287 290 288 291 291 289 291 289 288 289 290 290 289 294 296 294 290 292 292 291 290
299 297 295 292 292 291 289 292 293 296 297 299 298 296 295 298 301 302 301 300 297 292 288 289 287 286 285 288 288 284 289 291 291 290 290 286 291 294 293 291 290 291 291 291 291

GFSSW_sfc_thetae_045.txt.gz
Theta_e
321 321 322 323 323 324 324 325 326 326 327 327 327 327 326 326 324 320 310 316 319 327 322 309 307 306 306 304 303 298 290 288 290 292 294 297 296 299 299 299 298 299 297 298 302
321 321 322 322 322 323 324 324 325 326 327 327 327 327 326 324 316 312 321 327 329 327 310 305 302 303 300 301 301 295 290 291 295 295 295 298 297 299 296 296 295 295 298 300 301
321 321 321 322 322 323 323 324 325 325 326 327 326 326 325 321 309 309 325 328 329 322 312 308 305 302 297 298 297 295 291 294 297 300 299 298 297 298 297 293 296 297 298 299 299
321 321 321 321 321 322 323 324 324 325 326 326 325 324 322 315 296 314 326 327 328 313 310 306 303 297 295 295 300 292 296 297 301 301 299 297 298 296 296 296 298 298 299 298 298
321 321 321 321 321 322 322 323 324 324 325 324 324 323 314 305 306 316 324 323 315 309 307 305 299 297 294 296 298 295 296 299 300 299 298 300 297 296 295 296 298 299 299 297 297
321 320 320 320 320 321 322 322 323 324 325 324 324 323 309 299 315 315 313 313 312 307 305 304 301 301 297 296 295 297 298 298 300 299 298 297 296 296 295 296 296 297 295 295 296
320 320 320 320 321 321 322 322 322 323 324 323 324 317 306 305 313 310 311 308 308 307 305 306 305 300 299 296 299 298 293 295 296 298 296 297 293 295 296 296 295 294 293 294 295
319 319 319 320 320 321 321 322 322 322 323 323 323 312 301 311 312 311 309 307 308 308 307 306 305 303 299 299 297 293 291 288 295 297 296 294 289 296 296 295 293 293 292 293 294
318 318 318 320 319 320 320 321 320 322 324 323 311 307 301 314 310 312 308 305 306 306 305 308 304 299 297 291 289 289 286 288 293 296 295 292 290 294 295 295 293 292 291 292 292
319 318 318 319 319 319 320 321 320 320 320 317 313 299 303 302 307 310 307 307 304 303 301 300 297 292 292 289 284 287 286 290 290 294 293 290 291 294 295 294 293 292 291 292 291
319 318 318 319 319 320 318 313 309 305 308 299 301 301 302 304 307 306 307 305 303 299 292 295 290 288 291 292 292 291 289 288 291 294 292 291 291 294 294 293 292 291 292 292 292
319 319 319 319 319 320 314 307 307 305 299 308 307 307 304 304 299 304 306 299 298 293 295 292 289 295 296 295 294 292 289 289 292 293 292 291 291 294 294 294 295 294 294 293 290
319 318 318 319 319 317 311 310 313 308 298 303 307 306 302 303 299 300 302 299 295 293 293 290 294 298 296 294 293 291 289 288 290 291 290 288 287 290 294 295 295 296 296 294 291
319 319 318 318 313 313 308 315 315 314 289 292 299 305 301 302 297 304 304 300 296 293 293 292 297 295 294 293 293 288 293 293 292 288 284 288 283 289 292 293 293 295 293 293 290
319 319 318 318 312 309 312 316 315 310 276 292 300 306 302 300 298 297 301 298 293 294 294 291 293 292 293 293 295 291 293 291 290 287 285 285 283 287 293 293 296 295 294 293 291
317 318 318 316 314 315 316 317 314 293 278 292 297 296 296 298 295 296 297 298 298 294 293 292 294 294 294 292 294 294 292 291 289 287 280 286 286 285 291 294 297 295 292 291 290
314 316 316 317 308 316 319 305 285 281 292 290 292 295 295 294 292 293 291 290 290 287 286 290 290 292 294 291 293 292 288 281 279 278 280 287 284 290 293 295 296 295 291 290 290
313 316 315 317 317 316 313 294 282 288 288 295 295 293 291 294 292 291 290 288 291 290 288 287 284 291 293 292 290 288 289 282 277 277 279 283 281 288 295 296 292 295 294 291 289
312 314 313 315 318 315 304 284 287 290 293 292 293 289 289 292 291 289 288 290 292 293 289 287 286 292 293 296 295 288 286 293 285 273 276 283 286 291 290 290 290 291 292 290 289
305 308 307 317 318 311 299 289 289 296 295 295 290 292 287 289 288 288 287 291 292 295 295 293 287 290 289 295 292 291 292 284 283 274 273 280 283 287 287 290 289 289 290 289 288
303 299 306 317 315 303 292 290 294 298 298 295 291 291 291 290 289 287 288 291 295 293 296 294 292 285 288 287 288 288 286 287 288 283 278 277 283 290 292 292 289 290 290 290 288
298 291 308 316 299 300 294 297 298 297 300 297 297 295 292 293 290 288 288 293 297 296 291 295 292 281 285 289 290 289 289 288 284 281 281 280 287 290 290 290 291 290 291 291 290
294 294 305 309 291 293 298 297 298 297 297 297 296 297 297 294 290 292 291 296 297 296 293 296 290 283 283 286 287 287 289 292 289 282 284 279 286 289 289 290 290 289 289 290 289
295 288 294 298 299 295 294 295 294 300 298 299 297 298 296 295 297 293 292 295 297 297 298 299 291 289 286 288 288 285 287 289 290 284 284 286 289 287 287 290 289 289 289 289 290
295 288 292 289 291 292 294 295 294 293 298 299 296 296 295 292 294 293 295 293 295 297 297 297 288 289 292 291 289 287 286 288 287 289 286 289 289 293 294 290 291 290 289 288 288
290 289 290 290 293 293 292 290 289 292 296 294 294 296 297 294 294 292 295 294 292 291 294 294 288 290 288 291 290 288 288 288 289 290 290 291 290 294 295 293 290 291 290 289 289
297 293 293 290 288 287 290 291 293 296 296 298 297 296 295 297 301 301 300 299 296 292 290 290 289 286 285 289 287 284 289 291 290 290 290 286 292 293 294 294 290 290 291 291 291

GFSSW_sfc_thetae_048.txt.gz
Theta_e
321 322 322 323 323 323 324 325 325 326 326 327 327 327 327 326 324 317 307 314 316 327 322 307 305 304 304 302 301 295 288 286 289 290 292 295 295 297 296 297 296 297 296 297 302
321 321 321 322 322 323 323 324 324 325 326 327 326 326 326 324 314 309 321 326 326 325 307 303 300 301 298 299 299 294 288 290 293 293 293 296 295 297 295 294 293 294 296 298 300
320 321 321 321 322 322 323 323 324 324 325 326 325 325 324 320 307 305 326 325 327 321 310 306 303 300 296 296 296 293 290 292 295 298 297 296 294 296 295 292 295 295 297 297 298
321 320 320 321 321 322 322 323 324 324 325 326 324 324 323 313 295 311 325 325 326 312 307 304 300 295 293 293 297 289 294 295 299 299 297 296 296 295 295 295 297 298 297 297 297
321 321 320 320 320 321 322 322 323 323 324 325 324 324 313 302 304 314 323 321 312 307 304 302 297 295 293 294 296 292 294 297 298 298 296 298 295 295 294 294 296 297 298 296 296
319 320 320 320 320 321 321 322 322 323 323 324 324 323 307 296 313 312 312 311 309 305 302 301 299 298 296 295 293 296 296 296 298 297 297 296 294 295 294 294 295 296 295 295 295
320 319 320 320 320 320 321 321 322 322 322 324 324 317 304 302 312 309 309 306 306 305 302 303 303 299 297 295 298 296 291 293 295 297 295 296 292 294 295 294 294 293 292 293 295
319 319 318 319 320 320 320 321 321 322 322 324 324 310 299 310 311 308 307 305 306 306 305 304 304 301 298 298 296 291 290 287 293 295 295 293 287 294 294 293 292 292 291 292 293
319 318 318 318 319 319 320 320 320 321 323 324 310 304 298 313 309 311 305 303 304 304 303 307 303 296 295 291 288 288 285 286 291 295 293 291 289 293 293 293 292 290 290 291 291
319 318 318 318 319 319 319 321 320 319 318 318 312 298 301 301 307 308 305 305 302 300 299 299 295 292 290 288 284 285 285 287 288 292 291 289 290 292 293 293 293 290 290 290 291
320 319 318 318 319 319 316 311 304 301 305 296 299 296 301 303 306 304 306 303 302 297 291 293 289 287 291 290 290 289 287 287 289 294 291 290 290 293 293 291 291 290 291 291 292
320 319 319 318 319 319 312 305 303 305 298 306 306 305 303 304 298 302 305 299 296 292 293 291 288 293 294 293 291 289 287 287 290 293 291 290 289 292 292 292 294 294 293 293 290
320 319 319 319 319 316 309 309 312 308 297 299 305 304 302 302 299 299 302 298 294 292 292 289 293 296 294 292 290 289 287 287 289 289 289 287 285 289 293 293 293 295 296 295 292
318 319 318 318 313 312 308 314 314 311 285 289 298 303 300 302 297 303 303 299 294 292 292 291 295 294 292 291 292 287 292 291 290 287 283 288 282 287 290 292 292 295 294 294 292
315 318 318 318 312 307 311 315 315 307 276 291 297 304 300 299 296 297 300 297 292 293 293 291 292 292 291 292 294 290 293 290 288 285 283 284 282 285 289 289 292 297 294 293 292
314 315 318 316 315 315 317 317 310 291 277 289 297 295 295 296 294 295 296 297 297 293 292 291 293 294 294 293 294 293 291 289 287 285 279 286 284 283 288 293 294 297 297 292 291
313 313 315 317 309 317 316 306 285 282 293 289 291 294 294 292 291 292 291 290 290 287 287 289 290 292 293 291 292 291 288 280 279 277 280 284 282 289 291 294 296 298 295 291 291
312 312 314 317 317 318 310 295 281 287 290 295 294 292 290 293 291 290 289 289 292 289 286 286 283 291 293 292 290 289 287 281 276 276 279 282 281 287 293 296 293 293 293 289 288
311 307 311 313 317 316 300 286 288 290 294 293 294 291 290 291 290 288 287 289 292 292 288 286 286 291 291 293 295 288 285 291 284 271 276 282 286 290 291 291 292 292 290 287 287
300 301 304 313 317 310 297 289 290 295 296 296 291 292 288 289 288 287 286 290 291 294 294 291 284 287 288 292 290 289 292 284 282 274 273 280 281 286 287 290 292 292 288 287 286
298 295 302 313 314 302 291 293 295 297 297 294 293 292 290 289 289 286 288 290 293 292 295 293 290 284 287 287 287 287 286 287 287 282 277 274 282 289 292 292 292 292 290 288 286
299 290 302 314 297 296 292 297 298 296 299 297 297 294 292 291 290 288 287 291 295 294 290 293 292 281 284 288 288 288 287 287 282 279 280 280 286 291 291 291 292 292 290 289 288
293 291 301 308 288 289 294 297 298 297 297 296 295 296 295 293 290 290 289 294 296 294 291 294 288 279 282 286 286 285 288 292 288 283 281 280 286 288 288 290 291 291 289 288 287
291 285 291 296 297 292 290 291 293 300 298 299 297 298 295 293 295 291 291 294 296 295 298 298 291 286 284 285 288 283 285 288 290 285 285 286 289 287 290 290 291 290 289 287 287
289 288 288 286 288 290 291 293 290 291 298 299 295 296 294 291 293 292 294 292 294 296 296 295 288 288 291 290 289 287 286 288 287 289 287 290 289 294 294 291 292 291 289 287 287
287 287 290 286 289 290 290 288 288 290 292 294 294 296 296 292 293 291 294 294 294 293 293 294 289 290 288 291 288 286 287 289 289 290 290 291 291 294 294 292 290 291 289 288 288
292 294 292 288 286 284 286 289 288 291 293 294 292 294 293 296 299 300 299 299 298 295 293 293 290 288 285 289 286 284 289 288 288 291 290 287 292 293 294 294 292 291 290 290 290

GFSSW_sfc_thetae_051.txt.gz
Theta_e
321 321 322 322 322 323 324 324 324 325 326 327 327 326 326 325 323 315 305 312 315 327 322 306 303 302 302 300 298 292 288 285 288 289 291 295 293 295 294 295 294 295 295 296 304
320 321 321 322 322 322 323 323 323 324 325 326 326 325 325 324 313 307 320 327 326 324 304 301 298 299 297 297 296 291 286 290 293 291 292 294 293 296 294 293 291 292 295 298 303
320 320 320 321 321 322 322 322 323 323 324 325 326 325 324 320 304 303 326 327 326 319 307 304 301 298 294 295 295 290 289 291 294 296 296 295 292 294 293 291 294 295 296 297 299
320 320 320 320 320 321 322 322 322 323 323 325 326 324 323 311 291 308 325 325 324 312 306 302 298 294 292 292 295 291 292 293 296 297 295 294 295 293 293 295 295 296 297 296 298
320 320 319 319 320 320 321 322 322 322 323 324 325 323 312 299 302 311 323 319 310 306 302 300 295 294 291 293 294 291 292 295 297 296 295 296 293 293 294 293 294 296 297 296 296
318 319 319 319 319 320 321 321 322 322 322 323 325 322 306 294 311 310 310 308 306 303 301 299 297 297 294 293 292 294 295 294 296 295 295 295 293 294 294 293 293 295 295 295 295
319 319 318 319 320 320 320 320 321 321 321 323 325 316 302 300 310 307 307 304 305 304 301 301 301 297 295 293 296 294 290 292 293 295 294 295 292 293 293 293 293 293 293 294 294
320 319 318 318 319 320 320 320 320 321 322 323 324 308 297 308 309 306 305 303 304 305 303 302 302 300 297 296 294 290 289 286 291 294 293 292 287 293 293 293 292 292 291 292 294
319 318 318 318 318 319 319 320 320 320 322 322 308 303 296 312 307 309 304 301 302 302 303 306 301 295 294 290 287 287 284 285 290 294 292 290 288 291 291 292 292 291 290 291 291
320 318 318 318 318 318 319 320 319 318 317 315 310 294 298 299 305 306 304 304 300 298 297 297 293 291 288 287 283 284 284 285 286 290 290 288 289 292 291 291 292 290 290 290 291
320 320 319 318 318 319 315 307 298 296 304 294 296 293 299 302 305 303 304 302 299 296 290 292 289 287 290 289 288 287 285 285 288 292 290 289 289 292 292 290 290 290 290 291 292
321 320 319 319 319 319 312 301 300 302 295 304 304 303 304 303 298 301 303 298 295 291 292 290 287 292 292 291 289 287 285 286 289 291 290 289 289 291 290 291 293 293 293 293 293
317 320 319 319 319 316 308 306 311 307 295 297 303 302 302 301 298 299 301 297 293 290 290 288 292 294 293 290 289 287 286 286 288 288 287 286 285 288 293 292 293 294 296 295 294
315 317 319 318 313 312 307 313 313 308 284 287 295 301 300 301 296 302 302 298 292 291 290 290 293 293 290 289 291 286 291 290 288 286 282 286 281 286 289 291 292 295 294 295 294
314 315 318 317 312 308 311 313 312 303 279 290 294 303 299 297 295 296 299 296 292 292 292 289 290 290 289 290 292 289 291 289 287 285 282 283 281 285 287 289 293 295 296 296 293
312 313 315 315 315 314 317 312 308 289 279 289 296 294 294 295 293 294 296 296 296 292 291 289 292 293 292 292 293 293 290 288 286 284 279 285 284 283 287 291 292 296 297 294 292
312 312 311 317 309 317 313 306 286 282 293 290 290 294 293 290 290 291 291 290 289 286 286 288 289 290 293 290 291 290 288 280 278 276 279 283 281 289 290 292 294 296 295 292 290
312 312 308 313 317 316 309 295 281 287 288 293 292 292 290 292 290 290 288 288 291 288 284 285 282 290 292 292 290 288 287 281 275 275 278 282 280 286 291 294 293 294 293 291 288
310 302 306 309 316 315 301 287 288 288 292 293 293 290 288 291 290 287 286 288 291 291 287 284 284 289 290 292 294 287 285 290 283 271 275 281 284 289 291 291 291 292 291 289 289
300 297 300 311 315 310 297 291 292 295 295 296 290 291 287 288 289 287 285 289 290 293 292 290 283 287 288 292 290 289 292 284 282 273 271 279 281 285 289 290 294 293 293 289 288
299 293 299 311 312 300 290 291 295 296 296 294 292 291 289 289 289 285 288 289 291 291 295 291 288 283 287 286 286 286 285 285 285 282 277 274 282 288 292 292 292 293 292 291 288
294 288 299 311 293 293 289 294 298 296 298 297 296 295 291 291 289 288 287 290 294 293 290 292 290 281 284 287 287 287 286 286 280 278 279 279 285 289 291 292 292 293 293 289 288
288 290 298 304 286 286 290 291 295 297 297 296 295 296 295 292 289 289 289 293 295 294 290 293 287 277 281 285 285 284 286 289 286 281 281 278 285 288 287 288 291 292 291 289 287
286 281 288 294 295 289 287 288 288 297 296 298 296 297 294 292 295 290 290 292 295 295 297 297 290 284 283 284 286 283 285 287 289 283 284 285 289 287 289 289 291 291 291 289 287
288 282 287 282 285 288 292 290 287 287 295 298 295 295 293 291 292 291 292 291 293 295 295 295 286 287 290 289 287 285 285 287 287 288 285 289 289 293 294 291 293 292 291 288 287
285 281 286 284 286 285 286 287 286 289 291 290 292 294 295 292 293 291 294 293 293 292 292 294 286 289 287 290 287 286 286 288 288 290 290 290 290 294 294 292 291 293 291 289 288
290 292 288 284 283 283 284 286 285 288 290 293 293 292 292 294 298 299 299 298 298 294 290 291 288 286 284 287 287 283 288 289 288 291 290 286 292 294 295 295 296 294 291 290 291

GFSSW_sfc_thetae_054.txt.gz
Theta_e
321 321 322 322 322 322 323 323 323 324 325 326 326 326 325 325 323 313 303 311 313 327 322 304 301 300 300 298 296 291 287 285 287 288 290 293 292 292 293 294 293 294 294 297 305
320 321 321 321 321 322 322 322 323 323 324 325 326 326 325 324 311 306 319 327 325 323 303 299 296 298 296 295 294 289 286 288 290 289 290 292 292 294 293 292 293 294 294 298 303
320 320 320 320 321 321 322 322 322 322 323 324 325 325 324 319 303 302 324 325 325 317 305 302 299 296 293 297 295 288 286 290 292 294 294 293 291 293 292 290 294 295 295 299 300
320 319 319 319 320 321 321 322 322 322 323 323 325 325 323 308 290 306 323 325 325 310 304 300 297 293 291 293 293 291 290 291 295 295 293 292 293 292 292 294 294 295 296 298 300
320 319 319 318 319 320 321 321 321 321 322 323 325 324 309 299 300 311 322 318 307 304 300 298 294 292 290 293 292 291 290 293 295 294 295 295 292 293 293 294 294 294 297 297 299
318 318 319 319 319 319 320 320 321 321 321 322 325 322 305 292 309 309 308 306 304 301 299 298 296 296 293 291 290 292 293 293 294 294 293 293 294 295 295 292 292 294 294 295 297
319 318 317 319 319 319 320 320 320 321 321 322 324 314 301 297 309 306 306 303 303 302 299 300 299 296 294 292 294 293 290 291 290 293 292 295 291 293 294 292 293 292 292 293 294
320 319 318 318 318 319 319 319 320 320 321 322 323 305 294 306 309 305 304 302 303 303 302 301 300 299 295 294 293 289 288 286 289 293 292 291 286 292 292 292 293 292 291 292 294
319 318 318 318 318 318 319 319 319 320 321 322 306 301 293 310 305 308 302 300 301 301 301 304 299 293 293 289 287 286 283 284 289 293 290 289 287 291 290 291 292 291 291 291 292
320 319 318 318 318 318 319 320 319 317 316 313 308 292 296 296 303 304 302 302 299 297 296 297 293 289 287 287 282 283 283 284 285 289 288 287 288 291 291 290 291 290 290 290 291
321 320 319 318 318 318 315 305 297 296 302 292 293 291 298 301 304 302 302 300 297 295 289 291 288 286 289 288 287 286 284 284 286 290 288 288 288 291 292 289 290 290 290 292 293
318 321 320 319 318 319 311 300 299 302 296 301 300 301 303 302 297 300 302 296 293 289 290 288 286 291 291 289 288 286 285 285 287 289 288 288 288 292 291 291 292 294 293 293 293
315 317 320 319 318 315 307 305 310 306 295 296 302 301 300 301 297 298 300 296 291 289 289 287 290 292 291 288 287 286 285 284 286 287 287 285 285 287 291 290 291 293 295 294 295
313 314 318 318 312 312 307 313 313 305 286 289 293 299 299 300 295 301 300 297 291 291 289 289 292 291 288 288 290 284 289 288 287 285 281 285 279 285 289 290 291 294 293 294 295
312 313 316 318 312 308 310 314 312 302 283 292 293 302 298 294 294 295 298 295 291 291 291 288 289 289 288 289 291 288 290 288 286 284 281 281 281 284 286 288 292 295 296 294 295
312 312 312 315 314 314 315 314 308 289 281 288 295 293 292 294 292 294 294 296 294 291 290 288 291 292 291 290 291 291 289 287 285 283 279 283 283 285 286 290 291 294 296 295 293
311 311 309 309 309 316 314 306 288 282 292 289 289 292 292 290 289 290 290 289 288 285 285 287 288 290 292 289 290 288 287 280 277 276 278 281 281 288 287 291 292 294 294 292 291
309 310 307 309 316 314 309 296 283 288 288 292 291 290 289 291 289 288 288 287 290 287 282 284 282 289 291 291 288 287 287 280 274 273 277 281 279 285 290 292 292 292 292 291 290
308 300 304 306 310 313 301 287 288 288 291 291 291 289 288 289 289 287 286 286 290 290 285 282 282 288 289 290 293 287 284 289 282 270 275 281 282 288 290 291 292 292 291 291 290
297 297 297 307 311 308 296 290 292 294 294 295 288 291 285 287 288 286 285 288 289 292 292 288 282 286 287 290 289 288 290 283 281 273 270 278 279 284 289 290 292 291 293 291 290
294 291 297 307 310 298 288 290 294 295 296 294 292 290 289 287 288 285 287 288 290 290 294 291 287 283 285 285 285 286 285 285 285 281 275 273 281 287 291 292 292 293 292 292 291
291 284 297 308 291 290 288 290 295 296 298 296 296 294 291 289 287 287 286 289 293 293 289 291 288 284 284 285 286 285 285 285 280 277 278 278 284 289 290 290 291 293 292 290 289
286 285 295 301 284 285 287 289 292 292 296 295 294 295 294 293 289 288 288 292 294 293 291 292 287 279 282 283 283 283 285 287 284 280 279 277 285 288 288 289 290 291 291 291 289
287 280 285 291 291 287 285 286 286 292 292 295 296 297 294 292 295 290 289 291 294 294 298 297 289 285 282 282 285 281 283 287 288 282 284 283 287 289 288 290 290 291 290 290 289
290 282 284 280 282 284 287 288 285 285 292 293 291 292 292 288 291 290 292 290 293 295 295 295 285 288 289 287 285 285 284 286 286 288 283 288 287 292 293 292 293 292 291 291 290
286 284 285 282 284 283 284 285 286 288 287 287 289 291 292 290 291 289 293 292 292 292 292 295 286 287 286 289 286 285 285 286 287 288 289 289 288 295 294 293 291 292 294 291 289
290 291 288 283 281 280 282 284 283 286 288 291 290 289 289 293 297 297 296 297 297 294 291 291 287 285 284 287 285 283 287 289 289 290 289 285 291 294 295 294 295 296 292 293 292

GFSSW_sfc_thetae_057.txt.gz
Theta_e
321 321 321 322 322 322 322 323 323 324 324 325 326 326 326 325 323 314 304 311 315 326 322 304 302 302 302 301 298 296 291 288 290 290 294 294 295 295 298 297 298 299 300 302 311
320 321 321 321 321 322 322 322 322 322 323 324 325 326 325 324 310 306 319 327 327 323 303 300 298 300 297 298 297 292 289 291 293 292 293 294 295 295 296 296 297 298 299 303 309
319 320 320 320 321 321 321 321 322 322 323 323 324 326 325 318 302 302 323 326 326 316 305 303 300 299 295 296 295 292 288 291 294 295 296 295 294 296 295 294 297 298 299 302 307
319 319 319 319 319 320 321 321 322 322 322 323 325 325 323 307 289 306 323 326 324 309 304 301 298 295 293 292 295 291 292 293 297 297 295 294 295 294 294 297 298 298 299 302 305
320 319 318 318 319 319 320 321 321 321 322 323 325 324 308 297 299 310 321 317 306 304 301 298 295 294 292 294 294 291 292 294 296 295 294 295 294 295 294 296 298 297 298 301 305
318 318 318 318 319 319 320 320 321 321 321 322 324 321 301 290 308 309 306 305 304 302 299 298 296 296 294 293 292 294 294 294 295 295 295 295 294 295 296 296 296 296 297 299 302
319 318 317 318 318 319 319 320 320 320 320 321 323 311 298 295 309 305 306 303 303 302 300 300 299 297 296 294 295 293 291 293 292 294 294 295 292 294 296 295 296 296 295 296 298
320 318 318 318 318 318 319 319 319 319 320 322 323 304 292 305 309 306 304 302 303 303 302 301 301 299 296 295 293 290 290 287 291 293 294 294 288 294 294 295 296 295 294 294 296
319 318 318 318 318 318 318 319 319 319 321 321 305 298 291 309 304 307 303 300 301 301 301 302 299 294 294 290 288 287 284 285 289 293 292 291 289 293 293 292 293 294 294 294 294
320 319 318 318 318 318 319 320 319 317 314 309 306 291 294 295 303 304 301 302 298 297 297 297 293 290 288 288 282 284 284 285 286 290 290 289 289 292 293 292 293 293 293 293 294
319 320 319 319 318 319 314 303 299 299 300 291 291 290 296 300 303 301 301 300 297 295 290 291 288 287 289 289 287 286 285 285 287 290 290 289 289 291 294 291 291 293 293 294 294
316 318 321 320 318 318 310 302 298 302 297 301 298 299 301 302 296 300 302 296 293 289 290 288 286 291 291 289 288 286 285 286 288 289 289 289 289 293 292 295 295 296 296 295 297
314 315 318 320 318 315 307 305 310 305 295 297 300 300 300 301 296 296 300 295 291 288 288 286 289 291 291 287 287 286 285 285 287 288 287 286 285 288 291 292 294 294 296 296 297
313 313 318 318 313 312 307 313 313 303 289 292 293 298 298 299 293 299 299 297 290 290 288 288 291 290 288 287 289 284 288 288 286 286 282 286 280 286 289 290 292 294 294 295 297
312 312 312 318 312 308 311 314 313 304 282 291 292 301 297 294 293 295 298 295 290 290 290 287 288 288 287 288 289 287 289 287 286 285 283 283 282 285 287 289 291 295 296 296 296
311 311 311 315 314 314 314 314 310 292 283 289 293 293 292 292 292 293 294 296 294 291 289 287 290 291 290 290 290 290 288 287 285 284 279 283 283 284 285 289 291 294 295 296 294
308 310 308 309 309 314 314 307 289 284 293 288 288 291 290 289 289 291 290 288 287 284 284 286 288 289 291 288 289 288 286 279 277 276 279 282 282 288 289 291 292 294 296 294 294
306 308 305 308 311 313 308 297 283 289 288 291 290 289 287 289 288 287 288 287 289 285 282 283 281 288 291 290 288 286 286 280 274 273 277 281 279 285 290 292 292 292 292 292 293
305 299 299 303 308 312 301 286 285 288 290 290 290 286 285 288 287 286 286 286 289 289 285 281 282 287 289 290 292 286 284 288 282 270 275 280 282 287 290 291 291 293 292 291 292
294 294 295 304 307 308 296 289 291 293 292 293 288 290 284 286 286 284 284 287 288 292 291 287 282 286 287 289 289 288 290 283 281 273 271 278 279 283 287 291 291 291 292 293 293
292 286 294 303 307 297 288 289 293 295 295 293 290 290 288 287 288 283 286 288 289 289 294 290 286 282 285 285 285 286 284 284 284 281 275 273 280 286 289 290 291 292 293 293 293
289 281 294 304 291 291 287 289 294 295 297 295 294 294 290 289 287 286 286 289 291 291 288 291 288 282 283 285 286 284 285 286 280 277 278 278 284 288 290 292 291 292 292 292 292
285 284 293 300 282 284 285 287 290 289 291 293 293 295 293 291 289 289 289 291 292 292 290 291 287 276 282 284 283 283 284 286 284 280 278 278 284 288 288 290 290 291 291 292 291
288 279 283 289 291 284 283 283 284 289 290 291 293 296 294 291 294 290 287 290 292 293 297 296 289 284 283 283 285 282 283 287 288 282 284 282 287 291 289 290 291 292 292 292 292
289 282 283 277 280 284 288 286 283 283 289 291 288 289 289 288 289 290 292 292 293 295 295 295 286 288 289 288 285 285 284 286 286 288 284 287 287 291 293 293 295 295 292 292 292
286 285 283 281 283 281 282 283 284 287 287 285 285 287 288 286 288 286 290 290 290 293 293 294 285 288 286 288 288 284 285 286 287 288 288 289 288 296 296 292 291 293 295 295 293
291 291 287 283 280 280 280 281 281 284 286 289 290 286 286 288 290 291 292 292 292 291 290 290 287 285 283 287 286 282 286 288 288 288 288 285 290 295 294 294 293 293 293 294 295

GFSSW_sfc_thetae_060.txt.gz
Theta_e
321 321 321 321 322 322 322 322 323 323 324 325 325 326 326 325 324 319 309 315 318 327 323 311 310 310 311 308 305 304 303 299 299 298 301 302 302 301 304 304 306 308 306 310 323
320 321 321 321 321 322 322 322 322 322 323 324 325 326 326 325 315 311 321 327 326 324 310 308 306 308 307 305 305 305 302 300 302 303 302 302 303 303 303 303 304 305 306 308 322
320 320 320 320 320 321 321 322 322 322 323 323 324 326 325 322 309 308 324 327 327 320 311 310 308 307 304 305 303 300 300 299 301 301 302 302 301 304 303 301 306 306 307 308 320
320 319 319 319 319 320 321 321 321 322 322 323 324 325 323 314 296 311 322 325 325 314 310 307 306 304 302 301 302 299 299 300 302 303 302 301 302 301 303 306 306 308 308 309 317
320 319 318 318 319 320 320 321 321 321 322 322 324 324 314 304 305 315 321 319 312 310 307 305 304 303 300 302 301 299 300 300 302 302 301 300 301 302 302 307 305 304 304 307 312
319 319 318 318 319 319 320 320 320 321 321 322 324 323 308 298 313 312 311 310 310 309 306 306 304 305 302 301 300 301 301 301 302 302 302 300 302 301 305 306 304 304 306 307 309
319 318 318 318 318 319 319 320 320 320 320 322 323 315 303 301 315 311 310 309 309 309 306 307 306 305 304 301 302 300 299 300 301 301 301 301 299 299 306 302 304 304 306 306 307
320 318 318 318 318 318 318 319 320 320 320 322 324 310 299 310 316 310 310 308 309 309 309 308 309 305 303 303 301 299 299 296 299 299 300 300 297 302 301 302 304 306 306 306 306
320 319 318 318 318 318 318 319 319 319 321 321 311 305 298 313 310 313 309 307 307 307 307 306 306 302 302 300 298 297 294 294 296 299 299 299 298 302 300 300 302 304 305 306 306
320 319 319 318 318 318 319 320 319 319 316 311 308 299 301 301 308 308 308 307 305 305 304 304 303 300 300 298 291 293 293 293 295 297 297 297 297 302 303 300 303 305 306 305 305
317 320 320 319 318 319 319 309 307 306 305 299 297 297 300 306 309 307 307 305 304 303 299 298 298 295 298 299 296 295 294 293 296 296 296 297 298 300 303 303 302 303 305 306 306
314 316 320 320 319 318 316 312 304 307 304 306 303 301 304 307 301 305 307 303 300 297 297 297 294 299 297 296 295 295 294 294 296 295 295 297 296 300 302 302 304 304 305 306 307
312 313 317 320 318 316 314 309 314 311 302 302 304 303 303 305 301 302 305 301 298 295 296 294 296 297 296 294 293 294 293 294 293 294 295 294 294 298 301 301 302 303 305 306 306
312 312 317 318 314 314 311 315 316 310 299 299 297 301 302 303 299 303 305 303 297 296 295 296 297 295 294 293 295 291 296 294 293 292 289 293 287 295 299 299 300 303 305 305 306
311 311 312 315 313 310 312 316 316 309 287 297 296 305 301 300 299 299 303 301 296 295 296 294 293 293 293 294 296 293 295 294 293 292 291 291 288 293 295 295 299 302 304 306 307
308 310 311 314 316 315 316 316 312 293 285 294 296 296 296 297 296 298 299 302 300 296 295 294 296 296 296 294 295 295 294 293 293 292 286 291 289 291 295 296 299 301 303 305 306
307 309 308 310 310 316 315 311 291 285 296 293 293 295 294 293 294 296 295 294 293 289 289 292 293 295 296 293 294 294 293 286 285 284 284 289 288 291 296 298 299 301 303 303 303
305 307 306 307 311 314 311 297 285 292 294 295 294 293 291 293 293 293 293 292 295 292 289 288 285 293 296 295 293 292 293 287 282 282 286 285 285 292 298 299 299 300 301 302 301
305 304 303 307 309 312 303 286 288 292 295 294 294 291 291 292 292 291 292 292 295 294 289 287 287 292 293 295 297 291 288 295 288 281 283 288 292 296 297 296 298 299 301 302 303
300 299 298 307 311 309 295 289 292 297 296 296 291 294 291 292 290 290 290 294 293 296 298 292 286 291 292 295 294 293 296 287 288 282 280 286 288 289 295 297 300 298 300 302 303
298 292 298 305 310 300 288 290 294 298 298 295 294 293 293 291 292 289 290 294 294 293 297 295 291 288 291 290 290 290 290 290 290 288 283 282 287 297 297 298 297 299 299 302 303
295 285 299 306 293 295 289 293 295 296 299 297 297 296 293 293 292 292 292 294 296 296 291 295 291 287 289 293 294 294 292 292 286 284 286 286 287 295 298 299 298 299 299 301 301
290 290 298 302 285 287 290 291 293 293 295 295 294 296 296 293 289 293 295 297 295 296 293 295 290 285 287 289 290 289 291 292 292 288 287 284 287 296 297 297 299 298 301 301 300
290 284 290 292 294 288 286 286 287 293 293 294 294 296 294 291 294 290 291 295 296 295 296 297 291 288 286 290 291 287 289 291 291 286 286 288 290 295 297 297 298 299 301 301 301
290 286 288 283 286 287 288 286 285 285 292 293 290 290 291 288 290 290 292 291 293 296 296 295 286 290 292 293 291 290 290 290 288 290 287 290 291 295 297 298 300 301 301 302 301
286 286 287 286 287 286 286 285 285 286 287 286 286 290 290 287 288 287 289 290 290 292 290 294 285 289 286 292 291 289 291 290 290 291 292 292 292 299 300 301 301 300 300 300 301
293 292 289 286 286 283 284 285 285 288 289 291 290 288 287 289 292 293 292 291 290 288 289 290 287 285 282 289 288 284 288 291 292 293 293 289 294 299 298 299 300 300 300 299 301

GFSSW_sfc_thetae_063.txt.gz
Theta_e
322 321 321 321 321 322 322 322 323 323 324 324 325 326 326 325 324 322 310 315 318 327 322 313 313 313 313 311 310 310 303 300 302 301 302 306 305 306 309 307 308 311 309 315 322
321 321 321 321 321 321 322 322 322 322 323 323 324 325 326 325 319 313 319 325 326 326 312 310 308 310 308 309 309 307 302 302 305 305 304 305 305 306 304 305 306 308 310 315 324
320 320 319 319 320 320 321 321 322 322 322 323 324 325 325 323 312 310 323 324 324 319 313 312 310 309 305 307 306 306 302 304 304 305 305 305 304 307 304 303 307 307 309 311 321
319 319 318 318 319 320 320 321 321 321 322 322 323 325 323 319 298 312 323 325 323 316 312 309 308 304 303 302 305 300 302 303 304 305 304 303 306 304 305 307 309 311 312 311 318
319 318 318 318 318 319 320 320 321 321 321 322 323 324 318 307 307 316 322 321 314 312 309 307 305 305 301 303 303 301 302 302 304 304 304 303 303 304 306 309 309 308 308 310 314
319 318 318 318 319 319 320 320 320 320 320 321 323 323 311 300 316 315 312 312 312 311 308 308 305 307 303 303 302 303 303 303 304 304 304 302 303 303 306 310 309 307 307 309 311
319 318 317 317 318 319 319 319 320 320 320 321 324 317 306 304 317 314 312 311 312 311 308 309 309 307 306 302 304 303 300 302 302 303 302 303 300 301 306 306 306 307 308 309 310
319 318 318 318 318 318 318 319 319 320 320 321 323 313 302 312 318 312 312 310 312 312 311 310 311 308 306 306 303 300 300 296 302 302 303 302 296 304 306 306 305 307 308 309 309
319 319 318 318 318 318 318 319 319 320 320 321 312 308 300 315 311 314 311 308 309 310 309 309 309 306 304 301 298 300 294 296 299 302 301 301 299 305 305 304 304 306 307 308 309
320 319 319 319 318 318 319 319 319 319 317 314 310 302 303 302 310 311 310 309 307 307 306 306 304 301 301 298 291 295 295 296 296 300 299 299 299 303 306 305 304 306 308 308 308
317 319 320 319 319 319 319 313 309 308 307 304 300 299 301 308 311 309 309 307 307 305 300 302 298 295 298 300 299 297 296 295 298 299 297 298 298 301 304 305 305 305 306 307 308
314 316 317 320 320 319 319 314 309 309 306 310 307 303 305 309 302 307 308 304 303 298 300 298 295 300 300 300 298 297 295 295 298 299 296 297 297 301 303 303 305 305 306 307 308
312 314 317 320 319 319 317 312 317 314 306 307 307 307 305 306 304 304 306 305 300 297 297 294 297 300 298 297 295 296 295 295 295 297 298 296 295 298 302 304 305 306 307 307 308
312 312 313 318 314 317 315 317 318 312 300 302 301 304 304 306 302 305 308 304 299 296 297 297 300 297 296 294 296 292 298 297 295 293 289 296 288 296 299 300 303 305 306 307 308
308 310 311 315 314 312 314 317 318 312 287 301 298 307 303 303 301 300 306 302 298 297 297 295 295 295 294 295 298 295 297 296 295 294 293 293 289 294 299 298 300 303 306 308 309
307 308 310 315 317 316 317 317 314 294 284 295 299 298 298 299 298 300 301 304 301 298 298 297 298 298 297 296 298 298 297 296 296 294 286 292 291 292 296 298 301 304 305 307 308
306 307 308 309 310 317 317 311 290 284 298 295 294 297 297 296 296 297 296 295 295 290 291 295 295 297 298 294 296 296 293 286 285 286 285 292 290 293 298 300 302 302 304 306 307
304 306 308 307 314 315 312 301 284 293 296 297 297 296 293 296 295 295 295 294 297 296 292 290 288 294 297 296 294 293 293 288 282 284 287 289 286 292 301 303 303 303 304 305 306
304 305 305 309 309 313 302 288 290 293 298 296 296 293 293 294 295 294 294 295 298 297 291 291 289 296 297 298 297 293 289 296 289 287 285 288 293 298 300 299 301 302 303 304 306
301 300 299 309 311 309 296 290 293 298 298 298 292 296 292 293 292 292 293 297 295 298 299 294 288 293 294 296 297 294 297 288 288 283 281 286 288 290 297 298 301 301 302 304 306
300 293 300 306 311 300 289 291 295 299 299 296 294 293 294 293 295 293 293 296 297 296 299 296 292 289 293 291 291 291 290 291 291 289 283 283 287 298 298 299 300 302 303 304 305
297 287 302 309 294 295 290 294 296 297 300 298 298 296 294 294 293 294 292 295 299 298 293 297 293 288 290 296 297 296 292 292 286 285 288 286 287 300 300 300 301 301 303 304 305
292 292 301 302 287 290 292 292 295 293 295 296 294 296 297 294 290 295 295 300 299 297 295 296 290 285 288 293 293 290 293 293 293 290 287 284 287 299 301 300 301 301 303 304 305
292 285 292 295 296 290 289 288 289 295 294 296 295 297 295 293 295 292 293 297 299 297 297 297 291 289 286 290 294 289 291 293 292 286 287 288 290 296 298 299 301 302 303 304 305
292 287 291 284 287 290 289 288 287 286 293 294 292 293 292 289 290 290 294 295 296 296 295 293 286 290 292 293 293 292 292 292 290 291 287 290 291 295 298 299 301 304 304 303 303
287 288 291 289 290 287 287 286 285 287 289 287 288 290 292 288 289 287 292 292 290 294 293 291 285 287 284 289 289 287 290 293 293 292 292 292 292 300 301 302 302 303 303 302 303
295 294 291 287 286 286 285 286 286 289 290 291 290 289 288 290 293 294 294 293 292 289 288 289 287 284 280 287 287 283 288 291 293 295 294 289 295 300 299 300 301 302 303 303 303

GFSSW_sfc_thetae_066.txt.gz
Theta_e
322 321 321 322 322 322 322 322 322 322 323 324 324 326 326 327 324 322 313 316 320 324 320 312 311 311 312 310 309 307 298 294 297 297 298 302 300 301 301 302 301 306 302 308 319
321 321 321 321 321 321 321 322 322 322 322 323 324 325 325 325 320 314 319 326 326 324 313 308 306 308 305 307 306 301 297 298 301 300 298 301 300 301 298 299 299 301 304 309 320
320 320 320 320 320 321 320 321 321 322 322 323 323 324 325 322 314 311 323 327 327 320 313 311 308 306 302 304 303 302 297 299 300 302 302 301 298 301 298 296 300 301 303 309 317
319 319 318 318 318 319 320 321 321 321 321 322 323 324 323 320 300 313 323 324 325 315 312 309 305 302 300 298 303 296 300 300 303 303 301 299 301 298 299 300 303 302 306 309 315
319 318 318 318 318 319 320 320 321 321 321 321 323 324 319 308 308 315 321 319 313 312 308 306 302 301 298 299 300 296 298 300 302 301 299 301 298 298 299 302 303 304 305 305 312
319 318 318 318 318 319 319 320 320 321 321 321 323 323 312 300 316 315 312 312 312 309 306 306 303 304 300 299 298 300 300 299 301 301 300 298 298 298 300 303 302 303 301 303 306
319 318 317 317 317 318 319 319 319 320 320 321 323 317 306 305 316 313 312 311 311 310 307 308 307 304 302 299 302 300 295 297 298 300 298 299 295 296 300 301 300 300 301 302 304
319 318 318 318 318 318 318 319 319 320 320 321 323 314 303 314 316 312 312 310 311 311 309 309 308 306 303 302 300 296 294 290 297 299 298 296 289 299 299 299 299 300 299 301 303
319 318 318 318 318 318 319 320 320 320 320 321 313 308 300 315 311 313 310 308 308 309 307 308 308 303 301 295 292 293 287 289 294 299 298 296 292 298 299 297 296 298 299 300 302
319 319 318 318 318 318 319 320 320 318 319 315 310 301 302 303 310 311 309 309 307 306 305 304 301 297 295 292 286 288 288 291 289 295 294 293 293 298 300 299 298 299 299 300 301
317 319 320 319 319 320 319 315 309 307 308 304 301 299 302 308 311 309 309 306 305 303 296 299 293 290 293 295 295 292 291 290 291 295 293 293 293 295 298 297 296 297 298 299 301
314 316 318 320 320 320 318 313 308 309 305 311 308 304 306 308 302 306 308 301 301 295 298 294 290 297 298 298 295 292 290 289 293 295 292 292 292 295 296 297 298 298 298 299 300
312 313 315 320 319 318 317 311 317 314 304 306 308 308 304 305 303 303 304 302 297 295 295 292 294 298 297 294 293 291 290 290 290 293 292 289 288 292 297 299 299 299 301 300 300
310 311 312 317 316 317 315 318 318 316 297 300 301 304 304 305 301 305 306 302 297 294 295 293 297 295 293 293 293 289 294 294 292 288 283 290 281 289 293 294 297 298 298 299 300
307 308 310 315 315 313 314 318 317 311 284 300 299 307 303 302 300 300 304 301 295 294 294 291 293 292 292 293 295 291 295 293 291 288 287 286 283 287 291 290 293 296 298 299 300
306 307 308 314 316 316 317 317 313 294 283 294 299 297 297 299 298 299 299 301 300 296 295 293 296 295 294 295 295 296 293 292 290 288 280 287 285 284 288 290 292 295 296 299 302
304 305 306 309 309 317 317 310 290 285 299 294 293 297 296 295 296 296 294 293 292 288 288 292 292 294 296 291 294 293 289 280 279 279 279 286 283 287 292 295 292 294 296 296 302
304 305 308 308 313 315 312 297 283 291 294 298 297 296 293 296 295 295 293 291 295 293 289 288 285 292 295 293 290 290 289 281 276 277 279 283 281 286 293 294 295 295 297 297 296
304 304 304 309 310 312 302 286 289 293 298 295 295 291 291 294 293 292 291 292 295 295 289 288 288 293 294 294 294 290 286 291 284 277 277 283 287 293 294 293 294 296 296 296 298
300 299 298 309 310 308 296 290 293 298 298 298 291 295 290 291 290 290 290 293 293 296 297 291 285 290 291 293 293 291 293 284 284 274 273 280 282 285 290 293 294 293 295 297 299
299 292 300 306 310 300 289 291 294 298 299 295 293 293 293 292 291 290 291 293 295 293 295 293 290 286 289 288 288 288 286 287 288 284 278 275 281 290 291 294 294 294 297 297 298
296 285 301 308 294 295 289 294 296 296 300 297 297 295 292 293 292 292 291 294 296 295 290 293 291 282 286 291 292 290 288 289 281 280 281 281 284 294 293 293 294 294 297 299 298
291 290 301 302 286 288 292 292 294 294 295 295 294 295 295 292 289 292 293 298 297 296 293 294 287 278 283 288 289 286 289 290 289 284 282 277 283 293 292 294 296 295 297 298 300
292 283 291 294 293 289 288 288 288 295 294 294 294 296 293 291 294 291 292 296 297 296 297 298 290 285 282 286 291 286 289 292 290 284 283 284 287 292 294 295 297 297 296 297 298
292 285 289 282 285 288 289 289 287 286 293 293 291 292 291 288 289 289 292 293 295 296 295 294 285 288 289 290 291 289 289 290 289 290 285 287 288 292 295 295 296 297 298 298 299
287 286 289 286 287 285 287 285 285 288 289 287 288 290 291 288 289 286 290 290 290 294 292 292 284 285 280 287 287 283 285 287 289 290 290 291 290 296 298 299 298 298 299 299 299
294 294 290 286 284 284 284 285 285 288 289 291 290 288 287 290 291 292 292 292 292 289 289 289 285 283 275 282 282 280 283 285 287 289 290 286 292 297 296 297 298 298 299 300 301

GFSSW_sfc_thetae_069.txt.gz
Theta_e
322 321 321 322 322 322 322 322 322 322 323 323 324 325 325 325 325 320 313 315 319 325 321 309 307 305 306 304 303 299 292 289 292 293 294 298 296 298 299 300 299 302 302 307 319
321 321 321 321 321 321 321 321 321 322 322 323 323 324 325 324 319 313 320 327 327 324 309 304 301 303 299 301 301 295 290 292 295 294 295 297 297 298 296 296 296 298 301 313 322
321 320 320 320 320 320 321 321 321 321 322 322 323 324 324 321 311 309 325 326 326 321 310 307 304 302 297 299 297 296 293 295 296 299 298 298 295 298 296 293 297 299 301 315 318
320 319 318 318 318 319 320 320 321 321 321 322 323 324 323 317 295 310 324 325 325 311 309 305 300 296 294 294 298 292 296 297 300 301 298 296 298 295 296 297 300 301 304 314 315
319 318 318 317 318 319 320 320 320 321 321 321 323 323 316 305 306 312 320 318 310 308 304 302 298 296 293 295 296 292 294 297 299 298 296 298 295 296 296 299 299 302 305 313 315
319 318 318 317 318 318 319 319 319 320 320 321 323 323 307 298 314 311 309 309 308 306 302 301 299 299 296 295 293 296 296 296 298 297 297 295 294 295 298 299 298 300 301 306 311
319 318 317 317 317 318 318 319 319 319 320 321 322 317 303 300 312 309 309 308 308 307 303 304 302 299 297 295 299 297 291 293 295 296 295 296 291 294 297 298 298 298 297 300 305
319 318 317 318 318 318 318 319 320 320 320 321 322 310 299 311 311 309 308 306 307 307 306 305 304 303 300 299 296 292 291 286 293 296 296 293 285 294 297 296 297 296 295 297 299
318 318 318 318 318 318 319 320 319 320 320 321 309 302 296 313 309 310 306 305 305 305 303 306 304 298 297 291 289 289 283 285 290 296 295 292 288 296 297 295 294 295 296 297 297
318 318 318 318 318 318 320 320 320 317 318 316 308 294 298 300 308 308 305 306 303 302 301 300 297 293 291 288 283 284 285 287 286 293 293 291 290 294 297 296 296 295 296 296 297
318 319 319 319 319 320 316 312 304 301 304 298 298 296 302 305 309 306 306 303 302 299 292 295 289 286 289 290 291 289 287 285 288 293 291 290 290 293 295 293 292 294 295 296 297
314 316 318 320 320 320 314 308 304 305 300 305 304 300 304 306 300 303 304 298 297 291 294 290 287 293 294 294 292 289 286 285 289 293 290 290 290 293 293 295 296 296 293 295 295
312 313 314 320 320 316 313 308 314 310 299 303 305 304 301 303 299 300 302 299 294 292 292 288 291 295 295 291 291 288 286 286 287 289 289 287 285 288 293 294 295 295 296 296 297
309 310 312 316 314 314 311 315 315 311 293 297 300 302 302 302 298 303 302 299 293 292 292 291 294 293 291 290 291 286 290 291 289 286 281 288 279 286 291 293 292 294 294 295 296
306 308 310 314 311 310 312 315 313 307 279 297 298 306 301 299 298 298 301 298 292 292 291 289 290 290 289 291 292 289 292 290 289 285 284 283 280 285 287 287 291 292 293 294 296
305 306 309 314 315 315 315 314 310 290 278 292 296 295 296 296 296 297 297 298 297 293 291 290 293 293 292 292 292 294 292 291 288 285 278 284 283 281 285 288 289 291 293 295 296
305 305 305 308 308 316 315 308 289 281 294 291 291 294 294 293 293 294 292 290 289 286 285 289 290 292 294 290 293 291 286 278 278 277 277 283 281 284 289 291 291 292 292 293 296
305 305 307 308 311 315 311 296 283 289 291 295 294 294 291 294 292 293 291 288 291 290 286 285 283 290 293 291 289 288 286 279 274 276 278 282 280 286 291 293 292 293 294 293 294
305 299 300 308 310 313 301 285 287 290 296 293 292 289 289 291 291 290 289 288 291 292 287 285 286 290 292 293 293 287 285 289 282 273 276 280 284 289 292 292 294 293 294 295 297
295 295 295 308 310 307 295 288 290 297 298 297 289 291 286 289 288 288 288 291 292 294 294 290 283 288 289 291 290 289 291 283 282 273 272 277 280 284 288 290 293 294 294 294 296
293 287 297 302 308 300 288 289 294 298 298 296 293 292 291 290 290 289 290 290 293 292 296 292 288 284 288 286 286 286 285 286 286 282 276 274 280 287 289 292 291 293 295 295 297
290 281 297 303 294 294 289 293 295 295 298 296 296 294 292 293 290 291 290 290 294 294 290 293 289 280 284 288 289 288 286 287 280 279 280 279 283 291 291 292 293 293 295 295 296
286 286 297 301 286 288 291 292 294 293 294 295 293 294 294 292 289 292 293 296 296 294 292 293 285 275 281 286 288 285 287 288 287 282 279 276 283 292 292 293 294 293 294 294 295
287 280 286 291 291 286 287 287 288 293 293 294 293 294 291 289 292 290 292 295 295 295 297 296 288 282 278 284 289 285 287 289 288 278 281 283 285 291 291 293 295 294 294 294 296
289 281 285 278 282 287 286 287 286 286 291 293 290 290 290 286 287 288 291 292 293 296 293 293 286 287 287 288 289 290 289 289 288 288 284 286 287 291 294 295 296 294 296 296 296
287 282 285 283 284 284 285 283 285 287 289 287 287 289 290 288 288 285 289 290 288 291 290 291 282 286 283 287 288 284 286 286 287 288 289 289 288 295 296 297 296 296 296 297 298
289 293 288 283 282 281 281 283 284 287 288 291 290 287 286 288 291 291 291 291 290 289 287 287 284 282 271 281 281 275 282 284 286 287 288 284 289 293 293 294 294 294 294 293 294

GFSSW_sfc_thetae_072.txt.gz
Theta_e
320 322 322 322 322 322 322 322 322 322 322 322 323 324 324 324 324 318 310 314 318 326 321 307 304 304 305 304 302 298 292 288 289 291 293 296 296 296 298 298 298 300 303 306 319
322 322 322 322 322 322 321 321 321 322 322 322 323 323 324 323 316 312 320 327 326 324 307 302 299 302 299 300 299 294 290 291 293 292 293 296 295 297 295 295 299 299 305 313 320
321 321 321 321 321 320 321 320 321 321 321 321 322 323 323 320 308 307 323 326 326 319 308 306 302 301 296 297 296 294 291 294 295 296 297 296 293 295 294 292 297 299 303 314 318
321 320 319 319 319 319 320 320 320 320 320 321 322 323 322 315 291 309 321 324 324 310 307 302 299 296 293 293 297 291 294 295 298 298 296 295 296 293 294 296 299 299 308 316 319
320 319 318 318 318 319 319 319 320 320 320 321 322 323 315 302 304 311 320 318 308 307 303 300 297 295 292 293 295 292 292 296 297 296 295 296 293 294 294 297 297 299 310 315 318
319 318 318 317 317 318 318 319 319 319 320 320 323 322 306 295 312 310 308 308 307 304 301 300 298 298 295 294 292 294 294 294 296 295 295 293 292 293 295 296 296 299 306 312 315
319 318 318 317 317 318 318 318 319 319 319 320 322 315 301 299 311 308 308 307 306 305 301 302 301 297 296 294 297 295 290 291 293 294 293 294 288 292 294 295 295 296 298 305 310
319 318 317 317 318 318 318 318 320 320 320 320 321 308 297 309 310 307 307 305 306 306 304 303 303 301 297 297 295 290 289 284 290 294 294 290 285 290 294 291 295 294 293 296 301
318 317 317 317 317 318 318 320 320 320 320 321 309 300 296 313 306 308 305 303 304 303 303 306 303 296 296 290 288 288 282 284 288 294 293 290 286 292 294 294 293 293 294 294 296
318 318 318 318 318 318 319 321 320 317 317 315 306 294 298 299 307 306 304 305 301 300 299 299 295 291 290 287 281 284 285 285 284 291 291 288 289 293 295 293 294 294 294 294 295
318 318 318 318 319 320 316 308 301 300 302 295 296 295 300 305 308 304 305 302 301 297 291 294 288 286 289 289 288 288 286 285 287 291 290 289 289 291 294 292 291 292 292 293 295
315 316 318 319 320 320 313 305 300 302 297 303 299 300 304 305 300 302 303 297 295 290 292 290 286 290 292 291 289 287 285 284 287 291 289 287 289 291 292 293 293 293 292 293 293
311 313 316 319 320 315 310 307 313 308 298 302 304 300 299 303 297 299 301 297 293 291 290 287 290 293 293 290 289 287 285 285 285 287 286 286 284 286 290 291 293 294 294 293 294
308 310 313 316 313 312 308 314 313 310 290 295 299 301 301 300 296 302 301 298 292 291 291 290 293 291 289 289 289 285 289 288 287 284 280 285 278 284 288 290 291 292 289 291 293
306 308 311 317 311 309 311 314 311 304 276 294 298 304 300 297 297 297 300 297 291 291 291 288 289 289 288 289 290 287 290 288 287 284 282 282 280 283 285 288 289 291 291 294 295
304 306 309 313 314 313 314 312 308 288 277 291 295 295 295 295 295 296 296 297 295 292 289 289 292 291 291 291 290 292 290 288 286 283 277 282 280 280 283 286 288 291 293 293 295
305 306 306 309 308 315 314 307 289 276 290 289 291 294 294 291 292 293 291 290 288 284 284 288 288 290 292 289 291 289 284 277 276 276 276 280 279 282 288 289 289 291 292 293 293
305 306 307 307 310 314 310 297 282 286 289 293 293 292 291 293 291 291 289 287 290 288 284 284 282 289 292 290 288 286 284 278 273 274 276 281 279 285 289 291 292 291 293 293 295
304 299 301 308 309 311 298 287 285 290 294 292 292 289 288 291 291 290 288 288 291 291 287 284 284 289 290 291 292 287 283 287 281 271 275 279 282 289 291 289 291 293 294 295 296
294 294 296 308 309 307 293 286 290 296 297 294 289 290 286 287 288 288 287 290 291 293 293 290 283 287 288 291 290 288 290 283 281 272 271 277 278 282 287 290 292 292 293 294 296
292 286 296 303 308 300 287 288 293 298 299 295 291 291 289 287 288 288 288 288 292 291 293 290 287 283 287 286 286 286 284 285 285 281 275 272 279 286 288 290 290 291 293 293 294
289 281 296 302 294 295 289 292 296 296 297 296 296 295 293 292 289 289 288 289 294 293 290 292 287 280 283 286 288 286 286 286 280 278 278 279 280 290 290 290 292 292 293 293 293
285 285 296 301 288 289 292 293 294 294 294 294 293 295 296 293 289 292 292 296 295 294 291 293 286 277 282 286 287 284 286 286 285 281 278 276 280 289 290 292 293 293 293 293 294
285 280 286 291 292 288 288 289 289 294 294 295 293 295 292 290 293 291 291 296 296 296 297 296 287 283 280 283 287 284 285 288 286 278 281 282 285 288 291 293 295 295 294 293 294
286 281 284 278 284 286 287 289 287 287 292 292 289 291 290 286 288 288 291 292 294 295 294 293 282 285 287 287 288 287 286 287 286 286 282 284 286 289 292 293 294 293 294 294 294
286 281 283 282 283 286 286 284 286 288 289 287 287 290 290 288 288 286 290 290 289 292 291 291 283 285 281 286 287 283 285 286 286 287 287 287 287 293 293 292 292 292 292 292 292
287 293 286 282 281 283 283 283 284 288 288 291 290 288 287 289 291 291 290 291 291 289 287 287 284 279 273 281 280 274 281 284 284 285 287 283 288 290 289 290 290 290 290 291 292

GFSSW_sfc_thetae_075.txt.gz
Theta_e
321 322 323 323 323 323 323 323 322 322 323 323 323 323 324 324 324 317 306 311 315 326 321 304 303 302 302 301 299 296 291 289 289 290 291 294 293 294 296 297 298 299 305 307 322
321 322 323 323 323 322 322 322 322 321 322 322 322 322 323 323 315 309 320 326 326 324 305 301 300 301 298 298 297 294 291 292 293 292 292 295 293 296 296 294 298 299 305 311 322
322 322 322 322 322 321 321 321 321 321 321 321 321 323 323 319 306 305 323 326 326 319 307 304 301 299 296 296 295 293 292 293 294 295 295 295 292 294 294 294 296 298 303 313 317
322 321 321 321 321 321 321 320 320 320 320 321 321 322 322 315 290 308 322 324 324 308 305 302 298 295 294 294 296 291 294 294 297 296 295 294 294 292 293 295 296 299 306 314 318
321 320 319 319 319 320 320 320 320 320 320 321 322 322 314 302 303 310 320 317 307 305 302 299 296 294 292 293 293 290 292 295 296 295 293 295 292 292 293 296 296 297 311 314 319
320 319 319 318 318 319 319 318 319 319 319 320 322 322 305 294 312 310 307 307 306 303 300 299 297 296 294 292 292 292 293 294 295 294 294 292 290 295 292 294 293 297 306 312 315
319 318 318 318 318 318 318 318 318 319 320 320 321 314 300 298 310 307 307 306 305 303 300 301 300 295 295 294 295 294 290 290 292 293 292 293 287 291 293 292 293 294 296 307 312
319 318 318 317 317 318 318 318 319 320 320 320 321 306 295 308 309 306 306 304 304 305 303 302 302 300 295 295 293 289 287 283 288 293 292 289 284 289 292 292 292 292 292 295 303
318 317 317 317 317 317 318 319 320 320 320 320 308 298 294 312 304 306 304 303 303 302 302 305 301 295 294 289 285 286 280 282 287 293 292 289 286 290 293 292 292 291 292 293 294
318 317 317 318 318 318 319 320 320 317 316 314 305 292 298 299 306 305 303 304 300 300 299 298 294 290 288 286 280 282 282 283 283 289 290 287 289 292 293 292 292 292 292 292 293
318 318 318 318 318 319 315 307 299 298 302 295 295 295 298 304 307 302 303 301 300 295 290 292 288 285 288 287 286 286 285 284 286 290 289 288 288 291 293 291 291 291 291 292 293
318 318 319 319 319 320 312 302 297 299 294 303 298 300 303 304 299 300 303 296 294 289 291 289 286 290 291 290 289 287 284 284 286 290 289 287 288 290 291 292 292 292 292 291 291
312 314 317 319 319 314 309 305 312 307 296 300 303 297 299 302 296 298 300 296 291 290 288 286 288 292 291 288 288 285 284 284 285 286 285 284 283 285 288 289 292 291 291 291 292
308 310 313 317 312 311 307 312 312 308 288 293 298 302 300 300 296 301 300 296 291 290 290 288 291 290 288 288 288 284 289 288 286 283 279 283 277 283 286 288 289 290 288 290 292
307 307 310 316 310 308 310 312 310 300 275 292 297 303 299 294 295 296 300 296 291 290 290 287 289 288 287 288 289 287 289 286 285 283 281 281 279 283 284 285 287 290 291 291 292
306 307 309 313 313 313 313 311 306 287 275 291 295 294 294 294 294 296 296 297 295 291 289 288 291 290 289 290 289 291 288 286 284 281 276 280 278 279 282 284 286 288 291 293 293
305 306 308 310 308 313 313 306 287 274 288 288 290 293 292 290 291 292 291 289 287 284 283 286 287 289 291 288 290 286 283 277 276 275 275 279 278 282 284 287 287 289 292 293 294
306 305 306 309 311 312 309 296 281 284 287 292 292 293 290 291 290 290 288 286 288 286 283 282 281 289 291 289 287 285 283 278 272 272 275 280 278 283 288 289 289 292 292 293 293
303 299 302 308 310 311 302 287 285 287 293 291 291 288 288 291 290 289 287 286 289 289 284 282 282 288 289 290 290 286 282 285 279 269 274 278 281 287 288 289 291 292 292 292 293
296 295 297 306 309 307 295 286 290 294 295 293 288 290 285 288 288 288 287 290 290 292 291 288 283 286 288 290 288 287 289 282 279 271 270 275 277 281 286 288 290 290 291 292 294
293 287 295 304 308 299 285 287 291 296 296 293 290 289 287 286 287 286 288 289 291 291 292 289 287 283 287 285 285 285 284 284 284 280 275 272 278 284 288 290 290 291 292 292 293
289 280 295 303 294 295 288 292 296 296 298 296 295 294 289 288 287 287 286 287 293 292 289 290 286 281 283 286 287 285 285 285 280 277 278 278 279 289 290 290 291 291 292 292 292
285 284 295 301 287 288 292 293 295 294 294 294 293 294 295 292 288 291 291 294 295 292 291 291 285 278 283 284 286 283 285 285 284 281 276 276 279 289 289 291 292 292 292 291 293
286 280 285 291 292 289 289 290 290 295 295 296 294 295 292 291 293 290 291 295 295 295 297 295 287 284 281 282 286 284 287 287 285 278 279 280 282 285 287 290 292 291 291 292 293
285 282 284 276 284 287 290 290 288 287 293 294 291 292 290 286 287 289 292 293 294 295 294 292 285 287 287 288 288 287 286 287 285 283 281 283 283 287 291 291 290 291 291 291 291
285 281 283 281 282 286 287 285 287 288 289 288 287 291 291 287 289 287 290 290 290 291 292 292 284 286 283 285 286 284 285 284 285 285 286 286 286 292 289 291 289 290 290 290 290
286 292 285 281 281 283 283 284 285 288 289 291 291 289 288 290 291 291 293 293 293 290 288 287 283 281 278 281 282 278 282 284 284 286 286 282 286 288 288 289 288 289 289 289 290

GFSSW_sfc_thetae_078.txt.gz
Theta_e
321 322 323 324 324 324 325 325 324 324 324 325 324 324 324 324 323 316 306 310 313 323 319 304 302 301 303 299 297 295 291 287 288 289 290 293 293 293 295 296 297 299 303 305 321
320 322 323 323 323 324 323 323 323 322 322 323 323 323 323 323 314 309 320 324 324 322 304 301 299 300 298 297 296 293 290 291 292 290 292 294 293 295 295 296 296 297 302 308 320
321 322 322 323 323 323 322 322 322 322 322 322 322 322 322 319 306 304 323 323 324 318 305 302 301 299 296 295 294 291 291 292 293 293 296 295 292 293 294 292 296 297 300 313 316
321 322 322 322 322 322 321 321 321 320 320 320 322 322 322 314 290 307 321 323 322 307 304 300 298 294 293 293 295 291 292 293 296 296 295 295 294 292 293 296 294 297 304 314 317
321 320 321 321 321 321 321 320 320 320 320 320 322 322 315 302 302 308 319 317 306 305 301 298 296 294 293 292 293 290 291 294 295 294 294 294 292 292 293 294 294 296 309 314 319
320 320 320 319 319 320 320 320 319 319 319 319 321 321 306 294 310 308 307 306 305 301 300 298 297 295 292 292 292 291 292 292 293 292 293 291 290 292 291 293 293 297 303 310 315
319 319 319 318 318 319 319 319 318 318 319 319 321 315 300 297 309 306 306 304 304 302 299 299 299 295 294 293 294 292 289 289 290 291 290 291 287 290 292 291 293 293 294 304 310
319 318 318 318 318 318 318 318 318 319 320 320 321 307 294 307 308 305 304 302 304 304 302 302 301 298 295 294 292 288 286 283 286 291 291 288 284 287 291 292 292 291 291 293 299
318 317 318 317 317 318 318 318 319 320 320 320 307 298 293 312 303 304 303 302 302 301 302 304 300 294 293 288 285 285 280 281 284 291 291 287 284 289 291 292 291 291 291 292 293
317 317 317 317 317 317 318 319 319 317 315 313 304 292 298 300 305 304 302 303 299 299 298 297 293 289 287 285 280 282 281 282 282 287 288 286 288 291 293 291 292 291 291 291 292
317 317 317 318 318 318 315 309 299 298 301 294 294 293 297 303 305 301 303 301 298 295 289 292 288 285 289 287 284 285 283 282 284 289 288 287 287 290 292 290 291 291 290 291 292
318 318 318 318 319 319 311 298 297 299 293 302 297 300 302 303 297 299 302 295 293 288 290 288 284 289 290 289 288 286 284 283 285 289 288 286 287 290 290 291 290 291 290 290 290
315 317 318 319 319 315 307 306 311 307 292 298 300 298 299 300 295 297 299 295 291 289 287 286 288 291 290 287 287 284 284 283 282 284 284 283 283 284 287 288 289 289 288 289 289
309 312 316 318 314 310 306 312 312 307 288 293 298 300 299 299 294 300 299 296 291 289 288 286 290 289 288 286 287 283 288 286 285 283 279 283 277 283 285 286 288 289 288 290 291
308 309 311 318 309 307 309 312 309 297 276 292 297 303 298 294 294 295 299 295 290 289 289 286 288 287 286 288 289 286 288 286 284 282 280 281 279 282 282 283 286 289 291 292 292
306 308 310 314 314 311 312 311 304 286 274 290 294 294 293 294 293 295 295 296 294 290 288 287 290 289 288 289 288 289 286 285 283 280 276 279 278 279 281 283 285 289 291 292 293
306 306 309 311 309 313 312 305 286 275 288 288 290 292 291 290 291 291 291 289 287 283 282 286 286 289 290 287 288 285 283 277 275 274 274 278 278 280 283 286 287 288 290 290 292
304 305 306 309 310 312 307 295 276 283 285 291 292 292 288 290 289 290 288 287 288 286 282 282 280 288 290 288 286 283 283 277 272 272 275 280 278 282 285 286 290 290 289 291 292
303 300 302 308 310 311 300 287 284 285 291 290 291 288 288 290 289 288 285 285 288 288 284 281 281 288 288 289 291 284 281 284 278 268 274 277 279 284 287 289 289 290 292 292 293
297 296 298 304 309 307 295 288 288 293 294 293 287 290 285 287 287 286 286 289 288 291 290 287 282 286 287 289 288 286 287 281 278 270 269 274 277 279 285 287 288 290 290 291 292
293 291 297 302 307 299 287 289 290 295 295 292 290 288 288 287 288 286 287 288 290 290 290 288 287 283 287 285 284 285 283 282 283 280 274 271 277 284 288 288 288 289 291 290 291
289 282 297 302 293 289 285 292 295 295 296 295 295 293 289 288 286 287 287 288 292 291 288 289 286 280 283 286 286 285 284 284 279 276 277 278 279 289 290 290 290 289 290 290 292
284 285 295 299 287 287 292 293 295 294 294 294 292 294 294 289 286 288 288 292 293 291 289 290 284 275 280 284 284 283 283 284 283 281 276 277 279 288 288 289 289 290 290 292 292
285 281 286 292 292 290 290 290 290 296 295 296 294 294 292 290 292 290 290 293 293 293 296 294 285 284 281 283 284 282 285 284 285 280 280 280 280 284 287 288 289 290 290 290 291
285 282 283 280 285 288 291 291 289 288 294 295 291 292 291 288 289 289 291 292 293 295 293 291 281 284 284 285 285 285 285 285 283 286 282 283 282 288 288 289 289 290 290 289 290
283 282 283 282 282 286 289 287 288 289 291 290 289 292 291 288 289 287 290 290 289 291 291 291 285 286 284 286 286 283 284 285 285 285 285 285 285 291 291 291 289 289 289 288 288
286 288 284 281 281 284 284 286 287 289 290 292 292 291 290 290 294 293 295 294 294 290 288 288 285 284 280 283 284 282 283 284 284 285 286 283 287 289 289 289 288 289 288 288 288

GFSSW_sfc_thetae_081.txt.gz
Theta_e
323 323 322 324 324 325 326 327 327 328 327 327 327 325 324 324 324 318 306 310 315 323 318 305 304 304 304 302 301 299 293 290 292 292 294 296 297 297 299 299 301 307 306 311 324
322 321 322 323 324 325 325 326 326 325 325 325 324 324 324 323 315 308 318 324 324 322 304 302 300 302 300 300 299 296 292 293 294 294 294 296 296 297 297 297 299 301 305 316 324
322 321 322 323 324 324 324 324 324 323 323 323 323 323 322 320 307 306 326 325 323 317 305 302 302 301 298 298 297 295 293 294 294 295 296 296 295 297 296 295 299 299 302 316 321
321 321 322 322 323 323 323 323 322 322 322 322 322 322 321 314 291 306 323 324 321 308 304 301 299 296 295 295 297 293 294 294 297 296 296 295 296 295 296 298 298 299 306 317 319
320 320 321 322 322 322 322 322 321 321 321 321 322 321 315 304 304 308 320 318 307 305 301 299 297 296 293 294 295 293 293 295 296 295 295 296 294 295 295 297 297 299 310 317 321
319 320 320 321 321 321 321 321 321 320 320 320 322 321 307 295 309 308 306 306 305 302 300 298 297 297 294 293 293 293 294 294 295 294 295 293 292 294 294 295 295 299 304 313 318
319 319 319 319 320 320 320 320 320 320 319 320 321 314 302 298 308 305 306 304 304 302 300 300 299 297 295 294 295 293 291 291 292 293 293 293 289 292 293 293 294 295 298 305 313
319 318 318 319 319 319 319 319 319 319 320 320 321 308 295 307 307 305 304 303 304 304 301 302 301 298 296 295 292 289 288 286 289 292 292 290 286 289 293 292 293 294 294 295 299
318 317 318 318 318 318 319 319 319 320 320 320 307 298 292 311 302 304 304 302 301 301 302 303 299 295 293 289 286 286 283 283 285 292 291 289 287 291 293 293 293 294 294 294 294
317 317 317 317 317 317 318 319 319 317 314 313 303 293 298 300 304 303 302 302 299 299 299 297 292 290 288 286 281 283 283 283 282 288 290 288 289 291 293 293 293 293 293 293 294
317 317 317 317 317 318 316 309 301 298 300 294 294 292 297 303 304 300 302 300 297 295 290 291 288 286 288 287 284 285 283 283 285 290 289 288 288 291 292 292 292 292 292 292 293
317 317 317 318 318 319 307 298 297 299 292 301 297 299 302 303 297 298 301 295 293 288 290 288 285 289 290 288 287 286 284 284 286 289 288 286 288 290 290 291 291 290 291 291 291
317 317 317 318 319 315 306 305 310 306 292 296 298 298 300 300 296 297 298 294 290 288 287 286 288 290 289 287 287 284 285 284 284 285 285 283 284 285 288 289 290 290 290 292 292
312 316 317 318 312 311 306 310 311 306 287 291 297 299 300 298 294 300 298 295 290 287 287 287 289 288 286 285 286 284 287 287 286 283 281 284 278 283 285 287 289 290 291 292 293
309 310 313 318 308 307 308 311 309 296 276 292 296 302 298 293 294 295 298 294 289 288 288 286 287 287 285 286 288 285 288 286 284 283 282 282 280 282 283 285 288 290 292 293 294
307 308 311 315 314 310 311 309 303 285 274 289 294 293 292 293 293 294 294 295 293 289 288 287 289 288 288 288 288 289 286 284 283 281 277 281 279 280 282 285 288 290 292 293 294
305 307 310 312 309 314 311 303 285 275 287 287 289 291 290 289 290 290 289 288 286 283 282 285 286 288 290 287 289 285 283 278 277 275 275 279 278 281 284 287 290 290 291 292 293
304 305 307 309 311 312 306 294 275 282 284 291 291 290 287 290 289 289 288 286 287 286 283 282 280 288 290 288 286 284 283 278 273 272 275 279 278 282 286 288 290 291 292 292 292
303 301 304 306 310 311 300 286 283 284 290 290 291 287 287 289 289 287 286 287 288 287 283 281 281 288 289 289 290 285 282 284 278 268 274 278 280 285 288 289 290 291 291 292 292
297 297 299 303 308 307 296 287 287 292 293 292 287 289 284 286 286 285 286 288 288 290 289 287 281 286 287 289 288 285 287 281 278 270 270 275 277 280 285 287 289 290 290 291 292
294 293 298 302 307 300 289 287 290 295 295 292 289 288 287 287 286 286 286 287 289 289 291 288 287 283 287 285 284 284 283 282 282 279 273 271 277 283 288 288 288 289 290 290 292
289 287 297 302 291 287 287 292 295 294 296 294 294 291 289 288 286 287 286 287 292 291 288 289 286 282 283 286 287 285 284 284 279 276 276 277 279 288 289 289 290 290 290 291 292
285 285 295 299 284 285 288 292 294 293 293 293 292 294 293 289 286 288 288 292 293 291 289 290 284 276 281 284 285 283 284 283 282 281 276 275 278 288 288 289 290 290 291 291 292
285 281 286 293 290 289 288 289 290 296 295 295 293 294 292 290 292 288 288 291 292 292 296 294 284 283 280 281 284 282 283 283 284 280 279 280 281 283 286 288 289 290 291 291 291
285 281 283 282 285 286 290 290 288 289 295 295 292 292 291 287 289 289 291 290 291 293 291 290 282 283 284 284 284 284 284 283 283 285 282 283 282 288 288 289 290 291 290 289 289
282 282 284 282 283 286 288 286 288 289 292 290 289 292 291 289 289 288 290 289 289 290 289 290 284 284 283 286 285 283 285 285 286 283 284 282 283 289 291 290 289 289 289 288 288
286 288 285 282 282 283 285 287 288 291 291 294 293 291 290 291 293 294 295 294 293 289 289 288 286 282 276 284 283 282 284 285 285 285 286 283 287 288 288 289 289 288 288 288 287

GFSSW_sfc_thetae_084.txt.gz
Theta_e
324 324 324 325 325 326 327 328 329 329 329 328 328 326 328 327 325 319 308 315 317 324 318 309 310 310 311 308 307 307 303 299 299 299 301 304 304 304 306 307 310 314 311 322 332
323 324 324 324 324 325 327 327 327 328 328 328 328 327 326 325 315 309 320 327 327 325 309 307 307 308 307 305 306 306 302 302 304 303 303 304 305 305 304 304 305 309 312 326 331
323 323 323 324 324 325 326 326 326 326 326 326 326 325 324 322 306 306 327 327 328 322 310 309 307 306 305 306 304 303 301 302 301 302 304 304 303 305 304 302 306 306 309 323 329
322 321 322 324 324 325 325 325 324 324 324 325 324 324 322 316 293 310 327 329 327 313 308 306 305 303 303 301 303 300 300 301 302 302 302 303 304 303 304 305 304 307 311 322 327
321 320 321 322 324 324 324 323 323 323 323 324 323 323 316 306 306 312 323 324 314 309 306 305 303 302 301 302 302 300 300 301 301 301 302 302 301 302 302 305 304 305 311 318 325
320 319 320 321 322 323 323 322 322 322 322 323 323 322 311 297 312 312 312 310 309 306 306 305 305 304 300 300 301 300 301 300 300 300 300 300 299 300 301 302 303 304 309 316 322
319 318 319 320 321 322 322 322 322 322 321 321 323 316 306 303 311 311 309 309 309 308 305 305 305 305 302 299 300 300 298 299 299 299 299 300 296 298 300 300 301 303 306 311 320
319 318 319 319 320 321 321 321 321 321 321 322 323 314 301 311 313 308 309 307 309 308 307 306 307 303 302 301 298 296 298 294 295 298 298 297 295 296 300 300 301 301 303 304 310
318 318 318 319 319 320 320 319 319 320 320 322 312 305 298 314 305 308 309 306 306 306 307 306 306 300 299 298 295 294 292 292 291 297 297 296 295 297 300 301 301 303 303 302 304
318 317 318 318 318 318 319 319 319 319 317 315 305 300 302 303 307 306 308 307 304 305 304 303 301 299 296 295 288 290 290 289 291 295 296 295 296 298 300 300 302 303 303 303 303
317 317 318 318 317 318 318 314 305 303 307 299 299 298 299 306 307 304 306 304 304 303 297 297 296 293 295 296 292 294 292 291 291 295 295 295 296 298 300 299 301 301 300 300 301
317 317 317 317 318 319 316 304 302 303 295 303 299 302 305 306 299 302 306 301 299 294 296 295 292 296 295 293 292 293 291 290 293 294 294 293 295 298 295 296 296 297 298 299 300
317 317 317 317 318 315 311 307 313 309 295 298 300 300 303 304 298 300 302 299 297 294 294 292 292 295 293 292 292 291 291 290 291 291 292 291 292 292 294 296 298 298 299 300 300
316 316 316 317 312 312 308 314 315 310 290 291 298 300 302 301 297 303 302 300 295 293 293 293 292 293 292 292 293 289 293 292 291 291 287 290 287 291 292 295 297 299 300 301 302
314 316 316 317 312 307 311 316 313 302 280 294 297 304 300 297 298 299 303 299 293 292 294 291 290 291 291 292 293 290 293 293 291 291 290 289 288 290 291 293 295 297 299 300 301
309 311 315 315 315 313 315 314 307 289 280 290 296 294 295 296 296 298 299 300 298 294 294 292 294 294 293 292 293 293 292 291 291 290 284 288 288 289 290 293 294 297 298 299 300
307 310 313 315 309 315 314 309 292 283 292 289 290 293 294 292 293 295 294 293 291 288 288 291 291 294 295 292 293 292 292 284 283 283 283 284 284 290 291 295 298 297 298 299 301
305 309 309 311 315 314 311 299 283 288 287 294 293 292 289 292 291 292 292 291 293 291 288 286 284 291 294 293 291 291 291 286 280 279 282 283 283 289 292 294 298 299 298 299 300
304 303 306 305 310 313 303 287 286 288 293 292 292 288 288 291 292 292 292 291 293 293 288 286 285 292 292 293 294 290 287 290 283 277 283 286 288 291 292 294 296 297 298 299 300
298 300 300 304 306 308 298 289 291 292 296 295 288 291 286 289 289 290 289 293 292 293 294 290 284 289 291 293 293 291 292 286 286 280 280 282 284 289 289 292 295 295 297 298 299
296 294 298 303 305 301 289 291 293 297 297 294 291 290 290 288 290 288 289 291 294 292 294 292 291 287 290 289 289 288 287 287 288 286 283 280 285 292 293 295 295 297 298 298 298
292 286 298 301 293 296 291 295 295 296 298 297 296 293 290 290 289 289 288 291 294 294 290 293 290 286 287 290 291 290 289 289 286 281 282 283 287 292 296 298 297 296 296 299 299
287 288 297 300 284 287 291 294 296 295 295 295 294 295 294 291 287 290 291 295 295 293 291 293 289 283 284 288 289 287 288 289 288 287 283 284 287 292 296 295 296 296 297 297 297
288 284 289 291 287 287 289 290 291 297 296 296 295 296 293 291 294 289 290 294 295 294 296 296 288 288 283 286 290 286 286 288 289 286 286 286 287 290 292 293 295 296 297 297 297
288 284 286 285 286 286 289 290 290 291 296 297 293 294 293 289 291 290 292 292 294 295 294 293 287 288 288 289 289 289 288 287 287 289 286 288 287 291 293 294 295 297 296 294 294
286 285 287 283 284 288 286 286 288 292 293 292 292 294 294 291 293 289 292 292 292 293 293 293 286 287 284 287 288 286 289 289 289 290 290 289 288 295 297 297 294 295 294 294 293
290 291 288 284 283 286 287 287 287 291 292 295 295 294 292 294 296 297 297 296 295 293 291 291 287 285 284 286 286 284 288 288 289 291 291 287 292 293 294 293 295 295 294 293 292

GFSSW_sfc_thetae_087.txt.gz
Theta_e
325 324 324 325 326 327 328 328 327 326 326 322 320 320 318 324 326 318 313 315 318 327 322 312 311 311 312 310 310 311 303 300 301 301 303 307 306 308 310 309 312 314 314 322 332
324 324 324 324 325 326 327 328 328 328 327 326 323 322 322 325 318 312 322 326 328 327 310 307 308 310 307 309 308 306 303 303 306 306 304 307 307 307 306 307 307 311 319 329 331
323 323 323 324 324 325 326 327 327 327 328 327 327 325 324 322 308 307 325 327 329 325 314 311 310 309 306 307 306 307 303 305 304 305 308 307 306 308 306 304 307 307 313 326 328
323 323 323 323 323 324 325 325 325 326 327 327 326 325 324 316 294 310 326 330 329 319 312 308 307 304 304 302 306 302 303 305 304 304 306 305 307 305 307 306 309 311 314 323 325
322 322 321 322 323 323 324 325 325 325 325 325 325 324 317 305 304 314 326 329 320 314 308 306 304 304 300 303 304 303 303 304 304 303 305 306 304 304 305 308 308 308 312 319 323
321 320 320 321 322 324 324 324 324 323 324 324 324 323 312 297 313 313 317 317 314 310 307 307 305 307 303 303 303 304 304 303 303 303 302 303 302 303 304 306 306 306 310 315 320
320 319 319 320 321 323 323 323 322 323 323 322 323 318 307 302 313 313 313 311 312 310 307 309 308 305 305 301 303 304 298 301 301 302 301 302 299 300 303 303 304 305 308 312 317
319 318 319 319 321 322 322 322 322 322 322 323 323 314 301 312 314 309 310 309 311 311 310 309 309 306 304 304 301 299 300 295 299 301 301 300 297 301 302 302 303 305 307 309 314
318 318 318 319 319 320 321 321 320 321 321 322 314 309 298 313 306 309 310 306 307 308 309 308 308 304 302 299 296 297 293 295 294 300 300 299 298 299 303 302 302 304 305 306 307
318 318 318 318 319 319 320 319 320 319 318 316 309 302 303 302 307 308 310 309 305 306 304 304 303 299 300 297 291 292 293 294 295 297 298 297 297 300 302 302 303 304 305 306 305
317 318 318 318 318 319 318 315 306 304 307 299 299 299 301 307 309 306 308 305 306 303 297 301 297 293 296 298 299 298 294 293 296 297 297 296 297 299 301 302 302 304 304 304 304
317 318 318 318 318 319 315 304 303 305 297 304 302 302 306 306 300 303 307 301 300 295 299 296 293 298 300 297 295 296 294 293 294 296 296 296 296 299 300 300 300 301 302 302 303
317 317 317 317 317 316 312 307 312 309 296 298 300 301 303 305 300 300 304 302 298 295 296 293 296 298 296 294 294 294 293 293 293 294 295 294 294 296 296 299 300 301 301 302 303
316 316 316 316 311 312 309 312 315 312 290 292 297 299 303 303 298 304 304 301 298 294 296 295 294 294 295 294 295 290 295 295 293 292 288 293 288 294 295 296 299 301 302 303 303
316 316 316 315 309 307 309 316 316 306 280 294 297 304 302 298 299 299 304 301 295 295 295 292 292 292 293 294 296 293 296 295 295 293 291 291 289 293 294 294 296 300 301 302 304
315 315 315 315 314 312 316 316 310 290 280 291 296 294 295 297 297 299 299 301 300 295 296 294 296 296 295 295 296 296 295 294 295 293 285 291 289 291 291 295 297 299 301 301 302
308 314 314 316 308 317 317 310 291 284 293 290 291 294 294 292 294 296 294 293 291 288 288 292 292 295 296 292 295 295 292 285 284 284 283 287 287 292 293 298 299 298 300 302 303
306 312 312 313 317 316 312 298 283 289 289 295 293 293 290 293 293 294 293 291 295 294 290 287 284 292 296 295 291 292 292 287 280 281 284 285 284 290 296 300 301 301 301 302 302
304 306 309 305 311 315 302 287 288 291 294 293 293 289 289 292 292 292 292 292 294 295 289 288 287 294 294 295 296 292 288 293 285 281 285 287 290 292 294 297 298 299 300 301 302
299 302 300 304 307 311 298 289 292 295 297 295 288 291 287 289 290 290 291 295 294 296 295 292 285 291 292 295 294 293 295 286 288 282 282 285 287 289 289 293 296 297 299 301 302
297 295 298 302 307 301 290 291 294 297 299 294 291 289 291 289 290 289 291 294 297 294 295 294 292 287 291 290 290 289 289 289 290 289 285 282 286 294 293 296 296 298 300 300 301
293 287 298 300 294 295 291 294 297 296 299 298 297 294 291 291 289 290 290 293 298 296 290 295 291 285 287 292 292 293 291 291 286 283 285 285 288 295 297 298 300 299 300 301 301
288 286 297 298 287 289 295 295 296 296 296 296 295 296 295 291 288 291 292 295 294 294 293 294 291 284 284 289 290 289 291 292 292 291 286 285 287 294 296 298 300 299 300 300 300
290 285 288 288 287 291 291 292 292 299 297 298 296 296 294 291 294 290 291 294 296 295 296 296 291 288 284 287 291 287 289 290 290 286 286 287 289 290 295 296 298 298 300 300 299
290 285 287 285 286 286 290 292 291 291 298 299 295 295 294 289 291 290 293 293 295 296 295 294 288 290 291 290 291 291 289 289 287 289 286 289 289 293 295 297 298 300 300 298 298
287 285 287 285 287 287 286 286 291 293 295 294 294 296 296 292 293 291 292 293 292 294 293 294 288 290 286 289 289 287 290 289 289 290 290 291 291 297 298 299 299 298 298 297 297
292 293 289 285 286 285 286 287 287 291 297 297 297 296 294 295 299 300 299 299 297 293 292 291 288 286 285 287 288 284 288 289 290 292 292 288 293 296 296 297 297 298 298 297 297

GFSSW_sfc_thetae_090.txt.gz
Theta_e
325 325 325 326 326 327 328 328 326 326 325 324 323 321 321 323 324 316 312 315 317 326 321 310 310 310 311 309 310 308 298 296 298 297 299 304 301 303 303 305 308 308 314 323 329
324 325 325 325 325 327 328 328 326 327 325 323 322 321 321 324 318 313 323 324 326 328 312 307 305 308 303 306 305 301 297 300 302 300 300 303 303 302 300 303 303 309 322 326 327
323 323 324 324 325 326 327 327 326 326 326 324 322 322 323 321 309 312 327 329 329 328 315 311 308 306 303 303 302 301 298 302 301 302 305 303 301 304 300 299 303 306 318 323 324
323 323 323 324 325 326 326 326 326 327 327 326 323 322 322 316 299 313 326 327 330 321 313 308 306 302 301 300 303 297 301 302 303 303 304 302 303 300 300 298 305 309 319 322 322
322 322 322 323 323 325 325 325 326 326 326 326 325 324 316 304 304 315 326 327 323 316 309 305 302 302 298 301 302 299 300 302 302 302 302 304 300 299 300 302 303 307 316 319 321
321 321 321 321 322 323 325 325 325 325 325 326 325 322 311 297 312 316 319 321 316 311 308 306 303 305 301 300 300 302 302 300 301 300 300 300 298 298 298 302 301 303 307 314 318
321 320 320 320 321 322 323 324 324 324 324 325 325 317 306 305 312 313 317 315 316 312 306 307 306 303 302 300 301 301 296 297 299 300 297 298 294 294 297 299 300 300 304 309 315
320 319 319 320 321 322 322 323 323 323 323 324 324 313 301 313 312 310 311 310 312 311 309 309 308 304 302 301 298 297 296 291 296 297 297 295 291 295 298 296 297 299 299 305 310
319 318 319 319 320 321 322 322 321 322 323 323 314 309 298 313 306 309 309 306 308 307 308 307 306 301 300 293 291 293 288 291 292 297 296 293 291 295 297 297 295 296 298 302 305
318 318 318 319 319 320 320 320 320 320 318 315 310 302 304 301 307 307 308 308 304 304 302 302 300 296 294 292 286 288 287 291 289 293 293 292 291 294 297 296 295 296 298 298 299
318 318 318 318 319 320 318 314 306 303 307 299 299 299 300 306 308 305 307 305 304 301 294 298 292 289 292 293 294 294 292 290 291 294 293 292 292 295 297 295 293 295 298 298 299
318 318 318 318 319 319 315 303 304 305 297 303 302 301 306 305 299 302 307 299 299 293 296 294 290 295 297 296 294 291 290 288 291 294 291 291 292 295 296 296 295 296 296 296 296
317 317 317 318 318 315 310 306 310 308 295 298 301 299 302 304 299 299 302 300 296 293 293 291 294 297 296 292 291 290 290 288 289 290 289 288 287 291 292 293 295 295 295 296 297
317 317 316 317 311 311 308 312 313 310 289 292 295 299 302 303 298 304 303 300 296 292 294 293 295 294 292 291 292 288 292 292 290 287 282 288 279 288 290 292 294 296 295 296 298
316 316 316 315 308 306 310 314 314 307 278 293 295 304 303 298 298 298 303 299 294 294 294 290 290 291 291 293 294 290 294 292 291 287 285 283 281 284 290 290 293 295 297 298 299
316 315 315 312 311 310 312 314 310 289 279 290 295 294 294 296 297 298 298 300 299 294 293 291 293 293 293 293 294 295 292 291 290 288 279 284 282 282 285 290 292 295 296 297 297
313 315 312 314 305 313 315 308 288 281 293 289 289 293 292 291 293 294 292 291 289 286 286 289 290 293 294 290 292 291 288 279 278 277 278 282 282 285 288 293 295 294 295 296 298
307 314 312 313 316 315 310 295 280 287 289 294 292 292 288 292 292 292 291 288 292 290 287 284 282 289 293 291 288 288 287 281 276 276 277 280 279 285 291 296 297 297 296 297 297
306 310 308 305 312 314 299 284 284 289 293 292 291 287 288 290 291 291 289 289 291 292 285 285 285 291 292 293 292 288 285 289 280 275 277 280 283 287 291 294 295 295 296 296 297
299 305 299 303 308 309 294 287 290 295 296 294 287 289 285 287 288 288 289 292 291 294 293 289 283 289 290 292 291 289 291 282 283 273 274 279 280 282 286 291 294 294 295 296 297
296 296 298 302 308 299 287 289 293 297 297 292 290 288 288 287 289 288 289 291 295 292 292 290 289 285 289 287 287 286 285 285 286 284 278 275 279 286 289 293 293 294 297 297 296
292 286 297 301 293 293 289 293 296 295 299 296 295 292 290 290 288 288 288 290 295 294 288 292 288 282 284 289 289 288 288 288 282 279 280 281 281 291 291 294 295 295 297 297 297
286 286 297 297 286 288 293 293 295 295 295 295 294 295 293 291 286 290 290 294 294 293 290 292 287 279 282 286 288 286 287 288 287 285 277 276 279 291 289 294 296 295 296 297 296
289 285 287 290 289 292 290 290 291 298 296 297 295 295 292 289 291 289 290 294 295 293 296 295 290 285 281 283 288 284 287 287 287 280 280 282 282 285 289 292 295 296 297 296 296
291 285 285 284 285 287 292 292 290 290 297 298 294 294 291 287 289 288 291 292 294 295 293 292 284 287 286 288 288 287 287 287 285 288 283 286 285 288 290 292 295 296 297 296 296
286 285 287 286 285 287 287 288 290 292 294 293 293 294 294 289 290 288 291 291 290 292 291 293 283 286 282 288 288 283 286 288 288 288 287 286 285 291 295 296 295 296 297 296 296
292 292 290 286 286 285 285 288 288 292 295 296 296 294 293 294 296 297 296 296 294 290 290 289 286 284 282 284 285 280 285 287 287 289 289 285 289 291 292 294 295 296 297 296 296

GFSSW_sfc_thetae_093.txt.gz
Theta_e
325 325 326 326 327 327 329 329 329 328 328 328 326 325 324 322 322 318 312 318 318 327 323 310 308 307 307 305 306 302 294 292 294 294 295 300 298 300 302 304 306 311 312 320 326
324 324 324 326 325 326 328 328 327 327 327 326 325 324 324 324 317 314 324 326 326 328 310 306 304 305 301 303 302 297 293 295 298 298 297 299 299 299 300 301 304 316 322 324 324
323 323 323 324 325 325 327 326 326 326 326 325 323 322 323 322 312 313 328 330 328 328 314 310 308 304 300 301 298 297 295 298 298 300 302 300 298 300 299 297 304 315 319 321 320
322 323 323 324 324 326 326 326 326 325 324 324 323 323 322 316 300 317 329 330 330 327 315 308 305 300 298 297 300 295 298 299 301 300 301 299 300 298 298 298 305 319 322 321 319
321 322 321 322 323 325 325 326 326 325 324 323 322 321 315 304 306 315 328 330 326 322 312 306 301 300 296 297 299 296 297 300 300 299 300 301 297 297 297 299 307 319 321 319 320
321 321 320 321 322 323 324 325 325 325 325 323 323 321 309 299 313 318 324 325 321 318 312 307 302 303 299 298 297 298 299 298 299 297 298 297 295 298 296 299 304 315 316 318 319
320 320 320 321 322 322 323 324 325 325 325 326 324 314 304 304 311 315 320 323 322 319 306 308 306 301 300 297 299 298 294 294 296 297 296 297 294 294 297 298 299 302 308 314 317
320 319 320 320 321 321 322 322 323 324 324 325 323 309 299 312 312 311 312 313 322 314 310 308 306 302 299 298 296 295 293 288 293 296 296 294 290 295 296 296 296 297 298 305 312
319 319 319 319 320 320 321 322 322 323 324 323 311 303 296 312 306 309 309 308 308 307 307 307 303 298 296 290 288 289 285 288 290 295 294 292 290 294 295 294 293 294 296 301 305
319 318 318 319 319 320 320 321 321 321 319 315 311 297 300 300 306 307 307 309 304 303 301 299 298 293 290 287 284 284 285 288 287 292 292 289 290 293 295 293 292 293 294 299 303
318 318 318 318 320 320 318 313 304 303 306 298 299 297 298 304 307 304 307 305 303 300 293 296 290 288 289 290 291 289 288 288 289 292 292 290 290 292 294 293 291 291 293 295 296
318 318 318 319 320 319 313 302 301 303 296 303 302 300 303 303 298 301 305 299 299 292 295 292 288 292 295 293 292 289 287 285 288 291 290 290 291 292 293 293 294 294 293 294 294
317 317 318 319 319 314 307 303 309 305 294 297 300 298 299 302 297 297 301 299 295 292 292 289 292 296 294 291 290 288 287 286 287 289 288 286 285 289 292 293 294 294 294 295 295
317 317 317 318 312 310 304 311 307 303 285 290 293 297 301 300 295 302 302 299 294 291 292 291 295 293 291 291 291 286 291 290 288 286 281 284 278 285 288 290 292 293 293 294 296
317 317 317 317 310 305 306 311 309 300 273 291 293 302 301 295 296 296 301 297 292 292 291 288 290 290 288 290 291 289 292 290 288 286 282 282 279 282 287 287 290 292 293 294 296
316 316 316 312 310 310 311 311 304 286 274 288 292 292 292 294 294 296 296 297 297 293 292 290 293 293 292 292 292 293 291 290 288 285 278 282 280 279 284 289 289 292 294 295 296
312 315 314 312 304 312 312 305 284 275 289 286 286 291 290 289 291 292 291 289 287 285 285 288 289 291 293 290 291 291 285 278 278 277 276 280 278 282 287 290 292 293 293 294 295
309 315 312 311 312 312 307 293 272 282 285 291 290 290 286 290 289 290 288 287 290 289 285 282 281 288 292 290 287 286 285 278 274 274 277 279 279 284 288 291 294 295 294 294 294
306 311 308 307 312 312 298 282 281 285 290 288 289 286 285 289 289 288 287 288 289 289 285 284 284 290 291 292 292 286 283 287 280 272 275 278 280 286 290 291 292 293 294 293 294
299 305 301 304 312 306 291 284 286 292 293 290 284 286 282 286 285 285 286 290 290 291 291 288 282 289 289 291 290 287 290 282 280 272 272 276 277 280 285 289 291 292 292 293 294
295 297 298 303 308 298 285 285 289 295 295 290 287 286 285 285 286 285 286 289 293 291 292 290 287 285 288 286 286 285 283 284 285 281 275 273 278 285 288 291 291 293 294 294 294
290 286 297 302 293 293 288 289 294 294 296 294 292 290 287 288 287 287 287 289 295 293 288 291 287 281 283 288 289 287 286 286 281 278 279 279 280 290 288 292 294 294 295 295 295
285 286 296 299 285 287 292 291 293 293 293 293 292 292 291 288 285 288 289 293 293 292 289 292 285 279 282 285 287 286 287 287 286 281 277 276 279 289 287 291 294 293 295 295 295
285 284 289 292 289 289 289 288 289 295 294 295 293 293 290 288 290 288 289 293 294 293 296 295 288 284 280 283 286 283 285 286 286 280 279 279 280 285 287 290 292 293 295 295 295
287 284 284 285 286 289 290 290 288 289 294 295 292 292 290 286 288 287 291 291 293 295 292 291 283 286 286 287 287 286 286 285 284 287 283 285 283 286 288 291 293 295 295 294 294
285 285 286 285 286 289 290 286 288 290 293 291 291 293 292 288 288 287 290 289 289 292 290 291 281 285 282 287 286 283 285 287 288 287 285 284 284 289 290 292 293 295 295 294 294
290 291 288 286 285 287 287 288 288 292 293 295 295 293 292 293 295 294 294 294 293 290 289 289 286 282 278 282 283 280 285 285 287 287 288 284 289 288 289 292 294 295 296 296 296

GFSSW_sfc_thetae_096.txt.gz
Theta_e
326 326 326 326 326 327 329 329 330 329 329 328 326 324 324 323 322 318 311 316 319 328 320 313 312 311 306 303 305 303 293 292 293 293 295 298 297 298 301 304 308 313 315 320 324
325 325 325 326 325 326 327 328 328 329 328 327 326 325 324 323 315 311 324 327 329 326 309 312 304 306 302 301 301 298 293 295 298 296 297 298 298 299 301 301 309 313 318 324 323
324 324 324 325 325 325 326 327 327 328 328 327 326 325 324 321 309 309 327 330 329 327 312 310 307 304 300 300 299 298 294 298 298 298 300 299 297 297 300 296 310 313 318 321 321
323 323 323 323 324 325 326 326 327 327 327 326 325 325 324 317 299 316 328 330 330 325 312 310 306 300 299 297 299 294 298 298 300 300 300 298 299 296 296 297 310 319 321 321 319
322 321 322 323 323 324 325 326 326 325 325 324 324 323 316 308 307 315 328 329 324 321 309 306 306 300 296 298 298 296 295 298 298 300 299 300 297 297 296 296 318 320 320 319 320
321 321 321 322 323 324 325 326 325 324 324 324 323 322 308 301 315 316 324 323 319 316 313 308 305 305 299 298 297 298 297 296 297 297 297 297 295 296 296 303 315 318 318 318 318
321 320 320 321 322 323 324 325 324 324 323 323 322 313 303 304 310 321 323 320 318 316 311 311 306 304 302 298 302 296 292 292 294 296 295 297 293 293 296 307 313 315 315 317 318
320 319 319 320 321 322 323 324 323 323 323 323 322 307 297 310 312 319 321 321 320 319 314 310 307 305 299 301 297 293 290 287 292 295 294 293 290 294 295 301 306 309 310 315 317
319 318 319 320 320 321 322 322 322 324 324 323 309 302 295 311 305 310 319 318 317 315 315 311 305 298 297 292 289 288 284 285 289 294 292 292 289 293 294 295 296 297 301 307 312
319 318 319 319 319 320 321 322 322 322 320 315 311 296 299 298 304 306 312 316 308 309 303 303 297 293 291 289 285 284 284 286 286 291 291 289 289 291 293 293 293 293 293 298 304
318 318 319 319 319 321 319 315 307 305 306 298 299 296 297 302 306 304 310 307 307 303 293 295 290 288 291 290 290 290 288 287 287 291 290 289 289 291 293 291 290 290 291 295 301
318 318 319 319 320 320 316 305 303 305 295 302 302 300 300 301 296 301 307 299 299 296 295 290 287 293 294 293 292 289 288 286 288 290 289 288 289 290 291 292 292 291 291 295 293
318 318 318 319 319 315 309 303 309 306 293 296 301 298 299 300 295 297 303 298 296 295 293 288 291 295 293 291 289 287 286 285 287 287 287 285 286 288 291 291 292 293 292 293 293
317 317 317 318 312 311 304 307 310 301 285 289 293 296 299 299 293 300 302 299 296 291 295 291 295 292 291 291 290 285 289 289 288 284 281 285 280 282 288 290 292 292 292 293 294
317 317 317 316 310 305 306 308 308 298 274 290 292 300 298 294 295 295 300 296 292 292 293 290 291 290 289 291 291 288 291 289 287 284 283 281 279 282 284 285 290 291 292 294 295
316 316 316 312 311 309 310 309 302 284 273 286 291 292 291 292 292 295 295 295 298 293 293 293 293 294 293 292 292 292 290 288 287 284 278 282 281 280 283 287 291 290 292 293 295
311 316 314 313 306 310 310 302 283 277 288 284 286 290 289 288 289 290 290 288 286 284 285 288 289 290 294 290 291 291 287 279 278 278 277 280 278 283 285 288 290 292 291 293 294
306 315 313 311 313 310 306 289 273 281 284 289 289 290 286 289 288 288 289 287 288 288 285 283 281 288 292 291 287 286 287 278 274 274 275 279 278 284 287 290 291 292 293 293 293
305 312 308 308 312 310 298 283 280 284 289 287 288 285 283 288 287 286 287 288 289 288 284 284 283 289 290 291 291 287 283 286 279 271 276 277 280 286 289 289 290 291 293 292 293
298 306 303 310 312 306 292 284 285 290 291 290 282 285 280 285 284 284 285 290 289 290 290 287 282 288 289 291 290 288 289 283 280 273 271 275 276 280 285 289 290 290 292 292 293
295 299 298 308 310 298 286 286 289 292 293 288 285 284 284 285 284 283 285 286 292 289 290 289 287 284 288 286 286 285 284 283 283 281 276 272 277 283 287 291 290 292 293 293 293
290 286 297 307 294 294 288 288 293 292 293 291 289 287 285 287 285 285 284 287 294 291 287 290 286 281 284 288 289 286 286 286 281 278 278 278 278 287 286 289 292 292 293 293 294
285 285 297 303 286 288 292 291 292 293 292 291 288 290 289 287 284 286 287 292 292 291 289 291 285 279 282 285 287 285 286 286 284 282 278 278 280 287 286 288 292 292 293 294 293
285 284 289 296 290 291 289 288 288 295 293 294 292 291 288 287 288 286 287 292 293 293 296 294 287 284 280 283 286 283 285 286 286 280 279 279 281 284 286 288 291 293 294 293 293
286 283 284 285 287 290 291 289 287 288 293 294 290 290 288 285 286 286 289 290 292 295 292 291 283 285 285 286 287 285 286 286 285 287 283 285 282 285 287 289 292 294 294 293 293
285 284 285 285 287 290 290 287 287 289 291 289 289 291 291 287 288 286 289 287 288 291 290 289 280 284 282 287 286 283 285 286 287 286 284 282 282 288 288 291 291 293 294 293 294
291 291 286 285 287 288 287 288 288 292 292 294 293 292 291 292 293 293 294 293 292 290 290 288 283 279 275 282 283 280 284 285 286 288 288 284 289 288 287 290 292 293 294 295 295

GFSSW_sfc_thetae_099.txt.gz
Theta_e
327 326 327 327 325 327 328 329 328 329 327 327 325 324 325 324 322 315 308 315 317 327 324 316 316 311 308 303 304 302 292 289 292 291 293 297 296 297 301 303 306 312 314 319 325
320 326 326 326 326 326 327 328 327 329 327 326 325 324 324 322 313 309 321 326 327 325 316 314 307 310 305 302 302 296 292 295 298 295 295 298 297 299 301 306 306 310 316 321 326
320 324 325 325 325 325 325 327 326 327 328 327 325 324 323 318 306 305 326 329 327 323 311 309 307 305 306 303 299 296 294 297 299 297 299 298 296 298 300 298 308 310 316 319 324
320 324 324 324 324 325 325 326 325 326 328 327 326 324 322 313 296 313 328 330 329 322 311 308 305 301 299 299 301 295 298 297 300 300 299 297 298 299 297 298 307 316 320 319 322
320 323 323 323 324 325 325 326 326 326 327 326 326 324 317 308 308 315 327 328 322 319 309 308 304 300 297 298 299 296 296 297 299 297 297 298 295 297 297 298 316 319 320 318 320
318 320 321 322 323 324 325 326 326 327 326 326 325 323 312 301 315 314 321 322 318 314 308 310 306 305 301 298 297 297 297 297 296 295 295 296 292 294 294 309 315 317 317 318 318
318 320 320 321 322 323 324 325 326 325 325 325 325 316 306 305 312 316 321 318 317 313 309 309 308 307 304 302 302 300 294 293 293 294 294 295 291 292 294 312 314 314 315 317 318
318 320 319 320 322 323 323 324 324 324 324 324 323 308 303 310 315 318 320 317 319 317 310 311 311 308 300 304 302 293 292 286 291 294 293 292 289 294 297 311 311 311 311 314 315
319 319 319 320 321 321 323 323 322 323 323 323 313 304 296 312 307 318 319 314 316 316 312 310 305 302 300 297 297 294 286 285 290 293 291 291 289 293 293 309 309 309 310 312 315
318 318 318 319 320 321 322 322 321 321 319 316 311 298 299 298 304 311 319 318 312 310 306 304 301 295 294 293 291 292 286 286 287 291 289 288 289 289 292 299 305 303 305 307 312
318 318 318 319 320 321 320 317 309 306 309 300 301 297 298 302 305 308 315 310 310 305 298 301 293 289 292 293 290 295 289 288 288 291 289 288 289 290 290 288 291 292 294 298 303
318 319 318 319 319 321 317 309 308 310 297 302 304 300 300 301 298 304 311 302 303 298 295 293 290 295 295 293 291 289 288 287 289 290 289 287 288 288 290 290 291 291 290 293 295
313 318 318 318 319 317 314 310 313 309 296 297 302 298 298 300 295 299 301 301 300 296 293 291 291 294 293 291 290 287 289 286 287 287 286 285 285 287 290 290 291 292 290 292 296
312 317 317 318 313 314 307 311 312 303 287 290 294 296 298 298 293 301 302 299 296 295 294 292 294 292 290 290 291 286 289 289 287 286 282 285 279 283 287 289 290 292 290 292 292
311 314 317 317 312 308 307 310 305 300 277 290 293 300 298 294 294 295 300 297 292 293 294 290 291 289 289 290 292 289 290 289 288 285 282 280 279 282 284 286 288 291 291 291 292
310 316 317 313 313 309 310 309 302 286 274 285 291 290 291 292 292 294 294 296 297 293 295 292 295 293 291 291 292 292 290 288 287 284 278 282 281 280 281 286 290 290 291 292 293
308 316 315 313 306 309 309 302 285 273 286 283 285 290 289 287 288 292 290 287 286 285 285 289 290 291 293 291 292 290 287 280 279 277 278 279 278 286 284 287 289 292 293 292 293
307 315 313 311 311 310 304 290 271 280 283 287 288 289 286 288 286 290 289 285 287 286 284 282 282 288 292 292 288 287 288 280 275 276 276 280 277 283 287 287 289 291 292 292 293
306 308 309 310 311 309 296 282 279 283 286 286 287 284 283 287 286 287 288 288 287 287 282 281 282 289 290 292 293 287 284 287 280 272 277 278 280 285 286 289 291 291 291 293 294
300 304 306 311 311 304 291 284 283 288 289 290 282 285 282 285 283 285 286 290 289 289 287 286 281 287 289 292 291 289 291 283 281 274 272 275 276 280 283 288 290 290 291 292 294
295 298 304 311 309 297 285 284 287 291 292 287 284 283 283 285 283 284 285 286 292 288 288 286 286 284 288 286 287 287 283 284 286 281 277 273 277 284 287 290 290 292 292 292 293
291 285 299 309 294 294 288 287 293 289 290 290 288 286 285 286 283 284 283 287 294 290 285 288 284 280 284 287 289 291 286 286 282 278 278 278 278 285 285 286 291 290 291 292 293
285 285 299 305 286 289 292 289 291 289 289 289 287 289 288 287 283 285 286 291 292 291 288 290 284 277 281 285 287 285 287 286 284 282 281 278 281 286 287 288 290 291 292 292 292
286 284 289 298 292 292 289 288 286 292 291 291 289 289 287 286 287 284 286 291 291 292 295 294 286 283 280 282 285 283 284 285 286 280 280 280 281 285 287 288 289 291 292 293 292
286 282 284 285 287 291 292 289 287 287 291 293 289 288 287 284 284 284 287 289 291 294 292 290 282 283 284 285 287 286 287 286 284 286 282 285 282 287 288 288 290 292 292 291 291
285 284 285 285 288 291 291 287 287 289 291 289 288 288 288 285 287 284 287 286 287 289 289 287 277 283 280 285 285 283 285 287 287 288 286 283 282 287 287 290 291 292 292 292 292
289 288 286 285 286 289 288 288 287 291 291 293 291 290 287 288 291 293 292 292 291 289 288 287 281 277 272 281 282 281 284 285 286 288 288 283 288 287 287 289 290 291 293 293 294

GFSSW_sfc_thetae_102.txt.gz
Theta_e
321 322 323 327 327 328 329 329 330 329 329 328 326 324 325 324 322 313 307 314 316 324 325 315 315 312 308 303 303 302 292 288 291 292 292 295 295 295 301 307 307 310 311 315 325
320 321 321 326 326 327 327 328 328 329 328 327 326 325 324 322 310 307 318 326 327 325 316 313 310 311 304 303 301 298 292 294 296 296 292 296 296 298 301 304 304 307 315 324 326
320 321 322 325 326 326 326 327 327 328 328 327 325 324 323 315 304 304 323 329 326 321 316 311 310 309 307 305 300 298 293 296 298 298 297 296 295 297 300 299 305 309 314 322 322
320 321 320 317 326 325 325 326 326 327 327 326 325 323 321 311 295 309 326 330 327 314 310 307 305 303 303 304 303 296 298 297 298 298 298 296 296 297 300 299 302 313 319 321 321
318 320 321 319 325 325 325 326 326 326 327 326 325 323 315 305 303 316 326 329 320 313 309 306 305 302 299 300 301 298 297 297 298 298 297 297 295 295 296 299 310 317 319 320 322
318 319 320 319 324 324 324 325 326 325 326 326 324 321 312 301 315 315 318 321 315 311 310 310 305 306 300 298 302 299 299 298 297 296 297 296 292 293 294 309 312 316 315 319 321
318 318 318 320 323 323 323 324 325 324 326 326 324 317 309 307 312 317 319 317 315 313 309 308 311 311 306 301 304 299 295 294 295 296 295 295 291 292 294 310 311 312 314 314 318
317 318 318 320 322 322 323 323 324 324 326 326 324 311 304 311 312 318 317 316 316 315 310 313 313 306 304 306 304 294 292 287 291 293 294 294 289 293 301 309 308 309 309 312 314
314 318 317 320 320 321 322 323 323 325 326 325 311 307 300 314 310 316 317 312 315 314 311 312 309 305 303 300 298 298 289 286 289 292 291 291 290 292 299 307 306 307 308 310 311
314 317 317 319 320 320 321 322 323 324 322 316 311 301 299 298 309 316 317 315 311 311 307 304 300 296 297 298 290 292 290 288 288 290 289 288 290 289 291 305 306 307 308 309 311
314 318 318 319 319 320 320 318 310 308 309 302 301 297 298 302 309 311 316 313 311 308 299 301 293 290 295 299 296 299 291 288 288 291 291 290 290 293 290 289 298 302 303 306 310
313 315 318 318 319 320 319 309 308 310 296 303 304 298 300 307 304 308 315 306 304 298 299 294 290 296 299 297 298 291 294 291 289 290 289 289 290 289 289 290 292 298 298 302 301
312 312 318 318 318 318 313 309 314 309 295 297 302 298 298 303 300 303 309 303 302 296 297 294 295 298 295 294 290 292 289 288 288 288 287 286 287 287 289 288 290 290 292 293 299
311 313 317 317 313 314 309 312 312 306 289 290 296 297 297 299 296 303 305 301 297 297 295 293 298 296 293 291 292 287 291 290 287 287 284 285 280 285 286 288 289 290 289 290 291
310 311 313 317 312 309 311 314 308 305 279 292 294 301 298 296 296 298 301 299 294 296 294 291 290 291 290 291 295 291 291 289 288 286 283 282 280 285 282 285 287 289 290 292 292
309 310 310 314 313 314 314 311 305 287 278 287 292 291 291 291 292 296 295 299 299 296 296 292 294 292 291 292 295 292 290 288 287 283 278 284 281 281 284 285 288 290 291 293 291
308 310 308 315 307 313 310 303 285 281 287 283 286 289 289 286 288 293 290 289 288 288 287 290 291 291 291 290 291 292 287 280 279 276 278 279 278 286 285 287 289 293 293 293 290
307 309 309 314 312 311 306 293 280 283 284 287 287 290 285 288 286 289 287 285 287 287 286 285 283 290 292 291 285 288 288 279 274 275 278 279 278 284 288 288 288 289 290 290 291
306 305 310 310 311 309 297 285 284 284 286 285 287 284 282 286 286 287 287 287 288 288 284 284 285 290 289 292 292 287 287 287 279 272 275 278 280 285 286 287 289 290 289 289 291
300 301 306 310 310 304 293 288 282 287 289 289 282 284 279 284 282 283 286 289 287 289 288 285 280 286 289 293 291 289 291 283 283 272 272 275 276 281 283 288 289 290 291 291 291
298 291 305 310 308 297 287 289 286 290 292 286 283 282 283 284 283 284 285 286 290 289 287 285 284 282 287 286 286 286 286 285 285 281 276 274 278 283 287 289 290 291 292 292 291
291 285 300 309 293 292 289 288 292 288 289 288 287 284 285 286 282 285 284 288 294 291 287 287 284 279 282 286 290 290 288 289 283 279 277 278 280 284 286 286 288 288 291 292 293
285 286 299 304 287 286 292 289 291 287 287 286 285 286 287 286 282 284 285 291 293 291 288 288 283 276 280 283 284 285 286 287 288 283 281 279 282 286 286 288 289 289 291 292 292
285 284 289 298 294 290 288 287 286 290 289 289 287 287 286 285 285 283 284 289 292 293 295 294 285 282 278 280 284 281 286 287 286 282 282 283 284 286 288 289 289 290 292 291 292
285 282 284 285 288 292 291 288 286 286 290 290 286 286 285 282 283 282 285 287 289 294 292 290 284 282 282 283 286 284 285 287 285 286 283 286 283 285 288 289 289 291 291 291 291
285 283 285 285 290 292 291 287 286 287 289 287 285 286 286 283 285 282 286 285 286 288 288 286 278 282 279 284 283 282 285 286 288 288 287 288 287 292 288 288 290 291 292 291 292
289 288 285 285 289 289 288 288 287 290 290 291 289 287 285 287 291 293 292 292 290 289 288 286 281 277 275 279 281 277 283 284 285 287 288 284 290 288 288 288 289 290 292 293 293

GFSSW_sfc_thetae_105.txt.gz
Theta_e
322 319 319 321 319 327 329 329 330 330 329 329 328 326 326 324 322 314 307 315 316 326 325 317 316 312 308 305 305 303 294 293 295 293 295 298 298 300 305 311 311 314 314 318 327
321 320 319 321 320 320 328 328 329 330 329 328 327 325 325 322 310 307 317 326 327 328 316 313 310 312 305 304 302 300 295 296 299 299 296 298 298 299 305 307 310 313 319 325 326
320 320 319 319 320 318 327 327 327 329 329 328 326 324 323 314 303 303 323 328 329 326 319 318 312 312 306 306 302 298 296 298 298 299 299 298 297 301 303 303 307 310 316 322 323
319 320 319 319 321 321 321 326 327 328 328 328 325 324 321 309 295 309 325 330 328 314 312 310 308 306 305 301 304 297 298 298 300 299 300 298 298 299 302 303 305 313 320 321 323
318 319 319 319 320 321 319 326 326 327 327 327 325 322 313 303 302 315 326 329 319 309 308 307 306 304 303 303 302 299 299 299 299 298 299 298 297 298 300 301 309 317 320 320 322
318 318 318 319 320 321 318 325 325 326 326 326 324 321 311 300 314 319 321 316 315 309 309 309 306 306 301 300 303 301 300 299 299 297 298 297 295 297 299 311 312 316 318 320 321
317 317 318 319 320 320 317 325 325 326 326 326 324 317 310 307 314 317 320 315 314 310 309 310 311 309 304 299 304 297 296 297 296 297 296 297 294 295 299 312 311 312 315 319 320
316 315 317 318 320 320 318 323 324 324 325 325 323 316 306 312 314 316 317 315 315 313 311 313 313 306 306 307 304 297 294 290 295 295 295 294 292 296 301 310 310 311 312 316 318
314 315 314 318 319 318 319 323 323 324 325 325 316 310 300 315 309 316 314 311 313 311 313 312 310 304 304 300 297 297 290 289 291 294 293 292 292 296 302 307 307 309 311 313 315
313 315 313 318 318 318 321 322 322 323 322 320 314 304 301 303 312 315 314 315 310 308 306 305 302 298 299 299 291 291 292 289 288 292 291 290 291 294 294 306 306 307 309 311 313
312 313 313 317 318 320 320 317 309 307 312 304 302 299 299 307 315 311 314 312 311 307 297 299 296 295 297 300 299 298 295 294 290 292 290 290 291 295 293 298 303 305 308 309 311
310 312 313 312 318 320 318 309 309 309 301 306 305 299 304 311 305 310 314 304 303 297 297 294 292 298 301 301 296 298 295 292 293 291 290 289 290 294 291 291 295 303 305 308 309
309 311 311 313 317 317 312 310 315 309 297 299 301 300 303 307 303 305 310 306 300 297 296 292 294 298 299 297 297 293 295 294 294 289 290 288 288 290 291 290 291 293 301 304 309
309 311 310 309 312 313 309 315 314 310 290 291 295 299 299 303 298 307 309 304 300 297 297 296 298 295 294 294 297 291 295 291 289 288 287 287 281 288 289 290 289 291 291 296 301
308 310 310 310 312 308 312 314 312 307 280 291 294 303 299 299 299 300 303 301 297 295 295 292 292 293 291 293 295 292 295 292 289 286 282 282 282 286 286 286 289 290 291 292 294
308 309 309 308 313 314 314 313 307 289 278 286 293 292 293 294 294 296 298 300 301 295 295 292 294 295 293 293 297 293 292 290 289 286 281 283 284 282 290 288 290 291 293 294 294
307 308 307 308 306 315 311 305 288 283 287 284 286 291 291 289 292 295 292 292 291 288 288 291 291 293 291 288 293 293 289 281 280 278 278 280 281 288 288 289 292 294 294 295 294
306 307 307 307 313 312 307 295 283 283 285 289 290 290 287 290 290 292 291 289 288 289 289 286 284 290 292 289 287 290 289 282 276 276 277 278 279 284 289 293 290 290 291 291 292
305 304 303 305 310 311 299 285 283 286 285 287 289 286 284 286 289 290 288 290 289 289 286 287 287 291 291 293 292 287 285 287 281 271 274 278 281 287 287 288 288 290 290 291 292
299 300 300 306 313 306 293 285 283 287 289 290 284 286 283 283 283 286 286 288 288 290 289 287 281 288 291 293 292 288 292 284 284 275 271 276 277 282 284 288 290 289 291 293 292
297 289 297 304 311 299 286 286 286 290 293 288 283 281 284 283 283 284 285 286 289 289 287 287 284 281 286 287 286 287 286 287 286 281 275 272 278 283 287 289 289 290 291 292 293
291 284 300 309 295 295 290 287 292 290 288 287 286 284 286 286 282 283 284 286 292 292 285 287 283 279 283 285 291 289 287 288 284 279 279 278 279 286 286 287 288 289 289 292 293
285 285 297 297 285 289 292 289 290 288 286 286 285 286 288 286 283 284 285 290 292 292 289 287 282 275 281 284 284 286 286 289 287 285 282 280 284 286 285 286 289 290 291 292 293
286 283 286 287 293 292 289 287 286 290 288 287 285 289 286 285 284 283 284 287 291 292 295 293 284 281 279 281 284 283 286 288 288 283 282 283 287 286 288 289 288 290 292 293 293
286 283 283 283 287 291 292 289 286 284 288 288 284 287 285 282 281 281 284 285 288 293 290 289 280 281 282 283 284 285 285 285 285 287 283 287 286 290 292 293 294 290 292 292 292
284 284 285 284 289 291 291 288 286 286 287 285 285 287 285 283 285 282 285 284 285 287 287 286 278 281 278 282 283 282 286 287 287 287 287 287 285 289 289 289 288 291 290 292 292
289 288 286 285 289 289 288 288 287 289 289 288 287 286 284 286 289 290 291 291 290 290 288 285 281 277 271 279 280 275 283 285 287 289 288 283 289 290 288 289 292 293 290 292 293

GFSSW_sfc_thetae_108.txt.gz
Theta_e
322 324 323 323 322 323 321 328 328 330 329 330 330 328 327 325 323 318 312 318 319 326 325 318 318 313 311 307 310 308 302 300 300 299 302 307 306 307 312 315 317 320 318 325 330
321 322 323 322 321 322 321 318 327 329 330 329 329 327 325 323 316 313 322 327 326 327 317 316 311 312 307 306 306 309 304 303 303 303 302 304 306 307 310 312 314 317 322 328 329
320 321 322 322 321 321 320 320 320 327 329 329 328 326 323 320 311 312 326 328 329 327 318 318 316 313 307 307 305 306 304 305 302 304 303 302 303 308 308 308 311 313 320 323 326
318 319 321 321 321 321 320 319 317 326 328 328 327 325 321 318 301 314 326 329 330 323 319 314 311 308 306 303 306 302 305 306 303 302 303 302 303 304 308 309 311 317 323 323 323
318 318 320 320 320 321 321 320 318 316 327 327 326 323 315 309 311 320 323 327 321 317 315 311 308 308 305 307 304 304 302 303 302 302 302 302 302 303 306 309 312 320 324 323 324
317 318 318 319 320 321 320 321 318 316 326 327 325 321 312 304 317 322 320 321 316 314 314 314 310 310 308 307 304 306 305 303 303 303 303 301 302 302 306 311 314 320 322 323 324
317 317 317 319 320 320 321 321 319 318 326 327 324 316 310 309 319 323 321 316 317 315 313 314 312 309 305 305 306 303 303 305 302 300 301 302 299 299 306 312 313 318 321 322 325
316 317 317 318 318 319 320 320 319 317 325 326 323 316 307 315 322 319 318 315 317 317 316 317 315 308 307 308 303 300 302 298 306 299 298 303 298 304 305 311 311 315 320 320 322
315 316 316 316 317 318 319 320 317 317 325 325 316 313 303 317 313 318 317 311 314 315 316 316 313 306 306 301 299 300 295 298 302 300 300 300 300 301 303 309 310 314 317 320 322
313 315 315 314 315 317 319 320 318 318 323 320 317 306 304 305 313 315 317 314 310 311 309 309 305 301 303 300 293 293 296 298 300 299 297 298 297 302 300 305 308 312 316 318 320
312 312 314 315 312 318 317 314 305 308 313 306 306 307 304 312 317 312 315 311 311 309 301 303 299 297 300 302 304 300 300 299 299 296 296 298 298 301 303 300 305 309 313 316 318
310 310 312 314 314 316 316 306 305 314 303 308 310 306 310 313 305 309 314 305 304 300 302 297 296 304 306 305 301 301 299 300 303 299 297 298 296 300 302 300 301 305 310 313 317
308 310 311 312 310 311 310 309 313 317 301 301 306 303 307 309 304 305 310 306 301 298 299 297 300 303 303 300 299 297 297 299 299 294 295 296 298 302 304 299 300 301 306 312 315
308 309 311 310 305 308 308 313 317 316 291 291 296 301 305 308 302 311 311 305 301 297 298 298 301 301 300 300 301 293 298 299 298 294 292 298 290 301 305 304 298 299 300 304 312
308 308 310 310 304 306 312 317 316 307 279 292 294 303 303 302 303 305 312 305 299 299 299 295 295 297 299 298 302 295 297 295 292 293 287 292 286 297 298 297 299 300 301 301 305
307 308 309 306 305 305 315 315 308 288 280 286 294 294 295 298 301 298 300 305 306 300 300 295 298 300 299 298 301 298 293 292 290 289 284 291 288 294 298 298 302 302 301 302 302
306 307 307 307 298 310 315 307 287 282 287 284 288 294 293 292 295 296 294 294 293 290 290 292 293 295 298 294 296 294 292 283 282 282 286 288 288 294 301 299 302 303 303 303 303
305 306 307 305 307 305 309 295 282 284 286 291 292 291 289 293 295 295 294 292 295 297 290 287 284 291 295 297 291 292 293 285 281 281 287 283 285 293 297 297 301 299 301 301 302
304 304 303 305 307 305 300 285 285 287 289 289 290 288 286 289 292 293 293 294 295 298 291 288 287 294 292 295 296 290 288 294 285 279 282 287 290 294 296 296 296 297 298 299 300
300 300 301 307 307 301 294 286 286 292 293 292 287 291 285 286 288 292 292 297 294 296 299 294 285 292 293 295 294 295 296 286 287 281 280 287 286 289 293 294 297 297 299 301 301
298 293 299 306 304 294 285 285 287 293 296 293 290 289 291 288 292 291 291 293 297 293 297 295 290 285 290 289 289 291 290 290 290 287 283 282 288 295 295 296 295 296 297 298 299
292 286 299 305 287 291 286 287 292 293 296 293 293 293 291 292 291 291 290 291 298 295 292 292 289 285 287 291 293 294 291 291 287 283 286 283 287 294 294 294 293 296 296 298 299
286 287 296 295 284 285 288 289 292 292 292 292 289 293 294 290 287 288 290 295 298 297 294 292 288 282 282 287 290 290 291 293 292 289 286 285 289 300 295 294 295 296 297 299 299
288 284 287 287 288 288 286 287 288 295 289 290 291 294 292 289 292 287 288 291 296 297 295 295 288 288 284 286 288 286 290 291 291 285 288 288 292 295 293 295 297 297 297 298 300
288 284 285 283 285 289 291 289 287 285 290 291 291 292 291 287 286 287 288 289 293 296 294 294 286 287 288 289 290 289 289 290 289 291 287 291 290 295 298 299 300 301 300 297 298
286 285 285 284 285 288 290 288 287 290 289 288 289 292 292 289 289 286 289 289 289 292 292 291 287 288 283 287 288 287 290 290 290 291 291 292 291 298 299 300 299 300 300 297 297
289 288 288 286 285 285 288 289 289 292 290 292 293 291 290 292 294 293 294 294 293 292 291 289 286 286 283 284 285 283 287 290 291 293 292 288 293 296 296 296 297 298 299 299 300

GFSSW_sfc_thetae_111.txt.gz
Theta_e
321 323 324 325 325 325 324 327 329 329 329 329 330 329 328 327 326 323 316 321 323 327 325 318 317 313 312 313 314 312 305 303 303 304 305 310 309 310 315 315 317 320 318 325 332
320 322 323 324 324 324 325 322 327 328 329 327 328 328 326 324 320 317 325 326 328 327 320 319 310 311 307 308 310 308 305 305 308 306 304 308 310 310 310 312 314 317 323 330 329
320 321 322 324 323 324 324 324 319 325 328 326 327 327 324 322 315 315 328 328 329 325 322 325 316 313 307 308 309 309 306 310 305 306 306 305 305 310 309 308 311 313 320 327 325
319 320 321 322 323 323 323 323 322 318 326 327 327 326 323 319 302 318 327 329 330 323 319 320 317 308 305 303 309 303 310 312 306 305 305 304 306 305 308 310 313 315 322 325 324
317 318 319 321 322 322 323 322 322 321 316 327 327 324 317 310 312 321 326 327 322 320 316 316 315 312 305 306 306 303 309 307 306 304 305 305 304 304 306 312 313 318 323 324 323
316 317 318 319 321 321 322 322 321 320 319 316 326 322 313 304 323 322 320 321 320 319 317 317 315 315 310 308 306 309 308 305 305 306 305 305 304 303 308 311 312 318 321 324 325
316 316 317 318 319 320 321 321 322 320 319 318 325 318 310 308 322 323 320 320 320 320 316 319 318 313 310 305 309 307 303 304 304 306 306 306 305 302 308 310 311 315 319 323 325
315 315 316 317 319 319 320 320 320 320 319 318 317 316 307 320 322 320 321 318 319 320 320 321 317 313 307 309 303 303 304 298 306 305 306 304 301 309 309 308 309 313 317 321 324
315 314 316 317 318 318 319 320 320 319 318 318 308 312 305 316 315 319 319 314 316 317 319 317 314 310 308 301 300 301 297 299 303 308 307 302 303 310 307 307 308 311 314 319 321
314 314 316 317 317 317 318 319 319 318 316 314 309 306 307 307 315 317 319 317 313 314 311 311 308 305 304 301 295 295 297 300 301 304 302 302 302 308 305 305 307 310 313 316 319
314 315 316 316 315 316 316 313 305 305 307 300 305 305 305 314 317 313 316 313 313 310 303 306 300 298 302 304 305 303 298 301 304 304 300 302 303 307 309 305 305 307 310 314 316
313 313 314 315 315 313 314 305 306 310 298 304 303 309 311 313 305 310 315 307 305 300 304 300 297 304 306 305 304 302 301 300 304 298 298 302 301 304 306 308 306 306 307 310 315
311 311 312 313 314 312 309 308 314 313 300 300 301 307 307 311 304 305 311 308 304 300 300 298 300 306 304 303 300 301 300 301 301 300 301 301 300 304 308 307 306 305 306 309 311
309 309 310 312 306 309 306 313 314 311 290 290 300 303 307 308 302 311 312 307 303 299 301 299 304 303 303 301 302 296 301 302 299 297 294 300 292 302 307 308 307 306 305 306 309
307 309 310 311 307 304 307 313 314 307 279 293 298 310 308 303 302 303 312 307 299 300 301 297 298 300 299 300 304 297 303 300 295 294 293 296 292 298 304 303 306 309 307 306 308
307 308 309 308 308 309 312 313 309 288 279 287 295 296 299 301 301 303 303 307 307 300 301 297 300 303 302 304 304 300 295 294 294 293 287 294 294 294 299 302 304 307 309 310 308
307 308 308 308 301 308 309 304 287 281 287 284 288 296 297 296 296 299 295 297 295 291 291 294 296 297 302 295 298 296 295 286 284 285 285 292 293 295 302 305 305 303 307 309 309
306 307 307 307 309 307 303 291 281 287 285 289 293 296 292 296 295 296 294 293 299 297 293 288 284 292 300 296 292 293 294 288 282 283 288 287 288 295 302 302 299 305 304 304 306
306 305 304 306 308 305 289 280 285 286 289 290 294 290 289 293 294 294 293 294 298 299 291 289 288 295 296 299 298 292 289 297 288 283 285 290 293 298 301 300 302 301 302 303 303
301 299 300 307 307 296 285 282 285 293 294 294 288 291 285 287 291 291 292 298 297 300 301 295 286 292 292 299 296 297 298 288 290 283 282 288 291 292 296 298 301 301 301 303 304
299 292 300 306 302 289 282 284 286 295 298 293 292 290 290 288 293 292 292 297 300 300 301 298 292 287 291 292 291 292 291 293 294 291 285 284 289 297 299 299 299 298 298 300 301
295 286 299 304 287 287 285 287 291 291 298 297 298 296 292 294 292 292 292 297 302 301 295 297 292 284 287 292 296 297 293 293 289 285 289 288 288 297 298 298 298 298 299 301 302
287 290 297 299 283 284 288 289 291 292 294 295 295 297 297 294 290 294 295 299 300 298 296 295 290 282 282 289 292 291 295 296 295 291 288 286 290 302 299 296 298 298 299 301 301
289 284 288 290 288 286 286 287 287 296 296 298 297 298 296 294 296 292 292 296 300 300 297 297 292 289 284 288 291 287 291 293 293 288 289 289 293 297 298 298 298 299 301 302 303
290 285 286 283 285 286 288 289 288 288 292 296 294 296 295 290 291 290 291 294 298 298 296 296 288 291 292 293 292 291 290 292 290 292 289 292 293 296 300 301 302 304 304 303 303
287 286 285 285 285 285 286 286 288 287 291 291 292 296 296 291 292 289 291 292 292 296 294 295 289 290 284 291 292 289 292 292 292 293 293 294 293 300 301 302 300 301 302 301 302
291 290 289 286 286 285 286 289 290 292 294 296 296 295 294 295 298 297 296 295 297 295 294 291 287 287 282 288 287 284 289 292 293 294 294 290 295 298 297 299 299 300 301 301 302

GFSSW_sfc_thetae_114.txt.gz
Theta_e
322 322 324 326 327 327 326 329 329 328 330 330 331 330 329 327 326 321 314 322 323 326 323 323 317 314 312 311 313 311 300 300 302 303 303 307 305 307 310 311 311 315 317 323 329
321 321 322 324 326 326 325 326 328 328 329 330 330 329 327 325 318 316 326 330 328 327 321 315 311 310 306 309 309 307 301 303 307 303 301 306 305 306 305 308 309 313 324 328 328
320 321 321 323 324 325 325 324 325 328 328 328 327 327 326 323 311 314 331 329 328 326 321 324 314 312 306 308 307 306 301 308 306 305 305 304 302 305 304 303 307 311 320 323 325
319 320 321 321 323 325 325 324 322 323 327 328 327 326 324 317 300 318 330 331 330 321 318 321 313 308 305 302 308 301 307 307 305 305 304 303 303 302 302 303 308 311 323 322 323
318 319 319 321 321 323 324 324 324 321 321 327 326 325 319 309 310 321 328 329 322 319 315 317 313 307 304 305 306 304 307 311 305 303 302 304 302 301 300 304 309 319 323 320 322
317 317 318 319 320 322 323 324 323 323 320 321 326 325 314 303 321 321 322 321 319 316 315 317 316 314 308 307 304 306 307 305 303 303 303 302 302 300 302 304 307 317 318 320 321
316 317 317 318 319 321 322 323 323 322 322 319 324 320 312 309 322 322 320 319 319 317 314 317 319 313 310 306 308 306 301 301 301 302 302 303 301 299 304 305 306 310 315 319 321
315 316 316 317 318 319 321 321 322 321 321 321 319 319 308 320 322 320 320 318 320 320 319 320 318 312 309 308 304 300 301 295 302 303 302 302 297 306 308 304 304 307 310 318 321
314 315 315 315 316 317 319 320 320 322 320 319 313 309 303 321 314 319 319 315 317 317 318 319 316 309 307 302 299 298 294 297 300 306 302 299 297 306 308 303 301 303 308 314 318
314 314 315 315 315 316 318 320 319 319 317 316 313 303 306 307 314 317 319 317 312 312 311 310 307 302 302 300 293 295 295 298 297 303 302 298 297 303 301 301 302 303 304 311 314
313 314 315 315 316 317 316 312 305 302 307 301 301 301 305 313 317 314 316 313 311 309 301 305 299 295 299 302 304 302 299 298 301 302 299 298 299 303 305 300 299 300 302 307 315
313 314 315 315 315 316 314 305 305 308 297 306 305 305 307 314 306 310 315 306 305 299 303 300 296 301 304 304 302 302 299 298 301 298 295 297 298 301 304 305 304 301 301 303 308
313 313 314 314 315 311 307 306 314 313 298 300 304 302 304 308 305 306 310 307 303 299 299 295 298 304 303 300 299 300 298 297 298 298 299 295 294 299 304 304 303 303 302 303 305
312 312 313 313 307 307 304 311 313 312 290 293 298 301 303 304 302 311 312 307 303 298 299 298 301 300 299 298 300 295 301 300 299 296 292 295 286 295 300 303 304 302 299 300 302
311 311 312 313 306 303 307 312 313 306 276 294 296 307 304 297 303 304 312 307 299 299 299 295 297 299 297 299 302 297 302 299 296 294 292 293 288 292 298 298 301 305 303 302 301
310 311 311 309 308 309 312 312 307 287 277 288 297 295 295 297 301 304 305 308 307 301 301 297 300 301 301 303 302 299 296 294 292 293 286 291 290 290 295 298 300 303 305 305 304
308 310 308 308 300 309 310 304 285 279 288 285 290 295 294 293 298 299 298 296 295 290 290 295 296 297 300 298 298 297 294 284 284 284 284 289 289 293 298 300 300 300 299 301 305
307 308 308 307 309 308 303 292 278 284 286 290 291 295 290 294 296 297 296 292 298 296 291 288 285 293 301 298 293 295 294 284 278 280 282 283 283 291 301 300 297 298 300 298 297
307 304 303 305 308 305 292 278 281 285 289 289 292 290 289 295 295 295 293 292 297 297 289 288 287 295 299 298 298 292 290 294 284 277 280 284 288 294 297 296 295 295 296 297 296
300 299 299 306 306 299 286 280 284 290 290 293 288 292 286 289 290 292 292 297 297 299 298 292 285 292 292 298 296 295 297 288 287 276 276 283 285 288 291 295 296 296 296 296 296
298 291 300 305 302 291 280 281 285 290 292 288 291 290 288 288 290 291 292 297 299 298 297 295 290 287 292 292 290 292 291 292 291 288 280 278 283 289 294 295 295 292 294 294 296
295 285 301 302 286 287 283 286 289 289 292 290 292 294 289 291 291 292 290 295 301 300 294 294 289 283 286 292 296 295 293 293 287 283 285 283 283 292 292 292 294 293 295 296 297
286 288 298 298 281 283 287 287 289 288 289 288 288 296 296 292 289 294 294 299 301 299 295 294 287 281 283 287 289 291 294 295 291 287 282 280 283 294 292 292 293 293 294 296 295
289 283 287 290 290 286 284 285 285 291 289 291 288 297 295 293 296 292 294 298 301 300 298 297 289 286 282 286 289 287 291 293 291 283 284 286 288 288 290 292 292 293 295 295 296
291 285 286 281 284 286 289 288 285 285 290 293 290 294 293 291 292 292 293 296 299 297 295 294 284 288 289 291 290 290 291 292 290 291 287 289 290 293 294 294 296 296 298 297 297
286 285 285 286 286 285 286 285 285 288 290 288 288 295 296 292 292 291 294 294 294 293 292 293 284 286 280 289 290 287 291 291 292 292 291 290 289 296 295 295 296 296 297 296 296
292 291 288 286 285 282 284 285 287 290 291 294 292 295 294 295 298 298 298 297 297 294 292 291 286 284 277 282 284 279 287 290 291 293 293 288 293 294 293 295 295 296 296 296 296

GFSSW_sfc_thetae_117.txt.gz
Theta_e
323 324 324 325 326 327 328 330 329 330 330 331 331 330 329 328 325 321 313 321 323 326 324 318 312 309 309 308 309 308 296 296 299 299 299 304 301 305 307 310 312 315 316 320 327
322 323 323 324 326 326 327 328 329 328 330 330 330 329 327 325 318 315 325 331 328 327 319 312 307 308 303 306 307 307 296 299 302 298 300 305 303 304 304 306 308 317 322 325 326
321 322 322 323 324 326 326 326 327 328 329 329 328 328 325 322 313 314 329 331 329 327 318 315 312 309 304 303 302 302 299 305 301 301 302 302 300 304 303 301 308 313 319 322 322
320 321 321 322 323 324 326 325 325 327 328 328 328 326 323 319 301 318 329 332 329 321 315 315 309 306 305 300 304 299 304 304 304 303 302 300 302 299 301 302 306 320 323 322 323
319 319 320 321 322 323 324 325 324 325 326 327 326 324 319 310 310 324 330 331 323 317 311 312 306 306 306 306 307 301 303 307 302 301 300 302 299 299 298 301 311 323 322 320 320
318 318 318 319 320 322 323 324 324 323 324 326 326 324 313 304 320 322 323 322 319 315 313 313 310 307 303 307 307 305 305 304 301 300 300 300 299 300 300 302 316 320 318 318 320
317 317 318 318 320 321 322 322 323 323 322 324 326 320 310 306 319 320 321 319 319 316 312 313 315 311 307 303 305 306 299 303 300 300 300 301 299 298 303 304 312 314 316 317 319
317 316 317 318 318 319 320 321 321 322 322 321 323 318 308 319 320 319 319 318 320 319 316 316 315 309 306 304 301 298 298 294 300 300 301 301 295 302 304 302 302 309 313 316 318
316 316 317 317 317 319 320 320 320 322 321 320 313 309 304 321 314 320 319 315 317 317 317 318 315 305 306 298 295 298 292 295 299 302 300 298 295 303 304 301 300 301 308 315 317
315 315 316 316 316 317 318 319 319 318 316 315 311 303 306 307 314 318 319 318 314 313 310 310 307 300 301 296 290 291 295 297 297 300 298 295 295 301 300 299 299 299 302 315 317
315 315 316 315 316 317 314 310 304 301 306 297 299 299 304 311 316 314 316 314 313 309 301 304 299 295 296 299 299 298 296 295 297 301 298 298 296 298 302 299 297 299 299 308 315
314 314 315 315 315 316 310 303 303 302 295 303 303 302 306 312 306 310 316 307 305 299 302 300 295 299 301 301 300 300 296 297 300 299 299 295 295 299 301 302 299 299 299 300 310
313 314 314 314 314 310 305 304 310 307 293 297 301 301 302 307 303 306 312 308 302 299 298 295 297 301 300 299 298 297 297 298 299 295 297 293 292 296 301 302 303 302 300 301 302
313 313 313 313 307 305 302 311 310 307 284 289 296 299 304 304 298 311 313 307 303 298 299 297 299 299 298 297 299 293 301 299 296 295 290 294 284 292 298 300 302 301 299 299 301
312 312 313 312 302 301 304 311 311 304 274 290 295 305 303 299 299 301 313 307 299 299 299 295 296 296 295 297 300 295 301 297 296 292 289 290 287 290 295 295 299 304 301 300 300
312 312 312 307 304 304 309 311 306 285 275 288 296 295 295 297 296 303 305 309 307 300 300 297 300 299 299 300 300 299 296 295 294 293 287 290 290 288 293 297 298 301 305 304 300
311 311 309 306 299 308 309 302 283 278 288 285 289 294 293 292 293 298 298 297 295 290 291 295 296 298 301 295 298 298 295 285 284 284 282 289 288 293 296 298 299 300 300 303 301
310 309 307 305 307 307 304 292 278 282 283 289 292 292 288 291 292 294 295 292 298 295 291 287 285 295 299 298 293 295 294 282 277 279 280 283 283 289 300 303 301 302 302 298 297
309 303 300 302 306 304 294 280 281 281 288 287 290 287 287 291 290 292 290 293 297 298 290 288 287 295 297 298 298 293 291 291 282 274 278 282 286 293 295 297 295 295 294 296 296
297 297 296 304 304 298 286 282 282 288 289 289 285 289 285 288 288 289 290 296 296 299 297 292 285 293 292 298 296 296 297 288 284 275 275 280 282 285 290 293 295 295 295 293 294
294 287 297 304 301 290 280 274 281 290 291 286 286 287 289 288 289 288 289 293 299 298 296 294 290 287 293 293 292 292 292 290 290 284 279 276 281 290 292 296 294 292 293 293 294
289 278 300 301 287 286 278 280 289 286 290 290 289 287 285 291 290 290 288 292 300 300 292 294 290 284 289 291 295 296 293 294 287 283 284 282 282 290 291 292 291 292 293 294 295
285 287 299 295 280 281 282 284 287 285 287 288 287 288 289 288 288 292 293 298 300 299 294 293 287 282 283 289 292 292 294 295 290 286 284 280 282 290 288 290 291 291 293 295 296
287 282 287 291 287 282 278 281 282 289 288 289 289 290 288 285 290 290 293 298 301 301 298 296 289 287 283 287 290 289 292 294 289 282 283 287 285 285 288 290 290 291 292 292 294
286 278 280 282 283 286 285 283 282 281 288 289 286 287 286 283 284 291 295 296 299 300 296 293 285 287 287 289 291 290 291 293 290 290 287 290 288 288 289 289 290 292 293 294 296
286 284 285 284 286 285 286 283 283 285 287 286 285 287 287 284 285 289 295 295 295 296 295 293 286 286 280 288 290 288 291 293 293 293 292 289 289 294 293 294 292 293 295 295 295
291 291 285 286 285 284 283 283 284 286 288 291 290 289 288 289 292 292 300 300 298 295 293 291 285 283 275 283 285 280 289 291 292 294 294 288 293 294 293 293 294 295 295 295 295